[[{"header":{"parameterUnit":"m.s-1","parameterCategory":1,"la1":30.6,"la2":28.766,"lo1":-90.7593,"lo2":-88.6598,"dx":0.0162,"dy":0.0183,"nx":116,"ny":114,"refTime":"2022-12-20T06:00:00:Z","depth":0,"parameterNumber":2,"parameterNumberName":"U-component_of_WINDS"},"data":[0.0,0.0,0.0,0.0,0.0,0.0,0.0,0.0,0.0,0.0,0.0,0.0,0.0,0.0,0.0,0.0,0.0,0.0,0.0,0.0,0.0,0.0,0.0,0.0,0.0,0.0,0.0,0.0,0.0,0.0,0.0,0.0,0.0,0.0,0.0,0.0,0.0,0.0,0.0,0.0,0.0,0.0,0.0,0.0,0.0,0.0,0.0,0.0,0.0,0.0,0.0,0.0,0.0,0.0,0.0,0.0,0.0,0.0,0.0,0.0,0.0,0.0,0.0,0.0,0.0,0.0,0.0,0.0,0.0,0.0,0.0,0.0,0.0,0.0,0.0,0.0,0.0,0.0,0.0,0.0,0.0,0.0,0.0,0.0,0.0,0.0,0.0,0.0,0.0,0.0,0.0,0.0,0.0,0.0,0.0,0.0,0.0,0.0,0.0,0.0,0.0,0.0,0.0,0.0,0.0,0.0,0.0,0.0,0.0,0.0,0.0,0.0,0.0,0.0,0.0,0.0,0.0,0.0,0.0,0.0,0.0,0.0,0.0,0.0,0.0,0.0,0.0,0.0,0.0,0.0,0.0,0.0,0.0,0.0,0.0,0.0,0.0,0.0,0.0,0.0,0.0,0.0,0.0,0.0,0.0,0.0,0.0,0.0,0.0,0.0,0.0,0.0,0.0,0.0,0.0,0.0,0.0,0.0,0.0,0.0,0.0,0.0,0.0,0.0,0.0,0.0,0.0,0.0,0.0,0.0,0.0,0.0,0.0,0.0,0.0,0.0,0.0,0.0,0.0,0.0,0.0,0.0,0.0,0.0,0.0,0.0,0.0,0.0,0.0,0.0,0.0,0.0,0.0,0.0,0.0,0.0,0.0,0.0,0.0,0.0,0.0,0.0,0.0,0.0,0.0,0.0,0.0,0.0,0.0,0.0,0.0,0.0,0.0,0.0,0.0,0.0,0.0,0.0,0.0,0.0,0.0,0.0,0.0,0.0,0.0,0.0,0.0,0.0,0.0,0.0,0.0,0.0,0.0,0.0,0.0,0.0,0.0,0.0,0.0,0.0,0.0,0.0,0.0,0.0,0.0,0.0,0.0,0.0,0.0,0.0,0.0,0.0,0.0,0.0,0.0,0.0,0.0,0.0,0.0,0.0,0.0,0.0,0.0,0.0,0.0,0.0,0.0,0.0,0.0,0.0,0.0,0.0,0.0,0.0,0.0,0.0,0.0,0.0,0.0,0.0,0.0,0.0,0.0,0.0,0.0,0.0,0.0,0.0,0.0,0.0,0.0,0.0,0.0,0.0,0.0,0.0,0.0,0.0,0.0,0.0,0.0,0.0,0.0,0.0,0.0,0.0,0.0,0.0,0.0,0.0,0.0,0.0,0.0,0.0,0.0,0.0,0.0,0.0,0.0,0.0,0.0,0.0,0.0,0.0,0.0,0.0,0.0,0.0,0.0,0.0,0.0,0.0,0.0,0.0,0.0,0.0,0.0,0.0,0.0,0.0,0.0,0.0,0.0,0.0,0.0,0.0,0.0,0.0,0.0,0.0,0.0,0.0,0.0,0.0,0.0,0.0,0.0,0.0,0.0,0.0,0.0,0.0,0.0,0.0,0.0,0.0,0.0,0.0,0.0,0.0,0.0,0.0,0.0,0.0,0.0,0.0,0.0,0.0,0.0,0.0,0.0,0.0,0.0,0.0,0.0,0.0,0.0,0.0,0.0,0.0,0.0,0.0,0.0,0.0,0.0,0.0,0.0,0.0,0.0,0.0,0.0,0.0,0.0,0.0,0.0,0.0,0.0,0.0,0.0,0.0,0.0,0.0,0.0,0.0,0.0,0.0,0.0,0.0,0.0,0.0,0.0,0.0,0.0,0.0,0.0,0.0,0.0,0.0,0.0,0.0,0.0,0.0,0.0,0.0,0.0,0.0,0.0,0.0,0.0,0.0,0.0,0.0,0.0,0.0,0.0,0.0,0.0,0.0,0.0,0.0,0.0,0.0,0.0,0.0,0.0,0.0,0.0,0.0,0.0,0.0,0.0,0.0,0.0,0.0,0.0,0.0,0.0,0.0,0.0,0.0,0.0,0.0,0.0,0.0,0.0,0.0,0.0,0.0,0.0,0.0,0.0,0.0,0.0,0.0,0.0,0.0,0.0,0.0,0.0,0.0,0.0,0.0,0.0,0.0,0.0,0.0,0.0,0.0,0.0,0.0,0.0,0.0,0.0,0.0,0.0,0.0,0.0,0.0,0.0,0.0,0.0,0.0,0.0,0.0,0.0,0.0,0.0,0.0,0.0,0.0,0.0,0.0,0.0,0.0,0.0,0.0,0.0,0.0,0.0,0.0,0.0,0.0,0.0,0.0,0.0,0.0,0.0,0.0,0.0,0.0,0.0,0.0,0.0,0.0,0.0,0.0,0.0,0.0,0.0,0.0,0.0,0.0,0.0,0.0,0.0,0.0,0.0,0.0,0.0,0.0,0.0,0.0,0.0,0.0,0.0,0.0,0.0,0.0,0.0,0.0,0.0,0.0,0.0,0.0,0.0,0.0,0.0,0.0,0.0,0.0,0.0,0.0,0.0,0.0,0.0,0.0,0.0,0.0,0.0,0.0,0.0,0.0,0.0,0.0,0.0,0.0,0.0,0.0,0.0,0.0,0.0,0.0,0.0,0.0,0.0,0.0,0.0,0.0,0.0,0.0,0.0,0.0,0.0,0.0,0.0,0.0,0.0,0.0,0.0,0.0,0.0,0.0,0.0,0.0,0.0,0.0,0.0,0.0,0.0,0.0,0.0,0.0,0.0,0.0,0.0,0.0,0.0,0.0,0.0,0.0,0.0,0.0,0.0,0.0,0.0,0.0,0.0,0.0,0.0,0.0,0.0,0.0,0.0,0.0,0.0,0.0,0.0,0.0,0.0,0.0,0.0,0.0,0.0,0.0,0.0,0.0,0.0,0.0,0.0,0.0,0.0,0.0,0.0,0.0,0.0,0.0,0.0,0.0,0.0,0.0,0.0,0.0,0.0,0.0,0.0,0.0,0.0,0.0,0.0,0.0,0.0,0.0,0.0,0.0,0.0,0.0,0.0,0.0,0.0,0.0,0.0,0.0,0.0,0.0,0.0,0.0,0.0,0.0,0.0,0.0,0.0,0.0,0.0,0.0,0.0,0.0,0.0,0.0,0.0,0.0,0.0,0.0,0.0,0.0,0.0,0.0,0.0,0.0,0.0,0.0,0.0,0.0,0.0,0.0,0.0,0.0,0.0,0.0,0.0,0.0,0.0,0.0,0.0,0.0,0.0,0.0,0.0,0.0,0.0,0.0,0.0,0.0,0.0,0.0,0.0,0.0,0.0,0.0,0.0,0.0,0.0,0.0,0.0,0.0,0.0,0.0,0.0,0.0,0.0,0.0,0.0,0.0,0.0,0.0,0.0,0.0,0.0,0.0,0.0,0.0,0.0,0.0,0.0,0.0,0.0,0.0,0.0,0.0,0.0,0.0,0.0,0.0,0.0,0.0,0.0,0.0,0.0,0.0,0.0,0.0,0.0,0.0,0.0,0.0,0.0,0.0,0.0,0.0,0.0,0.0,0.0,0.0,0.0,0.0,0.0,0.0,0.0,0.0,0.0,0.0,0.0,0.0,0.0,0.0,0.0,0.0,0.0,0.0,0.0,0.0,0.0,0.0,0.0,0.0,0.0,0.0,0.0,0.0,0.0,0.0,0.0,0.0,0.0,0.0,0.0,0.0,0.0,0.0,0.0,0.0,0.0,0.0,0.0,0.0,0.0,0.0,0.0,0.0,0.0,0.0,0.0,0.0,0.0,0.0,0.0,0.0,0.0,0.0,0.0,0.0,0.0,0.0,0.0,0.0,0.0,0.0,0.0,0.0,0.0,0.0,0.0,0.0,0.0,0.0,0.0,0.0,0.0,0.0,0.0,0.0,0.0,0.0,0.0,0.0,0.0,0.0,0.0,0.0,0.0,0.0,0.0,0.0,0.0,0.0,0.0,0.0,0.0,0.0,0.0,0.0,0.0,0.0,0.0,0.0,0.0,0.0,0.0,0.0,0.0,0.0,0.0,0.0,0.0,0.0,0.0,0.0,0.0,0.0,0.0,0.0,0.0,0.0,0.0,0.0,0.0,0.0,0.0,0.0,0.0,0.0,0.0,0.0,0.0,0.0,0.0,0.0,0.0,0.0,0.0,0.0,0.0,0.0,0.0,0.0,0.0,0.0,0.0,0.0,0.0,0.0,0.0,0.0,0.0,0.0,0.0,0.0,0.0,0.0,0.0,0.0,0.0,0.0,0.0,0.0,0.0,0.0,0.0,0.0,0.0,0.0,0.0,0.0,0.0,0.0,0.0,0.0,0.0,0.0,0.0,0.0,0.0,0.0,0.0,0.0,0.0,0.0,0.0,0.0,0.0,0.0,0.0,0.0,0.0,0.0,0.0,0.0,0.0,0.0,0.0,0.0,0.0,0.0,0.0,0.0,0.0,0.0,0.0,0.0,0.0,0.0,0.0,0.0,0.0,0.0,0.0,0.0,0.0,0.0,0.0,0.0,0.0,0.0,0.0,0.0,0.0,0.0,0.0,0.0,0.0,0.0,0.0,0.0,0.0,0.0,0.0,0.0,0.0,0.0,0.0,0.0,0.0,0.0,0.0,0.0,0.0,0.0,0.0,0.0,0.0,0.0,0.0,0.0,0.0,0.0,0.0,0.0,0.0,0.0,0.0,0.0,0.0,0.0,0.0,0.0,0.0,0.0,0.0,0.0,0.0,0.0,0.0,0.0,0.0,0.0,0.0,0.0,0.0,0.0,0.0,0.0,0.0,0.0,0.0,0.0,0.0,0.0,0.0,0.0,0.0,0.0,0.0,0.0,0.0,0.0,0.0,0.0,0.0,0.0,0.0,0.0,0.0,0.0,0.0,0.0,0.0,0.0,0.0,0.0,0.0,0.0,0.0,0.0,0.0,0.0,0.0,0.0,0.0,0.0,0.0,0.0,0.0,0.0,0.0,0.0,0.0,0.0,0.0,0.0,0.0,0.0,0.0,0.0,0.0,0.0,0.0,0.0,0.0,0.0,0.0,0.0,0.0,0.0,0.0,0.0,0.0,0.0,0.0,0.0,0.0,0.0,0.0,0.0,0.0,0.0,0.0,0.0,0.0,0.0,0.0,0.0,0.0,0.0,0.0,0.0,0.0,0.0,0.0,0.0,0.0,0.0,0.0,0.0,0.0,0.0,0.0,0.0,0.0,0.0,0.0,0.0,0.0,0.0,0.0,0.0,0.0,0.0,0.0,0.0,0.0,0.0,0.0,0.0,0.0,0.0,0.0,0.0,0.0,0.0,0.0,0.0,0.0,0.0,0.0,0.0,0.0,0.0,0.0,0.0,0.0,0.0,0.0,0.0,0.0,0.0,0.0,0.0,0.0,0.0,0.0,0.0,0.0,0.0,0.0,0.0,0.0,0.0,0.0,0.0,0.0,0.0,0.0,0.0,0.0,0.0,0.0,0.0,0.0,0.0,0.0,0.0,0.0,0.0,0.0,0.0,0.0,0.0,0.0,0.0,0.0,0.0,0.0,0.0,0.0,0.0,0.0,0.0,0.0,0.0,0.0,0.0,0.0,0.0,0.0,0.0,0.0,0.0,0.0,0.0,0.0,0.0,0.0,0.0,0.0,0.0,0.0,0.0,0.0,0.0,0.0,0.0,0.0,0.0,0.0,0.0,0.0,0.0,0.0,0.0,0.0,0.0,0.0,0.0,0.0,0.0,0.0,0.0,0.0,0.0,0.0,0.0,0.0,0.0,0.0,0.0,0.0,0.0,0.0,0.0,0.0,0.0,0.0,0.0,0.0,0.0,0.0,0.0,0.0,0.0,0.0,0.0,0.0,0.0,0.0,0.0,0.0,0.0,0.0,0.0,0.0,0.0,0.0,0.0,0.0,0.0,0.0,0.0,0.0,0.0,0.0,0.0,0.0,0.0,0.0,0.0,0.0,0.0,0.0,0.0,0.0,0.0,0.0,0.0,0.0,0.0,0.0,0.0,0.0,0.0,0.0,0.0,0.0,0.0,0.0,0.0,0.0,0.0,0.0,0.0,0.0,0.0,5.0668,0.0,0.0,0.0,0.0,0.0,0.0,0.0,0.0,0.0,0.0,0.0,0.0,0.0,0.0,0.0,0.0,0.0,0.0,0.0,0.0,0.0,0.0,0.0,0.0,2.5242,2.5504,2.501,2.6008,0.0,0.0,0.0,0.0,0.0,0.0,0.0,0.0,0.0,2.6456,2.8403,2.8856,3.1347,3.571,3.4526,3.254,2.9916,0.0,0.0,0.0,0.0,0.0,0.0,0.0,0.0,0.0,0.0,0.0,0.0,0.0,0.0,0.0,0.0,0.0,0.0,0.0,0.0,0.0,0.0,0.0,0.0,0.0,0.0,0.0,0.0,0.0,0.0,0.0,0.0,0.0,0.0,0.0,0.0,0.0,0.0,0.0,0.0,0.0,0.0,0.0,0.0,0.0,0.0,0.0,0.0,0.0,0.0,0.0,0.0,0.0,0.0,0.0,0.0,0.0,0.0,0.0,0.0,0.0,0.0,0.0,0.0,0.0,0.0,0.0,0.0,0.0,0.0,0.0,5.1644,0.0,0.0,0.0,0.0,0.0,0.0,0.0,0.0,0.0,0.0,0.0,0.0,0.0,0.0,0.0,0.0,0.0,0.0,0.0,0.0,0.0,2.5416,2.5516,2.6528,2.7151,2.6959,2.7174,2.732,2.7246,2.7033,0.0,0.0,0.0,0.0,2.6483,2.6726,2.8386,3.1635,3.387,3.7074,4.1191,4.1858,3.9864,3.5656,3.3439,0.0,0.0,0.0,0.0,0.0,0.0,0.0,0.0,0.0,0.0,0.0,0.0,0.0,0.0,0.0,0.0,0.0,0.0,0.0,0.0,0.0,0.0,0.0,0.0,0.0,0.0,0.0,0.0,0.0,0.0,0.0,0.0,0.0,0.0,0.0,0.0,0.0,0.0,0.0,0.0,0.0,0.0,0.0,0.0,0.0,0.0,0.0,0.0,0.0,0.0,0.0,0.0,0.0,0.0,0.0,0.0,0.0,0.0,0.0,0.0,0.0,0.0,0.0,5.7528,5.8497,5.9197,5.9197,6.0271,6.1886,5.8119,5.7183,5.7924,0.0,0.0,0.0,0.0,0.0,0.0,0.0,0.0,0.0,0.0,0.0,0.0,0.0,0.0,0.0,0.0,0.0,0.0,0.0,0.0,2.6064,2.7738,2.7531,2.8095,3.0099,2.8798,2.8429,2.9657,2.8734,2.8164,2.8164,2.8439,2.8439,2.8113,2.9132,3.1243,3.4543,4.0547,4.4184,4.5481,4.5896,4.5689,4.4811,3.9717,3.6488,3.4726,0.0,0.0,0.0,0.0,0.0,0.0,0.0,0.0,0.0,0.0,0.0,0.0,0.0,0.0,0.0,0.0,0.0,0.0,0.0,0.0,0.0,0.0,0.0,0.0,0.0,0.0,0.0,0.0,0.0,0.0,0.0,0.0,0.0,0.0,0.0,0.0,0.0,0.0,0.0,0.0,0.0,4.7418,4.7713,0.0,0.0,0.0,0.0,0.0,0.0,0.0,0.0,0.0,0.0,0.0,0.0,0.0,5.4262,5.6091,5.8813,6.0299,6.0523,6.3217,6.4883,6.56,6.56,6.5753,6.6033,6.5413,0.0,5.9708,5.838,0.0,0.0,0.0,0.0,0.0,0.0,0.0,0.0,0.0,0.0,0.0,0.0,0.0,0.0,0.0,0.0,0.0,0.0,0.0,0.0,0.0,3.1263,3.2593,3.5068,3.4157,3.3308,3.2913,3.1851,3.0678,2.9459,2.9346,2.9564,3.0073,3.2417,3.6789,4.3237,4.8014,5.0742,5.1579,5.1728,5.1352,5.0447,4.8002,4.3858,3.8654,3.7274,0.0,0.0,0.0,0.0,0.0,0.0,0.0,0.0,0.0,0.0,0.0,0.0,0.0,0.0,0.0,0.0,0.0,0.0,0.0,0.0,0.0,0.0,0.0,0.0,0.0,0.0,0.0,0.0,0.0,0.0,0.0,0.0,0.0,0.0,0.0,0.0,0.0,0.0,0.0,4.7688,5.0243,4.9794,5.0532,4.9742,0.0,0.0,0.0,0.0,0.0,0.0,0.0,0.0,0.0,5.812,5.8265,5.9586,6.2321,6.404,6.5175,6.5696,6.7398,6.8605,6.9339,6.9339,6.9339,6.9339,6.9339,6.7996,6.5537,6.2245,5.9505,5.7137,0.0,0.0,0.0,0.0,5.5582,5.5912,0.0,0.0,0.0,0.0,0.0,0.0,0.0,0.0,0.0,0.0,0.0,0.0,3.3583,3.5316,3.7282,3.9751,3.8721,3.7448,3.6411,3.4409,3.2635,3.1257,3.0555,3.079,3.1971,3.6622,4.3023,5.1115,5.4114,5.6013,5.6815,5.6612,5.5877,5.4634,5.4431,5.0296,4.3396,4.2104,3.9574,3.6276,0.0,0.0,0.0,0.0,0.0,0.0,0.0,0.0,0.0,0.0,0.0,0.0,0.0,0.0,0.0,0.0,0.0,0.0,0.0,0.0,0.0,0.0,0.0,0.0,0.0,0.0,0.0,0.0,0.0,0.0,0.0,0.0,0.0,0.0,0.0,0.0,0.0,5.0604,5.2621,5.1855,5.3297,5.2696,0.0,0.0,0.0,0.0,0.0,0.0,5.5992,5.5893,5.8084,6.3159,6.3294,6.4806,6.7918,6.8504,6.918,6.9958,7.0511,7.1244,7.2135,7.2135,7.2135,7.2135,7.2135,7.1718,7.068,6.6045,6.3439,6.2178,5.9539,5.7848,5.7261,6.0224,6.0919,6.0993,0.0,0.0,0.0,0.0,0.0,0.0,0.0,0.0,0.0,0.0,0.0,3.3657,3.6905,3.8738,4.0766,4.3239,4.0401,3.8898,3.9956,3.5585,3.3228,3.3868,3.2611,3.2436,3.3653,4.2132,4.9403,5.519,5.7612,5.9161,5.9877,5.9158,5.8414,5.7654,5.6934,5.4025,4.9466,4.6616,4.4045,4.1582,3.7968,0.0,0.0,0.0,0.0,0.0,0.0,0.0,0.0,0.0,0.0,0.0,0.0,0.0,0.0,0.0,0.0,0.0,0.0,0.0,0.0,0.0,0.0,0.0,0.0,0.0,0.0,0.0,0.0,0.0,0.0,0.0,0.0,0.0,0.0,0.0,0.0,0.0,0.0,5.4483,5.6278,0.0,0.0,0.0,0.0,5.4066,5.5495,5.7715,6.0775,6.1598,6.4048,6.8571,6.8707,6.9485,7.1064,7.1097,7.1503,7.2225,7.2259,7.3037,7.4446,7.4446,7.4446,7.4446,7.4446,7.4018,7.3082,7.0026,6.7466,6.5334,6.3758,6.3105,6.3149,6.4055,6.5656,6.7654,0.0,0.0,0.0,0.0,0.0,2.6282,2.657,2.705,2.7747,2.8877,3.2082,3.5515,3.8742,4.1583,4.4201,4.6712,4.5394,4.4122,4.3371,3.9255,3.7162,3.7864,3.5807,3.7757,4.4482,4.9718,5.4841,5.9927,6.0767,6.1569,6.2269,6.1535,6.1037,6.0767,6.0013,5.8254,5.5606,5.2156,4.8578,4.5,4.2746,3.9288,0.0,0.0,0.0,0.0,0.0,0.0,0.0,0.0,0.0,0.0,0.0,0.0,0.0,0.0,0.0,0.0,0.0,0.0,0.0,0.0,0.0,0.0,0.0,0.0,0.0,0.0,0.0,0.0,0.0,0.0,0.0,0.0,0.0,0.0,0.0,0.0,0.0,5.617,5.8806,0.0,5.5094,5.823,6.0065,5.8909,6.1501,6.4071,6.6214,6.6576,6.8098,7.1142,7.1695,7.2394,7.3397,7.4412,7.5033,7.5303,7.5777,7.6296,7.6804,7.6804,7.6804,7.6804,7.6804,7.6352,7.5574,7.3984,7.1751,6.9203,6.8199,6.7523,6.7309,6.9011,7.0128,7.1075,0.0,0.0,0.0,0.0,2.6654,2.7087,2.7375,2.8078,2.9292,3.1194,3.4575,3.8357,4.2375,4.514,4.7557,4.973,4.9049,4.7878,4.6445,4.3131,4.1243,4.1314,4.0326,4.3931,5.2843,5.5311,5.8789,6.3546,6.3509,6.3903,6.4603,6.3869,6.3372,6.3101,6.211,6.096,5.9597,5.69,5.3145,4.8891,4.6894,4.3721,3.9918,0.0,0.0,0.0,0.0,0.0,0.0,0.0,0.0,0.0,0.0,0.0,0.0,0.0,0.0,0.0,0.0,0.0,0.0,0.0,0.0,0.0,0.0,0.0,0.0,0.0,0.0,0.0,0.0,0.0,0.0,0.0,0.0,0.0,0.0,5.8138,6.0192,5.8059,6.1244,6.2056,5.8195,6.1884,6.4366,6.3977,6.6193,6.8459,7.0466,7.0567,7.1616,7.3849,7.439,7.4999,7.5743,7.6758,7.7266,7.7266,7.7785,7.8124,7.8382,7.8382,7.8382,7.8382,7.8382,7.7942,7.7232,7.669,7.5168,7.3059,7.1797,7.1492,7.1887,7.3071,7.3849,7.4492,0.0,0.0,0.0,2.7455,2.7829,2.8117,2.8877,2.9687,3.1668,3.5731,3.8474,4.2156,4.7773,4.9392,5.0672,5.2176,5.0977,4.9838,4.9078,4.6887,4.5166,4.4143,4.6199,5.0683,5.7754,5.8623,6.1234,6.5814,6.5748,6.6112,6.6768,6.6079,6.5368,6.4613,6.3135,6.2076,6.1366,6.052,5.7679,5.3475,5.0473,4.747,4.4567,0.0,0.0,0.0,0.0,0.0,0.0,0.0,0.0,0.0,0.0,0.0,0.0,0.0,0.0,0.0,0.0,0.0,0.0,0.0,0.0,0.0,0.0,0.0,0.0,0.0,0.0,0.0,0.0,0.0,0.0,0.0,0.0,0.0,5.9316,5.9759,6.0262,6.0393,6.3596,6.4962,6.283,6.5246,6.7614,6.9113,6.9248,7.0534,7.3454,7.359,7.4639,7.686,7.6961,7.7299,7.8022,7.8056,7.8056,7.8056,7.8056,7.845,7.9147,7.9147,7.9147,7.9147,7.9147,7.872,7.8056,7.8056,7.765,7.6792,7.4503,7.4977,7.6826,7.6048,7.6736,7.8056,0.0,0.0,0.0,2.7705,2.8261,2.8733,2.8984,2.9687,3.1494,3.5026,3.8683,4.2675,4.7163,5.0066,5.1835,5.226,5.193,5.115,4.9872,4.7643,4.6974,4.8275,5.3055,5.7115,6.0204,6.2061,6.3917,6.5721,6.6226,6.6599,6.6802,6.6599,6.6396,6.6159,6.5222,6.4387,6.3599,6.2313,6.0757,5.8896,5.5886,5.2536,4.9247,0.0,0.0,0.0,0.0,0.0,0.0,0.0,0.0,0.0,0.0,0.0,0.0,0.0,0.0,0.0,0.0,0.0,0.0,0.0,0.0,0.0,0.0,0.0,0.0,0.0,0.0,0.0,0.0,0.0,0.0,0.0,5.9552,6.197,6.1529,6.3563,6.5038,6.4988,6.6857,6.7929,6.732,6.9451,7.1244,7.2236,7.28,7.3939,7.5845,7.598,7.6499,7.765,7.8213,7.8572,7.8809,7.9329,7.9612,7.9612,7.9612,7.9701,7.9904,7.9904,7.9904,7.9904,7.9904,7.9769,7.9532,7.9025,7.9295,7.9815,7.7041,7.6352,7.6927,7.7244,7.8327,7.9498,0.0,0.0,0.0,2.7996,2.8576,2.8984,2.8984,2.9986,3.2281,3.6652,4.0165,4.4263,4.9342,5.1626,5.2942,5.3247,5.3247,5.2625,5.111,5.0711,5.1776,5.4641,5.8444,6.1283,6.3095,6.4385,6.5425,6.617,6.6599,6.6802,6.6802,6.6802,6.6802,6.6768,6.6045,6.5469,6.4986,6.3812,6.2719,6.1603,5.9844,5.707,5.3856,5.2511,5.0988,4.939,4.7902,4.6177,4.4682,4.4994,0.0,0.0,0.0,0.0,0.0,0.0,0.0,0.0,0.0,0.0,0.0,0.0,0.0,0.0,0.0,0.0,0.0,0.0,0.0,0.0,0.0,0.0,0.0,0.0,6.3311,6.5503,6.614,6.7175,6.7988,6.8207,6.9553,7.05,7.05,7.218,7.3646,7.4368,7.5134,7.6205,7.7727,7.7841,7.8145,7.8902,7.9329,7.9701,8.0006,8.0458,8.0818,8.1122,8.1122,8.1122,8.1122,8.0784,8.0661,0.0,8.031,8.0209,8.0175,7.9735,8.0073,0.0,0.0,0.0,0.0,0.0,7.8991,7.9689,2.7112,2.7348,2.7713,2.8348,2.8764,2.8984,2.8984,3.039,3.3487,3.9151,4.22,4.6281,5.2604,5.3575,5.3991,5.4541,5.4669,5.4202,5.304,5.5075,5.7863,6.1387,6.2384,6.3799,6.5763,6.5796,6.6203,6.6937,6.6937,6.6971,6.7072,6.7072,6.7005,6.6903,6.6248,6.5909,6.5774,6.5019,6.3981,6.2763,6.2661,6.0834,5.7924,5.5962,5.4803,5.405,5.2588,5.0761,4.9012,4.8863,0.0,0.0,0.0,0.0,0.0,0.0,0.0,0.0,0.0,0.0,0.0,0.0,0.0,0.0,0.0,0.0,0.0,0.0,0.0,0.0,0.0,0.0,0.0,0.0,6.7638,7.0043,7.1408,7.0603,7.006,7.0646,7.1921,7.28,7.2902,7.4187,7.5303,7.6014,7.6758,7.7773,7.9147,0.0,0.0,0.0,0.0,8.0661,8.1304,8.1372,8.1731,8.2395,8.2327,8.2259,8.2259,8.1507,8.1169,8.1135,8.0492,8.0209,8.0209,8.0209,8.0242,8.031,8.0242,8.0581,8.1033,7.9701,7.9215,7.9215,2.742,2.8033,2.8725,2.886,2.8946,2.8984,2.8984,3.0612,3.3562,3.8541,4.2519,4.6845,5.1973,5.4178,5.5099,5.4642,5.5147,5.5923,5.6917,5.8574,6.0352,6.2202,6.414,6.5355,6.5698,6.6297,6.6937,6.7692,6.7692,6.803,6.8673,6.8673,6.8301,6.7692,6.7523,6.7151,6.6531,6.5797,6.5334,6.4996,6.441,6.2381,5.9641,5.9201,5.8964,5.8727,5.7796,5.6824,5.6039,5.6585,5.4627,5.2013,5.2576,5.0503,0.0,0.0,0.0,0.0,0.0,0.0,0.0,0.0,0.0,0.0,0.0,0.0,0.0,0.0,0.0,0.0,0.0,0.0,0.0,6.6052,6.9045,7.1352,7.2132,7.3502,7.4255,7.3803,7.4525,7.5303,7.598,7.6838,7.7638,7.8403,7.8572,7.9046,7.9938,8.0006,8.004,8.0209,8.0796,8.1169,8.1304,8.19,8.2259,8.2395,0.0,0.0,8.1507,8.075,8.0412,8.0412,8.0242,8.0209,8.0209,8.0209,8.056,8.1033,8.0412,8.0276,8.0378,8.0073,8.0006,7.9904,2.8271,2.8609,2.8934,2.874,2.8881,2.8984,2.8984,3.0341,3.3045,3.7832,4.1434,4.5357,5.0122,5.1987,5.2888,5.2861,5.4238,5.6234,5.8981,6.0987,6.2726,6.4087,6.5988,6.677,6.6258,6.6971,6.7523,6.7895,6.8301,6.8707,6.9113,6.9113,6.8876,6.8504,6.8504,6.8064,6.732,6.6948,6.6383,6.5672,6.53,6.4038,6.2279,6.1535,6.1028,6.0588,5.9834,5.9099,5.8524,5.8887,5.7534,5.5683,5.5683,5.4152,5.1784,0.0,0.0,0.0,0.0,0.0,0.0,0.0,0.0,0.0,0.0,0.0,0.0,0.0,0.0,5.9842,6.3102,0.0,6.6865,7.0309,7.208,7.3423,7.4494,7.5912,7.6432,7.5303,7.6149,7.7007,7.7401,7.8111,7.872,7.908,7.9452,7.9972,8.0729,8.0763,8.0763,8.0763,8.1101,8.1304,8.1304,8.1676,8.2035,8.2395,8.2035,8.1832,8.1832,8.1101,8.0763,8.0729,8.0344,8.0209,8.0242,8.0581,8.0763,8.0796,8.1156,8.0851,8.0175,7.9803,7.9667,7.96,2.8984,2.8984,2.8908,2.8571,2.8779,2.9034,2.9116,3.013,3.2481,3.6991,4.0009,4.3313,4.7466,4.8923,5.0002,5.0954,5.3301,5.6357,6.0162,6.2681,6.4587,6.5981,6.7235,6.7582,6.6823,6.7523,6.7963,6.8132,6.8944,6.9383,6.9519,6.9519,6.9451,6.9316,6.9316,6.8774,6.7895,6.7895,6.7117,6.5909,6.5909,6.5459,6.4681,6.3507,6.2482,6.1627,6.0825,6.0148,5.9665,5.9665,5.9167,5.8466,5.7848,5.7162,5.6003,5.3129,5.2703,0.0,0.0,0.0,0.0,0.0,0.0,0.0,0.0,5.5362,5.6783,5.9387,6.1502,6.3955,6.7464,6.866,7.0375,7.4381,7.506,7.5528,7.6927,7.7751,7.7739,7.6521,7.7468,7.8259,7.8394,7.8957,7.9317,7.9317,8.0006,8.0661,8.127,8.1439,8.1439,8.1304,8.1439,8.1439,8.1304,8.1439,8.1799,8.2395,8.2259,8.2205,8.2171,8.1575,8.1202,8.1067,8.0627,8.0513,8.0682,8.127,8.1156,8.075,8.1921,8.165,8.0547,7.9959,7.9756,7.9756,2.8984,2.8984,2.8972,2.8937,2.8961,2.9137,2.9475,3.0457,3.241,3.5947,3.9248,4.1967,4.3829,4.6293,4.8622,5.0646,5.374,5.7182,6.1034,6.3397,6.5337,6.6815,6.6919,6.6894,6.6802,6.7523,6.8233,6.8977,6.9699,7.0398,7.1064,7.1064,7.0703,7.0071,7.0071,6.9259,6.7895,6.7895,6.7421,6.6667,6.6667,6.6237,6.5571,6.5402,6.4478,6.3149,6.2424,6.2086,6.2018,6.2018,6.1535,6.0926,6.0825,6.025,5.9167,5.6867,5.6141,5.5508,5.2671,5.2459,5.3336,5.4508,5.5405,5.727,0.0,6.3013,6.3503,6.659,6.8364,6.9689,7.0818,7.203,7.348,7.5323,7.6199,7.6927,7.7751,7.8517,7.8911,7.8742,7.8877,7.9215,7.9904,8.004,8.0073,8.0073,8.0763,8.1202,8.1304,8.1934,8.1968,8.1304,8.1934,8.1968,8.1317,8.1934,8.2327,8.2395,8.1731,8.1405,8.1405,8.1338,8.0932,8.0344,8.0932,8.1528,8.2158,8.2225,8.2225,8.2158,8.2327,8.2293,8.2124,8.2056,8.2022,8.2022,2.8984,2.8984,2.8984,2.8984,2.8984,2.9122,2.9527,3.0152,3.1622,3.4525,3.6297,3.8143,4.0298,4.3016,4.5386,4.7272,5.1609,5.5868,5.963,6.2546,6.4925,6.6812,6.6829,6.6802,6.6802,6.7523,6.8301,6.9113,6.9834,7.0567,7.13,7.13,7.1131,7.0838,7.0409,6.9597,6.8571,6.8098,6.7478,6.6802,6.6802,6.6633,6.6305,6.5876,6.5334,6.458,6.2966,6.212,0.0,6.1772,6.1535,6.1366,6.1806,6.14,6.052,5.9133,5.9016,5.9257,5.8903,5.8405,5.8422,6.0278,6.0996,6.1963,6.4712,6.5456,6.6315,6.9073,7.0311,7.1568,7.3713,7.4479,7.5417,7.7355,7.7964,7.845,7.9172,7.9566,7.9735,7.9735,7.9735,7.987,8.0175,8.0209,8.0378,8.0796,8.0729,8.1021,8.19,8.1832,8.1608,8.1304,8.1608,8.1608,8.1304,8.1608,8.1968,8.2395,8.2103,8.1934,8.1934,8.1934,8.1765,8.1481,8.1799,8.2137,8.2428,8.2881,8.278,8.2496,8.3342,8.3409,8.2983,8.2564,8.2395,8.2395,2.8984,2.8984,2.8984,2.8984,2.8984,2.9159,2.9666,2.9939,3.0935,3.3225,3.3933,3.5217,3.7861,4.0039,4.2193,4.4391,4.9056,5.3762,5.8178,6.1301,6.4139,6.6709,6.6802,6.6802,6.6802,6.7523,6.8199,6.8774,6.953,7.0161,7.0692,7.0692,7.0692,7.0658,7.0128,6.9496,6.8741,6.8132,6.7478,6.6802,6.6802,6.6667,6.644,6.5909,6.53,6.459,6.2966,6.2052,6.1467,6.0655,6.0791,6.1332,6.1434,6.14,6.1231,6.0858,6.0858,6.1197,6.2269,6.21,6.213,6.436,6.519,6.5764,6.673,6.7553,6.8657,7.0612,7.1832,7.3209,7.5501,7.632,7.7198,7.8843,7.9283,7.9587,8.0107,8.0209,8.0209,8.0209,8.0378,8.0513,8.0513,8.0513,8.083,8.1541,8.1122,8.1257,8.2327,8.19,8.1507,8.1317,8.1304,8.1304,8.1304,8.1304,8.1663,8.2395,8.2395,8.2395,8.2395,8.2395,8.2631,8.3003,8.28,8.28,8.3037,8.3592,8.3477,8.3105,8.4174,8.4289,8.3761,8.3206,8.3003,8.3003,2.8984,2.8984,2.8984,2.8984,2.8984,2.9255,2.9957,3.0102,3.0638,3.2152,3.2999,3.4405,3.6953,3.7712,3.9538,4.323,4.6653,5.1188,5.7253,6.0056,6.3068,6.6641,6.6802,6.6802,6.6802,6.7523,6.7895,6.7929,6.8741,6.9147,6.918,6.918,6.918,6.918,6.9147,6.8707,6.7929,6.7895,6.7478,6.6802,6.6802,6.6373,6.574,6.5706,6.4353,6.2492,6.2424,6.2391,6.1917,5.8973,5.9481,6.1028,5.9564,6.0105,6.1434,6.212,6.1308,6.0148,6.0182,6.1264,6.2908,6.5094,6.6729,6.8208,6.9709,7.0646,7.1379,7.2169,7.4041,7.5586,7.5689,7.7515,7.9012,7.908,7.9689,8.0175,8.0209,8.0209,8.0209,8.0209,8.083,8.127,8.127,8.127,8.1562,8.2293,8.2361,8.2361,8.2395,8.2395,8.2035,8.1304,8.1304,8.1304,8.1304,8.1304,8.1663,8.2395,8.2395,8.2395,8.2395,8.2395,8.3172,8.4478,8.3795,8.3849,8.4512,8.4546,8.4546,8.4546,8.458,8.458,8.4546,8.4546,8.4512,8.4512,2.8984,2.8984,2.9167,2.969,2.9566,2.9736,3.0749,3.0435,3.0459,3.1453,3.2766,0.0,0.0,0.0,0.0,0.0,4.449,4.8972,5.3709,5.7638,6.1454,6.5165,6.6294,6.6802,6.6802,6.7039,6.7421,6.7895,6.8166,6.8571,6.9113,6.9113,6.9113,6.9079,6.8538,6.8166,6.7861,6.7377,6.6745,6.6068,6.6068,6.5628,6.5087,6.6068,6.4444,6.167,0.0,6.0385,5.8457,5.6968,5.6959,5.7669,5.8118,5.8287,5.8558,5.9766,6.0858,6.1951,6.3406,6.4928,6.6576,6.8842,7.0161,7.1142,7.2169,7.2575,7.3105,7.4322,7.4796,7.5562,7.7604,7.8179,7.8686,7.9667,8.004,8.0209,8.0209,8.0209,8.0378,8.0864,8.1135,8.1676,8.2644,8.2306,8.2137,8.2395,8.1934,8.1663,8.1663,8.1224,8.1054,8.1304,8.1304,8.1778,8.2759,8.2759,8.3118,8.3849,8.3849,8.3849,8.3849,8.3849,8.414,8.458,8.4356,8.439,8.4614,8.4614,8.4614,8.4614,8.4614,8.4614,8.4647,8.5215,8.5384,8.5317,2.943,2.943,2.9577,3.0096,3.0123,0.0,0.0,0.0,0.0,0.0,0.0,0.0,0.0,0.0,0.0,0.0,0.0,4.6271,5.0306,5.4352,5.8414,6.2405,6.3521,6.4265,6.4806,6.4299,6.4772,6.6328,6.6068,6.6609,6.7861,6.7624,6.7489,6.7489,6.6948,6.6711,6.6677,6.6227,6.6034,6.6,6.5222,6.4647,6.4197,6.4052,6.2067,0.0,5.8389,5.6655,5.4727,5.4245,5.482,5.58,5.6503,5.7485,5.866,5.9877,6.1434,6.3497,6.6823,6.8199,6.9383,7.218,7.324,7.3713,7.4199,7.4503,7.5045,7.6263,7.6149,7.6487,7.8674,7.872,7.8788,8.0006,8.0412,8.0593,8.0593,8.0818,8.1054,8.127,8.1778,8.2454,8.3422,8.3084,8.278,8.278,8.2103,8.1697,8.1697,8.0987,8.0932,8.1663,8.1697,8.2272,8.349,8.349,8.3849,8.4614,8.4614,8.4614,8.4614,8.4614,8.4614,8.4614,8.4614,8.4614,8.4614,8.4898,8.5033,8.5033,8.5337,8.5439,8.5459,8.5993,8.6196,8.6129,3.0243,3.0243,3.0277,0.0,0.0,0.0,0.0,0.0,0.0,0.0,0.0,0.0,0.0,0.0,0.0,0.0,0.0,0.0,4.7085,5.0376,5.4152,5.8549,5.8844,5.9631,6.1095,5.9699,6.0341,6.3207,6.255,6.3304,6.5402,6.4749,6.4444,6.4444,6.4444,6.441,6.4377,6.4377,6.5111,6.6081,6.3984,6.3071,6.2665,5.9892,5.7424,5.5192,5.3103,5.1852,5.1167,5.1269,5.3365,5.5809,5.515,5.7949,6.1603,6.2357,6.3193,6.4999,7.0015,7.0973,7.1391,7.4931,7.5845,7.5879,7.5879,7.6487,7.7232,7.7819,7.7921,7.809,7.8742,7.8911,7.9181,7.9904,8.0729,8.127,8.1304,8.19,8.2103,8.1473,8.2611,8.3456,8.349,8.3456,8.3422,8.3422,8.278,8.2327,8.2327,8.1676,8.1676,8.2428,8.2462,8.28,8.3558,8.3558,8.393,8.4614,8.4614,8.4614,8.4614,8.4647,8.4647,8.4647,8.4715,8.4715,8.4783,8.5554,8.5872,8.5939,8.6636,8.6893,8.6893,8.6927,8.6961,8.6961,0.0,0.0,0.0,0.0,0.0,0.0,0.0,0.0,0.0,0.0,0.0,0.0,0.0,0.0,0.0,0.0,0.0,0.0,4.3522,4.8034,5.1936,5.4761,5.7002,5.8364,5.877,5.8398,5.8558,5.9345,5.9708,6.0452,6.1535,6.1941,6.2144,6.2144,6.2144,6.1806,6.1264,6.1264,6.052,5.9293,5.8752,5.7534,5.608,5.6409,5.4786,5.2418,5.3002,5.1995,5.0642,5.2325,5.5606,5.9066,5.9471,6.1501,6.3903,6.4657,6.6981,6.9711,7.1605,7.3612,7.554,7.7041,7.7841,7.8234,7.8234,7.8822,7.8957,7.7468,7.669,7.6183,7.5799,7.6205,7.6826,7.7604,7.9295,8.0661,8.1202,8.1473,8.1913,8.2813,8.278,8.2915,8.3456,8.3016,8.2678,8.2678,8.2002,8.1575,8.1575,8.1405,8.1879,8.3186,8.3219,8.3558,8.4323,8.4323,8.4424,8.4614,8.4614,8.4614,8.4614,8.5215,8.5486,8.552,8.6081,8.6318,8.6318,8.6521,8.6636,8.6636,8.6825,8.6893,8.6961,8.7516,8.7719,8.7786,0.0,0.0,0.0,0.0,0.0,0.0,0.0,0.0,0.0,0.0,0.0,0.0,0.0,0.0,0.0,0.0,0.0,0.0,0.0,4.4823,4.8173,5.0473,5.2139,5.3492,5.4448,5.3822,5.4465,5.6436,5.5843,5.6621,5.8626,5.8118,5.7872,5.7872,5.7872,5.7645,5.7205,5.7205,5.6858,0.0,0.0,5.4296,5.3441,5.2934,5.1505,4.9882,5.0728,5.1886,5.3382,5.5649,5.8287,6.0892,6.2313,6.4028,6.5956,6.8041,7.0128,7.2281,7.4683,7.6577,7.8111,7.9172,8.0006,8.0196,7.8923,7.9194,7.8889,7.598,7.5045,7.4492,7.3781,7.4762,7.5946,7.6758,7.9295,8.1325,8.1731,8.234,8.2949,8.3422,8.3118,8.3186,8.3917,8.3003,8.253,8.2881,8.2205,8.1913,8.2251,8.2285,8.278,8.395,8.3984,8.4187,8.4614,8.4614,8.4614,8.4614,8.4614,8.4796,8.5148,8.5587,8.5973,8.6298,0.0,8.6893,8.6927,8.7231,8.738,8.7414,8.7753,8.7854,8.7922,8.8342,8.8477,8.8545,0.0,0.0,0.0,0.0,0.0,0.0,0.0,0.0,0.0,3.4142,3.5455,3.6457,3.6457,3.7808,0.0,0.0,0.0,0.0,0.0,0.0,4.414,4.6116,4.6387,4.7409,4.9338,4.8139,4.9383,5.3255,5.1378,5.2249,5.5572,5.3746,5.2976,5.3044,5.3044,5.2976,5.2909,5.2909,5.3543,5.4346,5.2367,5.186,5.2029,0.0,4.8097,4.7684,4.815,5.1911,5.7061,5.9674,6.1264,6.255,6.4783,6.6497,6.8358,7.1819,7.2969,7.4018,7.8031,7.9249,7.9735,8.1101,8.1934,8.1697,7.8936,7.8653,7.7862,7.3996,7.3116,7.2845,7.209,7.3849,7.5709,7.6589,7.9837,8.2293,8.2395,8.3578,8.4221,8.3592,8.349,8.3727,8.4255,8.3139,8.2699,8.3422,8.2915,8.2847,8.3456,8.349,8.3862,8.458,8.4614,8.4614,8.4614,8.4728,8.4762,8.4762,8.4864,8.527,8.5939,8.6041,8.6447,8.7062,0.0,0.0,8.7231,8.7888,8.8158,8.8206,8.8849,8.9086,8.9086,8.9086,8.9086,8.9086,0.0,0.0,0.0,0.0,0.0,0.0,0.0,0.0,0.0,0.0,3.7888,3.7309,0.0,0.0,0.0,0.0,0.0,0.0,0.0,0.0,0.0,4.3071,4.4296,4.5149,4.5555,4.5311,4.5548,4.6327,4.6549,4.7624,4.9442,4.9687,5.0101,5.0684,5.0684,5.0346,4.9789,4.9789,4.9221,4.8315,4.7909,4.7105,4.609,4.5548,4.5676,0.0,4.9544,5.2892,5.6612,6.1313,6.4603,6.7151,6.9406,7.1142,7.271,7.4559,7.6026,7.7345,7.8708,8.0006,8.1135,8.2002,8.2293,8.1955,8.0209,7.8957,7.6961,7.2586,7.121,7.0545,6.9823,7.2,7.4334,7.5676,7.9037,8.1697,8.2293,8.3152,8.3625,8.3524,8.349,8.3321,8.2834,8.2564,8.2699,8.3422,8.3389,8.3355,8.349,8.349,8.3862,8.458,8.4614,8.4614,8.4614,8.5249,8.5587,8.5601,8.6217,8.6555,8.6724,8.7347,8.7685,8.7854,8.8443,0.0,8.8748,8.8849,8.8917,8.8917,8.9052,8.9086,8.9086,8.9086,8.9086,8.9086,0.0,0.0,0.0,0.0,0.0,0.0,0.0,3.8723,4.0414,4.3269,4.2979,4.1699,3.9606,3.8979,3.8316,0.0,0.0,0.0,0.0,0.0,0.0,4.1677,4.2428,4.3003,4.3382,4.3382,4.3789,4.4608,0.0,4.4688,4.6177,4.6102,4.6264,4.665,4.7064,4.7037,4.6725,4.6725,4.6285,4.5657,4.5657,4.5217,4.4608,4.4608,4.5311,0.0,4.9593,5.3069,5.6756,6.0061,6.4164,6.8436,7.1481,7.3206,7.4424,7.633,7.7413,7.8327,7.9849,8.1021,8.2035,8.278,8.2983,8.2171,7.916,7.7299,7.4728,6.9485,6.8402,6.8199,6.7466,7.0409,7.3409,7.4897,7.8597,8.1575,8.2306,8.3375,8.4052,8.4052,8.3727,8.3524,8.3545,8.3206,8.3287,8.4018,8.4052,8.4052,8.4052,8.4052,8.4221,8.458,8.4614,8.4796,8.5215,8.5601,8.6007,8.6366,8.6724,8.7096,8.7482,8.7854,8.8206,8.8578,8.8951,0.0,8.9086,8.9086,8.9086,8.9086,8.9086,8.9086,8.9086,8.9086,8.9086,8.9086,0.0,0.0,0.0,0.0,0.0,0.0,0.0,4.1686,4.3562,4.7631,4.815,4.6677,4.2824,4.081,3.9048,0.0,0.0,0.0,0.0,0.0,0.0,0.0,4.0967,4.1244,4.1826,0.0,0.0,4.3633,4.2435,0.0,0.0,0.0,0.0,0.0,4.4154,4.4506,4.4364,4.454,4.4608,0.0,0.0,4.4608,4.4642,0.0,0.0,0.0,0.0,5.3044,5.6664,5.8786,6.2912,6.7827,7.1424,7.3375,7.483,7.7109,7.7887,7.8496,8.0695,8.1832,8.253,8.3118,8.3253,8.2069,7.7468,7.5089,7.2281,6.662,6.5933,6.6305,6.618,6.9586,7.3003,7.4784,7.845,8.1359,8.2259,8.3545,8.4356,8.4356,8.3984,8.3883,8.4323,8.3984,8.3998,8.4546,8.4762,8.4796,8.4614,8.4614,8.4681,8.4864,8.4864,8.5236,8.6041,8.621,8.6569,8.713,8.7299,8.7685,8.8226,8.8226,8.8545,8.912,8.9255,0.0,0.0,8.9255,8.9255,8.9086,8.9086,8.9086,8.9086,8.9086,8.9086,8.9086,0.0,0.0,0.0,0.0,0.0,0.0,0.0,4.3566,4.6916,5.1027,5.1541,5.0288,4.6892,4.4447,4.148,0.0,0.0,0.0,0.0,0.0,0.0,0.0,0.0,0.0,0.0,0.0,0.0,4.0512,4.0377,0.0,0.0,0.0,0.0,0.0,0.0,4.4188,4.3558,4.4296,0.0,0.0,0.0,0.0,0.0,0.0,0.0,0.0,0.0,5.3247,5.5455,5.9674,6.2787,6.5459,6.8538,7.1391,7.4063,7.6318,7.7481,7.8496,8.0695,8.1832,8.2428,8.2496,8.2496,8.1143,7.6002,7.3161,7.0286,6.5662,6.4749,6.5392,6.7354,7.0263,7.3341,7.6217,7.872,8.0784,8.2192,8.3084,8.3592,8.3592,8.412,8.4255,8.3659,8.4153,8.4512,8.458,8.5283,8.5384,8.4647,8.4614,8.4931,8.5669,8.5702,8.6061,8.6792,8.7448,8.782,8.7922,8.8578,8.8917,8.8984,8.8984,8.9052,8.912,8.9816,0.0,0.0,8.9816,8.9681,8.9086,8.9086,8.9086,8.9086,8.9086,8.9086,8.9086,0.0,0.0,0.0,0.0,0.0,0.0,4.1919,4.4452,4.7723,5.2789,5.345,5.2564,5.0288,4.7612,4.3614,3.7693,0.0,0.0,0.0,0.0,0.0,0.0,0.0,0.0,0.0,0.0,4.0113,4.0113,4.054,0.0,0.0,0.0,0.0,0.0,0.0,4.37,4.3416,4.3734,0.0,0.0,0.0,0.0,0.0,0.0,0.0,0.0,0.0,0.0,5.5539,5.7331,6.0612,6.4062,6.4816,6.7736,7.1548,7.5134,7.6724,7.801,8.1122,8.2171,8.2496,8.2949,8.2069,7.9837,7.5033,7.1887,6.8831,6.4772,6.4299,6.5155,6.6903,6.8977,7.1684,7.554,7.7333,7.9025,8.1393,8.2374,8.3016,8.3456,8.3761,8.3984,8.4153,8.4424,8.4614,8.4614,8.4898,8.5148,8.5317,8.5743,8.5912,8.5804,8.623,8.6805,8.755,8.7854,8.8226,8.868,8.8951,8.9086,8.9086,8.9086,8.9357,8.9782,9.0073,0.0,0.0,9.0256,9.029,9.0372,8.9951,9.0019,9.0439,9.0439,9.0439,9.0439,0.0,0.0,0.0,0.0,0.0,3.8664,4.3171,4.5406,4.8416,5.3408,5.4252,5.3702,5.1835,4.8597,4.4406,3.9071,3.7598,0.0,0.0,0.0,0.0,0.0,0.0,0.0,0.0,0.0,4.0208,4.0438,4.0933,4.1299,0.0,0.0,4.2882,4.2022,0.0,0.0,0.0,0.0,0.0,0.0,0.0,0.0,0.0,0.0,0.0,0.0,0.0,0.0,0.0,0.0,0.0,6.2202,6.2347,6.486,6.8741,7.3624,7.5743,7.7367,8.1088,8.2069,8.2205,8.2725,8.1359,7.8653,7.3916,7.0906,6.7963,6.3994,6.3758,6.4806,6.6497,6.8053,7.05,7.4695,7.6048,7.757,8.056,8.1426,8.209,8.305,8.3355,8.3693,8.4221,8.4478,8.4614,8.4614,8.5019,8.5439,8.577,8.6907,8.7211,8.6481,8.6941,8.7583,8.8308,8.8342,8.8578,8.9086,8.9086,8.9086,8.912,8.9323,8.9715,9.0208,9.0648,0.0,0.0,9.0729,9.0831,9.1237,9.0493,9.0662,9.1305,9.1305,9.1305,9.1305,0.0,0.0,0.0,0.0,0.0,0.0,4.3819,4.6718,4.9471,5.2774,5.3917,5.3482,5.1054,4.6756,4.348,4.2077,3.8532,0.0,0.0,0.0,0.0,0.0,0.0,0.0,0.0,0.0,4.0472,4.1197,4.1197,4.1576,4.2293,4.3051,4.2611,4.1271,0.0,0.0,0.0,0.0,0.0,0.0,0.0,0.0,4.4936,0.0,0.0,0.0,0.0,0.0,0.0,0.0,0.0,0.0,0.0,6.3429,6.5831,7.1763,7.4571,7.6521,8.0289,8.1304,8.1304,8.1304,8.0209,7.7727,7.2518,7.015,6.7827,6.3338,6.299,6.4197,6.6385,6.8053,7.0297,7.4006,7.5236,7.6758,7.9803,8.0209,8.0784,8.2225,8.305,8.349,8.3524,8.4187,8.4614,8.4614,8.6014,0.0,8.5838,8.7868,8.8748,8.7989,8.7989,8.8328,8.9086,8.9086,8.9086,8.9086,8.9086,8.9086,8.912,8.985,9.0174,0.0,0.0,0.0,0.0,9.1271,9.1271,9.1237,9.0493,9.0662,9.1305,9.1305,9.1305,9.1305,0.0,0.0,0.0,0.0,0.0,0.0,0.0,4.3823,4.6182,4.9439,4.9581,4.9549,4.9931,4.5872,4.2807,4.2077,3.9047,0.0,0.0,0.0,0.0,0.0,0.0,0.0,0.0,0.0,4.1204,4.1955,4.4019,4.5135,4.5406,4.6128,4.5689,4.4241,4.366,4.3288,0.0,0.0,0.0,0.0,0.0,4.5145,4.6176,0.0,0.0,0.0,0.0,0.0,0.0,0.0,0.0,0.0,0.0,0.0,0.0,6.7951,7.1075,7.4018,7.6736,7.8259,7.8665,7.7096,7.598,7.4153,6.9958,6.7827,6.5943,6.3,6.299,6.4187,6.6385,6.6779,6.8639,7.4424,7.4695,7.562,7.9634,8.1088,8.1887,8.2327,8.3511,8.4255,8.4255,8.4444,8.4614,8.4614,8.5554,8.6264,8.6535,8.7685,8.8226,8.7989,8.8511,8.8849,8.9086,8.9086,8.9086,8.912,8.9613,8.985,8.9884,9.0628,9.1223,0.0,0.0,0.0,0.0,9.2286,9.2387,9.2808,9.2,9.2184,9.2875,9.2875,9.2875,9.2875,0.0,0.0,0.0,0.0,0.0,0.0,0.0,4.2208,4.3869,4.6177,4.6062,4.6356,4.8022,4.4111,4.1523,4.196,3.9252,0.0,0.0,0.0,0.0,0.0,0.0,0.0,0.0,4.0967,4.2246,4.4411,4.6278,4.78,4.8932,4.9349,4.8334,4.6075,4.5121,4.4201,0.0,0.0,0.0,0.0,4.4838,4.5444,4.6395,0.0,0.0,0.0,0.0,0.0,0.0,0.0,0.0,0.0,0.0,0.0,0.0,0.0,6.759,7.0534,7.3612,7.5349,7.5958,7.4525,7.3218,7.1492,6.8571,6.6542,6.4759,6.2797,6.299,6.4187,6.6385,6.6643,6.8379,7.3962,7.4097,7.4977,7.9194,8.0818,8.2103,8.3524,8.3984,8.4424,8.5012,8.4796,8.4728,8.5033,8.5757,8.6535,8.7279,8.8023,8.8409,8.8409,8.8849,8.9086,8.9086,8.9086,8.9255,8.9512,8.9985,9.0357,9.0628,9.1372,9.1967,0.0,0.0,0.0,0.0,9.2745,9.288,9.3518,9.2711,9.288,9.3586,9.3586,9.3586,9.3586,0.0,0.0,0.0,0.0,0.0,0.0,0.0,4.1544,4.2359,4.3212,4.3286,4.38,4.5301,4.1649,3.9774,4.1528,0.0,0.0,0.0,0.0,0.0,0.0,0.0,0.0,0.0,4.1265,4.343,4.7819,4.809,4.9687,5.2561,5.2604,5.0642,4.7097,4.6996,4.5669,0.0,0.0,0.0,0.0,4.5247,4.552,0.0,0.0,0.0,0.0,0.0,0.0,0.0,0.0,0.0,0.0,0.0,0.0,0.0,0.0,0.0,0.0,0.0,7.2473,7.315,7.2913,7.1391,6.953,6.7963,6.6068,0.0,6.2797,6.3047,6.4265,6.6565,6.7444,6.9079,7.2947,7.359,7.4875,7.8572,7.9938,8.1866,8.5533,8.4586,8.4248,8.5736,8.5134,8.5033,8.5838,8.6569,8.7265,8.7955,8.8714,8.9086,8.9086,8.9086,8.9086,8.9086,8.9086,8.9478,9.0208,9.0242,9.0648,9.1406,9.2136,9.2508,0.0,0.0,0.0,0.0,9.2778,9.2928,9.3518,9.2778,9.2928,9.3586,9.3586,9.3586,9.3586,0.0,0.0,0.0,0.0,0.0,0.0,0.0,0.0,0.0,0.0,4.1116,4.0899,4.1266,3.9816,3.868,0.0,0.0,0.0,0.0,0.0,0.0,0.0,0.0,0.0,0.0,4.1745,4.368,4.7064,4.989,5.2232,5.411,5.5209,5.3754,5.0127,4.8984,4.6921,0.0,0.0,0.0,0.0,4.5247,4.5794,0.0,0.0,0.0,0.0,5.1856,5.4924,0.0,0.0,0.0,0.0,0.0,0.0,0.0,0.0,6.2371,6.4265,6.5314,0.0,6.9586,6.7252,6.7151,6.7072,0.0,6.4986,6.5019,6.3565,6.3825,6.5222,6.803,6.7749,6.8662,7.3533,7.4345,7.5473,7.864,8.1684,8.4525,8.7177,8.6176,8.5621,8.6569,8.596,8.5824,8.6602,8.7313,8.782,8.7989,8.8714,8.9086,8.9086,8.9086,8.9086,8.9086,8.9086,8.9478,9.0208,9.0763,9.144,9.217,9.2962,9.3315,0.0,0.0,0.0,9.3586,9.3417,9.3417,9.3586,9.3383,9.3451,9.3586,9.3586,9.3586,9.3586,0.0,0.0,0.0,0.0,0.0,0.0,0.0,0.0,0.0,0.0,0.0,3.935,3.935,3.8942,0.0,0.0,0.0,0.0,0.0,0.0,0.0,0.0,0.0,4.0238,4.1576,4.2078,4.4296,4.8315,5.0642,5.3441,5.663,5.6722,5.4972,5.1581,4.8376,4.609,0.0,0.0,0.0,4.5089,4.6024,0.0,0.0,0.0,0.0,0.0,5.2688,5.572,0.0,6.0537,6.2543,6.4256,0.0,0.0,0.0,0.0,6.1221,6.2574,6.2912,6.5696,6.8166,6.6508,6.6464,6.6497,6.528,6.5121,6.4952,6.4164,6.458,6.5797,6.8132,6.9,7.0522,7.404,7.5765,7.7828,8.1177,8.395,8.6352,8.8274,8.7177,8.6467,8.6859,8.6535,8.6467,8.6859,8.7583,8.8158,8.8511,8.8883,8.9086,8.9086,8.9086,8.9086,8.9086,8.9086,8.9627,9.0729,9.1102,9.188,9.2962,9.3417,9.3586,0.0,0.0,0.0,9.3586,9.3586,9.3586,9.3586,9.3586,9.3586,9.3586,9.3586,9.3586,9.3586,0.0,0.0,0.0,0.0,0.0,0.0,0.0,0.0,0.0,0.0,0.0,0.0,0.0,0.0,0.0,0.0,0.0,0.0,0.0,0.0,0.0,0.0,0.0,4.027,4.2396,4.2362,4.4797,4.994,5.1141,5.4143,5.8819,5.8008,5.575,5.2097,4.7267,4.4969,0.0,0.0,4.5545,4.5756,4.6921,0.0,0.0,0.0,0.0,0.0,0.0,0.0,0.0,6.1728,6.3713,6.4967,6.3333,0.0,0.0,0.0,0.0,0.0,6.2627,6.5605,6.8233,6.7421,6.6836,6.6419,6.6328,6.5483,6.4783,6.4783,6.5425,6.662,6.8571,7.0838,7.3037,7.4953,7.7727,8.0805,8.4289,8.6115,8.7583,8.8951,8.7888,8.7096,8.7231,8.713,8.7096,8.7231,8.782,8.8443,8.9052,8.9086,8.9086,8.9086,8.9086,8.9154,8.9255,8.9255,8.9966,9.1305,9.1406,9.2218,9.3586,9.3586,9.3586,9.3586,0.0,0.0,9.3586,9.3586,9.3586,9.3586,9.3586,9.3586,9.3586,9.3586,9.3586,9.3586,0.0,0.0,0.0,0.0,0.0,0.0,0.0,0.0,0.0,0.0,0.0,0.0,0.0,0.0,0.0,0.0,0.0,0.0,0.0,0.0,0.0,0.0,4.1276,4.1673,4.3913,4.2873,4.456,4.9187,5.2477,5.5455,5.8127,6.0462,5.8272,5.2248,4.8883,4.6651,4.5372,4.5477,4.5784,4.6347,4.7082,0.0,0.0,0.0,0.0,0.0,0.0,0.0,0.0,6.0633,6.2718,6.4874,6.3279,0.0,0.0,0.0,0.0,0.0,6.4657,6.7929,6.9711,6.528,6.4569,6.4772,6.4164,6.4816,6.5537,6.5537,6.662,6.8808,7.2822,7.2924,7.3713,7.7761,8.0365,8.2767,8.5249,8.6873,8.8158,8.8984,8.8342,8.8091,8.8714,8.8192,8.8091,8.8714,8.8883,8.8984,8.9086,8.9086,8.9086,8.9086,8.9086,8.939,9.0019,9.0019,9.0459,9.1319,9.1933,9.2725,9.3586,9.3586,9.3586,9.3586,0.0,9.3586,9.3586,9.3586,9.3586,9.3586,9.3586,9.3586,9.3586,9.3586,9.3586,9.3586,0.0,0.0,0.0,0.0,0.0,0.0,0.0,0.0,0.0,0.0,0.0,0.0,0.0,0.0,0.0,0.0,0.0,0.0,0.0,0.0,0.0,4.5022,4.3463,4.3069,4.4124,4.4842,4.7042,5.0769,5.4126,5.7349,6.0293,5.8872,5.5666,5.0996,4.7605,4.5876,4.5513,4.584,4.6371,4.7035,0.0,0.0,0.0,0.0,0.0,0.0,0.0,0.0,0.0,0.0,6.2621,6.4336,6.3123,0.0,0.0,0.0,0.0,0.0,6.3541,6.5764,6.758,6.7218,6.9485,7.1763,7.1413,7.1864,7.2101,7.1289,7.1345,7.2281,7.4728,7.5303,7.6893,8.1346,8.3287,8.4742,8.6196,8.7651,8.8714,8.9052,8.8443,8.8125,8.8477,8.8192,8.8125,8.8477,8.8883,8.9086,8.9086,8.9086,8.9289,8.9681,8.9681,9.0053,9.0797,9.1189,9.1561,9.1899,9.2237,9.2812,9.3586,9.3586,9.3586,9.3586,0.0,9.3586,9.3586,9.3586,9.3586,9.3586,9.3586,9.3586,9.3586,9.3586,9.3586,9.3586,0.0,0.0,0.0,0.0,0.0,0.0,0.0,0.0,0.0,0.0,0.0,0.0,0.0,0.0,0.0,0.0,0.0,0.0,0.0,0.0,4.4415,4.6457,4.5393,4.5096,4.587,4.7285,4.9777,5.3348,5.6012,5.8964,6.2052,5.7485,5.3661,5.0481,4.7131,4.5774,4.6,4.6286,4.6994,4.8,0.0,0.0,0.0,0.0,0.0,0.0,0.0,0.0,0.0,0.0,0.0,0.0,0.0,0.0,0.0,6.2523,6.199,6.2033,6.3135,6.4512,6.6474,6.9868,7.3082,7.5755,7.7142,7.6939,7.6296,7.5811,7.5405,7.5461,7.6555,7.8145,8.0445,8.4005,8.5418,8.6311,8.7062,8.8274,8.9154,8.9357,8.8714,8.8395,8.8734,8.8463,8.8328,8.8497,8.9052,8.9289,8.912,8.9255,8.9613,9.0174,9.0208,9.0648,9.1541,9.2136,9.2392,9.2392,9.2609,9.2996,9.3586,9.3586,9.3586,9.3586,9.3586,9.3586,9.3586,9.3586,9.3586,9.3586,9.3586,9.3586,9.3586,9.3586,9.3586,9.3586,0.0,0.0,0.0,0.0,0.0,0.0,0.0,0.0,0.0,0.0,0.0,0.0,0.0,0.0,0.0,0.0,0.0,0.0,0.0,0.0,4.3906,4.4847,4.623,4.84,5.1436,4.9803,5.1401,5.6494,5.8075,5.9699,6.1332,5.8838,5.5691,5.2029,4.9729,4.8207,4.7407,4.6684,4.7569,4.9446,4.9559,0.0,0.0,0.0,0.0,0.0,0.0,0.0,0.0,0.0,0.0,0.0,0.0,0.0,6.471,6.4572,6.3969,6.3781,6.5922,6.7614,6.9316,7.165,6.9925,6.9068,7.4593,7.3747,7.2518,7.5168,7.6251,7.7367,7.9498,8.1629,8.3422,8.4444,8.5845,8.7076,8.782,8.8612,8.9357,9.0053,8.9478,8.956,9.0947,8.983,8.9323,8.9985,9.0073,8.9816,8.912,8.9748,9.014,9.0208,9.0208,9.0884,9.2305,9.2373,9.2392,9.2406,9.3165,9.3552,9.3586,9.3586,9.3586,9.3586,9.3586,9.3586,9.3586,9.3586,9.3586,9.3586,9.3586,9.3586,9.3586,9.3586,9.3586,9.3586,0.0,0.0,0.0,0.0,0.0,0.0,0.0,0.0,0.0,0.0,0.0,0.0,0.0,0.0,0.0,0.0,0.0,0.0,0.0,4.2621,4.453,4.6833,4.676,4.8375,5.209,5.3667,5.6176,5.9607,6.1975,6.2516,6.1231,5.7552,5.4329,5.153,4.9261,4.8305,4.8349,4.8454,4.9204,5.0403,5.0886,5.1284,0.0,0.0,0.0,0.0,0.0,0.0,0.0,0.0,6.181,6.2832,6.3571,6.4252,6.468,6.416,6.3761,6.3781,6.5077,6.7218,6.9755,7.2406,7.236,7.2958,7.8022,7.9025,7.9317,8.0906,8.1122,8.0987,8.0898,8.2678,8.4289,8.4546,8.6284,8.7685,8.7955,8.8646,8.9357,9.0121,8.9545,8.9695,9.1169,9.0391,9.0087,9.0831,9.0865,9.0763,9.0473,9.0729,9.1087,9.1561,9.1561,9.2068,9.3131,9.3131,9.3131,9.3131,9.3451,9.3586,9.3586,9.3586,9.3586,9.3586,9.3586,9.3586,9.3586,9.3586,9.3586,9.3586,9.3586,9.3586,9.3586,9.3586,9.3586,9.3654,0.0,0.0,0.0,0.0,0.0,0.0,0.0,0.0,0.0,0.0,0.0,0.0,0.0,0.0,0.0,0.0,0.0,0.0,4.147,4.2767,4.4718,4.742,4.6726,4.8016,5.1695,5.5772,5.8863,6.0926,6.3666,6.3362,6.0157,5.6616,5.4117,5.2536,5.0273,4.9756,5.0568,5.0287,5.0722,5.1568,5.1872,5.2165,0.0,0.0,0.0,0.0,0.0,0.0,0.0,0.0,6.1828,6.2809,6.3501,6.4361,6.4976,6.4091,6.484,6.599,6.6,6.7861,7.0466,7.3184,7.3883,7.5122,7.9883,8.1528,8.2577,8.4255,8.3815,8.2915,8.215,8.3219,8.4492,8.5202,8.6825,8.8091,8.8294,8.8984,8.9613,9.014,8.9951,9.027,9.1541,9.1,9.085,9.1609,9.1643,9.1541,9.1305,9.1508,9.1865,9.2358,9.2392,9.2778,9.3586,9.3586,9.3586,9.3586,9.3586,9.3586,9.3586,9.3586,9.3586,9.3586,9.3586,9.3586,9.3586,9.3586,9.3586,9.3586,9.3586,9.3586,9.362,9.3857,9.3958,9.4011,0.0,0.0,0.0,0.0,0.0,0.0,0.0,0.0,0.0,0.0,0.0,0.0,0.0,0.0,0.0,0.0,0.0,0.0,4.2249,4.3061,4.4204,4.5814,4.6142,4.7744,5.0803,5.546,5.8601,6.0114,6.2371,6.1559,5.7841,5.6374,5.5698,5.5575,5.3397,5.3166,5.4232,5.1987,5.1902,5.3141,5.2344,5.2527,5.3214,0.0,0.0,0.0,0.0,0.0,0.0,0.0,6.1325,6.2766,6.3343,6.4596,6.5723,6.4839,6.7749,7.0928,6.944,7.0184,7.1875,7.404,7.3544,7.3849,7.9025,7.9667,8.0162,8.3836,8.3443,8.2631,8.3355,8.3524,8.4268,8.6521,8.7516,8.8274,8.8984,8.9715,9.0208,9.0208,9.0865,9.1609,9.2339,9.173,9.1609,9.2373,9.2392,9.2102,9.1372,9.2,9.2392,9.2392,9.2392,9.2778,9.3586,9.3586,9.3586,9.3586,9.3586,9.3586,9.3586,9.3586,9.3586,9.3586,9.3586,9.3586,9.3586,9.3586,9.3586,9.362,9.3586,9.362,9.3721,9.4451,9.4706,9.4706,0.0,0.0,0.0,0.0,0.0,0.0,0.0,0.0,0.0,0.0,0.0,0.0,0.0,0.0,0.0,0.0,0.0,0.0,4.2286,4.3061,4.4204,4.5814,4.5597,4.6459,4.8521,5.2103,5.6494,6.1714,6.1873,6.0037,5.6334,5.5408,5.4404,5.3381,5.4945,5.4925,5.3704,5.4067,5.4488,5.4882,5.463,5.4331,5.4106,0.0,0.0,0.0,0.0,0.0,0.0,0.0,0.0,0.0,6.307,6.4247,6.4938,6.4671,6.5899,6.7263,6.6823,7.0094,7.3634,7.3781,7.7029,8.0479,8.1528,8.119,8.1393,8.4052,8.3849,8.3389,8.4153,8.4742,8.5499,8.669,8.7955,8.8849,8.9052,8.9715,9.0391,9.0899,9.1628,9.2373,9.3165,9.3045,9.3011,9.3233,9.3233,9.3146,9.2943,9.3146,9.3233,9.3233,9.3233,9.3349,9.3586,9.3586,9.3586,9.3586,9.3586,9.3586,9.3586,9.3586,9.3586,9.3586,9.3586,9.3586,9.3586,9.3586,9.3924,9.4315,9.3789,9.4229,9.5093,9.4823,9.5026,9.5466,0.0,0.0,0.0,0.0,0.0,0.0,0.0,0.0,3.8685,3.8685,3.8685,3.9019,0.0,0.0,0.0,4.147,4.2025,4.2433,4.2767,4.3538,4.4436,4.5517,4.529,4.6205,4.8533,5.1644,5.5074,5.8872,5.8998,5.7927,5.5748,5.5966,5.5897,5.5639,5.8164,5.7965,5.5716,5.6648,5.6864,5.6534,5.6534,5.6277,5.5831,0.0,0.0,0.0,0.0,0.0,0.0,0.0,0.0,0.0,6.2699,6.3701,6.4543,6.6012,6.7998,6.9983,7.1153,7.4289,7.7435,7.8191,8.0289,8.2374,8.3105,8.2936,8.2813,8.3578,8.3849,8.4052,8.4512,8.5506,8.6467,8.7211,8.8342,8.9187,8.9492,9.0154,9.0797,9.1237,9.2218,9.2928,9.3098,9.3417,9.3586,9.3586,9.3586,9.3586,9.3586,9.3586,9.3586,9.3586,9.3586,9.3586,9.3586,9.3586,9.3586,9.3586,9.3586,9.3586,9.3586,9.3586,9.3586,9.3586,9.3586,9.3586,9.3586,9.3586,9.4011,9.4639,9.4214,9.4755,9.577,9.5635,9.5838,9.6191,0.0,0.0,3.8685,0.0,0.0,0.0,0.0,3.8685,3.8685,3.8685,3.8685,3.9019,0.0,0.0,0.0,4.2176,4.2359,4.2731,4.3437,4.4268,4.4802,4.5003,4.5288,4.6832,4.9836,5.2646,5.3797,5.3186,5.4805,5.562,5.5733,5.7499,5.8964,6.0244,6.2109,6.141,5.8887,5.8975,5.8578,5.7886,5.7966,5.796,5.7813,5.7147,0.0,0.0,0.0,0.0,0.0,0.0,0.0,0.0,6.2144,6.303,6.4446,6.7727,7.1953,7.6138,7.8618,8.0289,8.1947,8.4721,8.2996,8.1257,8.3802,8.4546,8.4323,8.3003,8.3781,8.4749,8.4884,8.6048,8.7231,8.7989,8.8646,8.9357,9.0121,9.0831,9.1305,9.1372,9.2706,9.33,9.2575,9.3165,9.3586,9.3586,9.3586,9.3586,9.3586,9.3586,9.3586,9.3586,9.3586,9.3586,9.3586,9.3586,9.3586,9.3586,9.3586,9.3586,9.3586,9.3586,9.3586,9.3586,9.3586,9.3586,9.362,9.3687,9.4112,9.4823,9.4823,9.5296,9.6074,9.6665,9.6935,9.6902,0.0,0.0,3.8685,3.8685,0.0,0.0,3.8685,3.8685,3.8685,3.8685,3.8685,3.9019,3.9798,4.0451,0.0,4.2208,4.2878,4.3322,4.3506,4.4268,4.4802,4.5003,4.6397,4.752,4.8349,4.9593,5.0372,5.0745,5.3435,5.4826,5.4981,5.7825,5.8937,5.8671,6.2245,6.1385,5.7292,5.7322,5.722,5.711,5.774,5.7629,5.711,5.7556,5.7146,0.0,0.0,0.0,0.0,0.0,0.0,0.0,6.1014,6.2604,6.3874,6.459,6.8833,7.3174,7.2519,7.6736,8.1439,8.2116,8.2983,8.3511,8.3003,8.4268,8.5452,8.5127,8.533,8.5892,8.7076,8.755,8.7989,8.8748,8.8984,8.9357,9.0121,9.0831,9.1508,9.2102,9.2996,9.3518,9.3349,9.3484,9.3586,9.3586,9.3586,9.3586,9.3586,9.3586,9.3586,9.3586,9.3586,9.3586,9.3586,9.3586,9.3586,0.0,9.3586,9.3586,9.3586,9.3586,9.3586,9.3586,9.3586,9.3586,9.3654,9.4214,9.489,9.5567,9.5567,9.6379,9.7495,9.7037,9.7274,9.7664,0.0,0.0,0.0,0.0,0.0,0.0,0.0,0.0,3.9713,3.9313,3.9276,3.957,4.0373,4.0842,0.0,0.0,4.3024,4.3506,4.3506,4.4599,4.5386,4.5644,4.671,4.7308,4.7368,4.8744,4.9642,5.0004,5.2257,5.438,5.6404,5.8017,5.9515,6.0908,6.3068,6.1534,5.7381,5.8166,5.8315,5.8022,5.8841,5.9134,5.9061,5.8725,5.7639,5.6315,5.6233,0.0,0.0,0.0,0.0,0.0,0.0,0.0,6.3241,6.615,6.9235,7.2349,7.5361,7.8762,8.1586,8.2211,8.3219,8.3883,8.3118,8.4133,8.5418,8.6163,8.6602,8.709,8.7854,8.8294,8.8781,8.9526,8.9323,8.9593,9.1053,9.1271,9.1711,9.2827,9.3349,9.3586,9.3586,9.3586,9.3586,9.3586,9.3586,9.3586,9.3586,9.3586,9.3586,9.3586,9.3586,9.3586,9.3586,9.3586,9.3586,9.3586,9.3586,9.3586,9.3586,9.3586,9.3586,9.3586,9.3586,9.3789,9.4146,9.4537,9.533,9.6326,9.6326,9.7022,9.7953,9.7563,9.7664,9.7778,0.0,0.0,0.0,0.0,0.0,0.0,0.0,0.0,0.0,3.9978,4.0014,4.0377,4.1026,4.1209,4.158,0.0,0.0,0.0,4.3506,4.4666,4.576,4.6572,4.6481,4.6522,4.6793,4.8777,4.9867,5.0001,5.1416,5.4327,5.8573,5.8676,6.0554,6.3913,6.3906,6.1761,5.8198,5.9298,5.938,5.886,5.9679,6.0382,6.0829,5.9496,5.7807,5.6148,5.5907,5.554,5.5436,5.6918,0.0,0.0,0.0,0.0,6.3178,6.8096,7.0483,7.2949,7.9454,8.1515,8.2031,8.3052,8.349,8.3625,8.3355,8.4187,8.5358,8.6623,8.7482,8.8023,8.8158,8.868,8.9357,9.0087,8.9681,9.0019,9.2102,9.1865,9.2015,9.3417,9.3586,9.3586,9.3586,9.3586,9.3586,9.3586,9.3586,9.3586,9.3586,9.3586,9.3586,9.3586,9.3586,9.3586,9.3586,9.3586,9.3586,9.3586,9.3586,9.3586,9.3586,9.3586,9.3586,9.362,9.3721,9.4146,9.4706,9.4977,9.5804,9.6902,9.7037,9.7461,9.7987,9.7987,9.7987,9.7654,0.0,0.0,0.0,0.0,0.0,0.0,0.0,0.0,0.0,0.0,4.0524,4.0989,4.1095,4.1727,4.2172,4.2282,4.3024,4.3506,4.3506,0.0,0.0,4.7303,4.5813,4.5481,4.6759,4.8283,4.9365,4.9986,5.1406,5.4845,6.0115,6.0798,6.2129,6.3899,6.4031,6.2166,5.8866,5.7752,5.722,5.7183,5.7997,5.8364,5.8474,5.8253,5.7987,5.7615,5.6885,5.7034,5.7779,5.9374,5.9986,0.0,0.0,0.0,6.4735,6.4793,6.9574,7.4905,7.5173,7.8805,8.2547,8.2543,8.3511,8.412,8.2834,8.4661,8.6656,8.6859,8.7482,8.8192,8.8849,8.9018,8.9357,9.0087,9.0106,9.058,9.2203,9.2339,9.2575,9.3484,9.3586,9.3586,9.3586,9.3586,9.3586,9.3586,9.3586,9.3586,9.3586,9.3586,9.3586,9.3586,9.3586,9.3586,9.3586,9.3586,9.3586,9.3586,9.3586,9.3586,9.3586,9.3586,9.3586,9.362,9.4282,9.462,9.4823,9.609,9.6732,9.6969,9.7597,9.7901,9.7987,9.7987,9.7987,9.7721,0.0,0.0,0.0,0.0,0.0,0.0,0.0,0.0,0.0,0.0,0.0,4.1768,4.1768,4.2098,4.2286,4.2286,4.3024,4.3755,4.4301,4.3876,4.4424,4.6357,4.4809,4.4782,4.6652,4.8132,4.9436,5.0486,5.2007,5.5352,6.0413,6.1233,6.2933,6.5205,6.3436,6.1555,5.966,5.8123,5.7483,5.7483,5.7855,5.9905,6.2401,5.9214,5.9685,6.1612,5.8113,5.7354,5.8074,5.8296,5.9319,6.058,6.136,0.0,0.0,0.0,6.8767,7.2497,7.5744,7.9287,8.2237,8.2848,8.3815,8.4309,8.3253,8.5033,8.6893,8.6893,8.782,8.8714,8.9052,8.9458,8.9951,9.0696,9.0831,9.1338,9.2861,9.2677,9.2711,9.3484,9.3586,9.3586,9.3586,9.3586,9.3586,9.3586,9.3586,9.3586,9.3586,9.3586,9.3586,9.3586,9.3586,9.3586,9.3586,9.3586,9.3586,9.3586,9.3586,9.3586,9.3586,9.3586,9.3586,9.3654,9.4383,9.4909,9.5398,9.6462,9.7138,9.7529,9.7867,9.7987,9.7987,9.7987,9.7091,9.5659,0.0,0.0,0.0,0.0,0.0,0.0,0.0,0.0,0.0,0.0,0.0,4.2616,4.2616,0.0,0.0,0.0,4.3355,4.4241,4.5235,4.4366,4.4319,4.545,4.413,4.4384,4.6568,4.8261,4.9734,5.0939,5.2877,5.6192,6.075,6.1747,6.4061,6.7222,6.4141,6.2078,6.0823,5.9268,5.8621,5.8694,5.9501,6.2401,6.5852,6.2842,6.3937,6.6446,6.1197,5.9727,6.0015,5.875,5.9418,6.0934,6.1906,6.3199,0.0,0.0,0.0,7.0378,7.5924,7.8645,8.0243,8.1741,8.3084,8.395,8.3592,8.5283,8.6961,8.713,8.8192,8.9086,8.9086,8.9681,9.0459,9.1169,9.1474,9.2049,9.3417,9.3064,9.2928,9.3518,9.3586,9.3586,9.3586,9.3586,9.3586,9.3586,9.3586,9.3586,9.3586,9.3586,9.3586,9.3586,9.3586,9.3586,9.3586,9.3586,9.3586,9.3586,9.3586,9.3687,9.3857,9.3687,9.3789,9.4195,9.4755,9.5398,9.6142,9.6868,9.7495,9.7987,9.7987,9.7987,9.7987,9.78,9.6248,9.3993,0.0,0.0,0.0,0.0,0.0,0.0,0.0,0.0,0.0,0.0,0.0,4.3433,4.3433,4.3433,4.3433,4.3433,4.4158,4.5067,4.606,4.4189,4.3791,4.5416,4.4102,0.0,4.6647,4.8699,5.0156,5.0996,5.4006,5.7567,6.1563,6.3215,6.6096,6.9797,6.734,6.4913,6.2553,6.0946,6.0266,6.056,6.368,6.5111,6.5845,7.0103,7.1908,7.1608,6.747,6.6009,0.0,0.0,0.0,6.1806,6.3392,6.447,6.5308,0.0,0.0,0.0,7.3509,7.478,7.5744,7.7794,8.0412,8.2699,8.3355,8.5283,8.7096,8.7786,8.8578,8.9086,8.9086,8.9681,9.0459,9.1169,9.1899,9.2643,9.3484,9.3552,9.3552,9.3586,9.3586,9.3586,9.3586,9.3586,9.3586,9.3586,9.3586,9.3586,9.3586,9.3586,9.3586,9.3586,9.3586,9.3586,9.3586,9.3586,9.3586,9.3586,9.3586,9.3958,9.4605,9.3924,9.4364,9.5669,9.5736,9.6157,9.6902,9.7631,9.7969,9.7987,9.7987,9.7987,9.7935,9.7206,9.5779,9.3927,0.0,0.0,0.0,0.0,0.0,0.0,0.0,0.0,0.0,0.0,0.0,0.0,0.0,4.3506,4.3722,4.4232,4.5128,4.5647,4.5573,4.4513,4.438,4.5466,4.4555,4.5227,4.7873,4.9159,5.0398,5.1635,5.3286,5.6119,6.012,6.1741,6.4127,6.6946,6.5595,6.4751,6.4187,6.0994,5.9936,6.078,6.5081,6.8715,7.16,7.2826,7.555,7.8038,0.0,0.0,0.0,0.0,0.0,0.0,0.0,6.45,6.5415,6.6766,6.8108,6.9627,7.1881,7.2962,7.4203,7.725,7.9511,8.1325,8.2509,8.4931,8.6961,8.7231,8.8274,8.9255,8.9715,9.0425,9.1,9.1271,9.2353,9.3267,9.3552,9.3586,9.3586,9.3586,9.3586,9.3586,9.3586,9.3586,9.3586,9.3586,9.3586,9.3586,9.3586,9.3586,9.3586,9.3586,9.3586,9.3586,9.3586,9.3586,9.3586,9.3586,9.3586,9.3755,9.3977,9.3721,9.4398,9.5804,9.5804,9.6225,9.6969,9.7698,9.7987,9.7987,9.7987,9.7987,9.7969,9.7698,9.5397,9.237,0.0,0.0,0.0,0.0,0.0,4.2286,4.2286,4.2988,4.3506,0.0,0.0,0.0,0.0,0.0,4.5035,4.5838,4.6086,4.6031,4.564,4.5072,4.511,4.5866,4.5658,4.6731,4.935,5.0145,5.1154,5.2417,5.3482,5.5789,5.9227,6.1111,6.3466,6.6035,6.4684,6.4714,6.5515,6.2536,6.1692,6.2915,6.8355,7.1945,7.436,7.6835,7.9258,0.0,0.0,0.0,0.0,0.0,0.0,0.0,0.0,0.0,6.6134,6.6971,6.7495,6.8117,6.9354,7.0581,7.2294,7.564,7.7616,7.9397,8.2171,8.4323,8.6061,8.7062,8.824,8.9255,8.9748,9.0628,9.1372,9.1643,9.2774,9.3586,9.3586,9.3586,9.3586,9.3586,9.3586,9.3586,9.3586,9.3586,9.3586,9.3586,9.3586,0.0,9.3586,9.3586,9.3586,9.3586,9.3586,9.3586,9.3586,9.3586,9.3586,9.3586,9.3586,9.3721,9.3958,9.3721,9.4533,9.6157,9.5905,9.6345,9.7308,9.78,9.7987,9.7987,9.7987,9.7987,9.7969,9.7732,9.4993,9.1474,0.0,0.0,0.0,0.0,4.1805,4.2355,4.2355,4.3061,4.3579,4.3579,0.0,0.0,0.0,0.0,0.0,4.8277,4.7093,4.6368,4.643,4.5885,4.5942,4.6715,4.7394,4.88,5.0977,5.1651,5.2386,5.3214,5.4772,5.6748,5.9153,6.1545,6.4414,6.7407,6.5167,6.5014,6.6402,6.5552,6.5698,6.7063,7.3413,7.4661,7.3634,8.2415,0.0,0.0,7.7915,7.6622,0.0,7.3515,0.0,0.0,0.0,0.0,0.0,6.6612,6.6265,6.6099,0.0,0.0,0.0,7.2676,7.4503,7.6961,8.2137,8.3321,8.4234,8.7279,8.8477,8.9018,8.912,9.0338,9.1541,9.2271,9.3064,9.3586,9.3586,9.3586,9.3586,9.3586,9.3586,9.3586,9.3586,9.3586,9.3586,9.3586,9.3586,9.3586,9.3586,9.3586,9.3586,9.3586,9.3586,9.3586,9.3586,9.3586,9.3586,9.3586,9.3586,9.3977,9.4639,9.3958,9.4804,9.6834,9.6123,9.665,9.7987,9.7987,9.7987,9.7987,9.7987,9.7987,9.7901,9.7206,9.4596,9.1392,0.0,0.0,0.0,4.1841,4.3126,4.4039,4.4039,4.4709,4.5227,0.0,0.0,0.0,0.0,0.0,0.0,4.9321,4.9088,4.8483,4.74,4.7222,4.7492,4.8175,4.8871,4.999,5.1683,5.1914,5.2386,5.3214,5.366,5.4803,5.6644,5.9086,6.1294,6.3325,6.4457,6.5221,6.5515,6.3466,6.4127,6.6916,7.1615,7.4882,0.0,0.0,0.0,0.0,0.0,8.3343,8.1358,0.0,7.5073,7.0273,0.0,0.0,0.0,0.0,0.0,6.6664,6.5338,0.0,0.0,0.0,0.0,0.0,7.7908,7.9566,8.1312,8.483,8.6163,8.736,8.9512,9.0662,9.1541,9.2271,9.3064,9.3586,9.3586,9.3586,9.3586,9.3586,9.3586,9.3586,9.3586,9.3586,9.3586,0.0,9.3586,9.3586,9.3586,9.3586,9.3586,9.3586,9.3586,9.3586,9.3586,9.3586,9.3586,9.3586,9.3586,9.3721,9.3924,9.4248,9.5026,9.6108,9.6462,9.7138,9.7987,9.7987,9.7987,9.7987,9.7987,9.7987,9.7969,9.7766,9.5324,9.2108,0.0,0.0,4.2355,4.3163,4.4626,4.5686,4.5686,4.6393,4.6796,0.0,0.0,0.0,0.0,0.0,0.0,0.0,4.9783,4.8977,4.7781,4.8051,4.8582,4.928,5.0253,5.1299,5.248,5.2491,5.2747,5.3214,5.3214,5.4032,5.5658,5.774,5.9569,6.119,6.2952,6.412,6.4677,6.2518,6.3876,6.8017,7.3744,0.0,0.0,8.4058,8.6184,0.0,0.0,0.0,8.1251,8.1793,7.8129,0.0,0.0,0.0,0.0,0.0,0.0,0.0,0.0,0.0,6.7895,6.9733,0.0,0.0,7.7164,7.8708,8.0433,8.5067,8.6636,8.7699,8.941,9.0357,9.1068,9.1831,9.259,9.3199,9.3552,9.3586,9.3586,9.3586,9.3586,9.3586,9.3586,9.3586,9.3586,9.3586,9.3586,9.3586,9.3586,9.3586,9.3586,9.3586,9.3586,9.3586,9.3586,9.3586,9.3586,9.3586,9.3586,9.3586,9.362,9.4349,9.5093,9.5838,9.6597,9.7341,9.7987,9.7987,9.7987,9.7987,9.7987,9.7987,9.791,9.7121,9.4946,9.2287,0.0,0.0,4.3906,4.481,4.631,4.7448,4.7631,4.8333,4.8627,0.0,0.0,0.0,0.0,0.0,0.0,0.0,5.023,4.8958,4.8128,4.875,4.9471,5.0215,5.1497,5.2537,5.3203,5.3214,5.3214,5.3214,5.3214,5.399,5.5511,5.7195,5.8767,6.0199,6.1159,6.2444,6.3735,6.2628,6.4861,6.9809,7.7113,7.9024,0.0,0.0,8.4991,8.137,8.3057,8.1344,7.8729,8.2012,8.0959,0.0,0.0,0.0,0.0,0.0,6.6441,0.0,0.0,0.0,0.0,6.9597,6.9834,0.0,7.7638,7.8788,8.0061,8.5621,8.736,8.7969,8.8409,8.914,8.9918,9.056,9.1493,9.2474,9.3451,9.3586,9.3586,9.3586,9.3586,9.3586,9.3586,9.3586,9.3586,9.3586,9.3586,9.3586,9.3586,9.3586,9.3586,9.3586,9.3586,9.3586,9.3586,9.3586,9.3586,9.3586,9.3586,9.3586,9.362,9.4451,9.5195,9.5838,9.6665,9.7409,9.7987,9.7987,9.7987,9.7987,9.7987,9.7987,9.7783,9.6127,9.4191,9.2131,4.4039,4.437,4.492,4.6383,4.8012,4.9564,5.0844,5.1715,5.2407,5.2926,0.0,0.0,0.0,0.0,0.0,0.0,0.0,5.2,5.0593,5.0624,5.0996,5.1652,5.2521,5.3065,5.3209,5.3214,5.3214,5.3214,5.3214,5.3697,5.4693,5.6932,5.8186,5.8547,6.0645,6.1783,6.2224,6.4567,6.7577,7.1013,7.3259,0.0,7.9268,8.3309,8.5197,8.5655,8.5077,8.4744,8.4233,8.168,8.2105,8.2477,0.0,0.0,0.0,6.9039,0.0,0.0,0.0,0.0,0.0,0.0,7.0984,0.0,7.2236,7.3421,7.5451,7.845,7.9646,8.1067,8.4045,8.5736,8.6717,8.6853,8.9004,9.1338,9.3315,9.3586,9.3586,9.3586,9.3586,9.3586,9.3586,9.3586,9.3586,9.3586,9.3586,9.3586,9.3586,9.3586,9.3586,9.3586,9.3586,9.3586,9.3586,9.3586,9.3586,9.3586,9.3586,9.3586,9.3654,9.4958,9.5669,9.5872,9.7225,9.7867,9.7987,9.7987,9.7987,9.7987,9.7987,9.7987,9.7956,9.7597,9.531,9.2357,4.5145,4.5617,4.653,4.859,5.0283,5.1945,5.3566,5.5165,5.6187,5.6198,0.0,0.0,0.0,0.0,0.0,0.0,0.0,0.0,5.1818,5.1681,5.1795,5.2077,5.2797,5.3398,5.3807,5.3398,5.3398,5.3807,5.3807,5.421,5.5029,5.7048,5.9507,6.2181,6.1374,6.2805,6.5785,6.5007,6.6756,7.0499,7.4948,0.0,8.1397,8.4617,8.575,8.5507,8.4932,8.5189,8.5416,8.2587,8.2427,0.0,0.0,7.7405,7.6225,0.0,7.0618,7.1293,0.0,0.0,0.0,6.962,0.0,0.0,0.0,7.2981,7.4469,7.7841,7.8822,7.987,8.2475,8.3287,8.4045,8.5567,8.7347,8.9207,9.1082,9.2319,9.2996,9.2996,9.3349,9.3586,9.3586,9.3586,9.3586,9.3586,9.3586,9.3586,9.3586,9.3586,9.3586,9.3586,9.3586,9.3586,9.3586,9.3586,9.3586,9.3586,9.3977,9.4146,9.4214,9.5684,9.636,9.6428,9.7529,9.7987,9.7987,9.7987,9.7987,9.7987,9.7987,9.7987,9.7752,9.59,9.4005,9.2145,4.6691,4.7384,4.8475,5.065,5.2375,5.3953,5.5579,5.7734,5.9196,0.0,0.0,0.0,0.0,0.0,0.0,0.0,0.0,0.0,0.0,5.3654,5.3625,5.3688,5.3374,5.388,5.5275,5.3911,5.3581,5.4399,5.4399,5.4876,5.5873,5.7305,6.0603,6.5228,6.2695,6.442,6.8972,6.5955,6.6803,7.0792,0.0,8.0767,8.1604,8.5274,8.5239,8.3286,8.3941,8.4722,8.5179,8.3659,8.3047,8.2678,8.1647,7.9487,0.0,0.0,0.0,0.0,0.0,0.0,0.0,0.0,0.0,7.006,0.0,0.0,0.0,7.7739,7.8585,7.9194,8.0818,8.0851,8.1372,8.3503,8.508,8.6352,8.7259,8.9545,9.129,9.173,9.2725,9.3315,9.318,9.3146,9.3281,9.3586,9.3315,9.3281,9.3586,9.3586,9.3586,9.3586,9.3586,9.3586,9.3586,9.3586,9.3586,9.362,9.4214,9.4552,9.4755,9.609,9.6766,9.6935,9.7698,9.7987,9.7987,9.7987,9.7987,9.7987,9.7987,9.7987,9.7597,9.4191,9.2727,9.1914,5.0105,5.032,5.0687,5.1688,5.3193,5.4798,5.6413,5.8095,6.0224,0.0,0.0,0.0,0.0,0.0,0.0,0.0,0.0,0.0,5.9468,0.0,5.8823,5.9413,5.5456,5.4897,5.8566,5.5086,5.3581,5.4399,5.4399,5.517,5.6669,5.7593,5.9098,6.1221,6.4383,6.5809,6.6102,6.9809,7.2746,7.5057,7.7446,7.7091,0.0,8.0931,8.1569,8.0053,8.3038,8.4856,8.5585,0.0,8.5207,8.6373,0.0,8.1108,8.3017,7.4921,0.0,0.0,0.0,0.0,0.0,0.0,7.2541,0.0,0.0,0.0,7.1706,7.2214,0.0,7.395,7.6082,0.0,0.0,7.6995,8.0276,8.2496,8.1359,8.4268,8.7293,8.9255,9.1305,9.2271,9.1609,9.1541,9.2131,9.3484,9.2334,9.2165,9.3518,9.3586,9.3586,9.3586,9.3586,9.3586,9.3586,9.3586,9.3586,9.3586,9.3687,9.4079,9.474,9.5533,9.6293,9.6935,9.7698,9.7987,9.7987,9.7987,9.7987,9.7987,9.7987,9.7987,9.7737,9.5655,9.3834,9.2109,5.0729,5.0797,5.1353,5.3083,5.4331,5.58,5.7875,6.1178,6.409,6.5938,0.0,0.0,0.0,0.0,0.0,0.0,0.0,6.5536,0.0,0.0,0.0,5.9759,5.6884,5.6297,5.8468,5.5941,5.4772,5.5102,5.5574,5.6156,5.6816,5.8101,6.1331,6.6072,6.7313,7.0073,7.3714,7.3846,7.4095,7.4473,0.0,0.0,0.0,8.0303,8.2005,8.1355,8.3898,8.5566,8.6669,0.0,8.6328,0.0,0.0,0.0,0.0,7.7285,7.6744,7.6454,0.0,0.0,0.0,0.0,0.0,0.0,6.9113,0.0,7.0669,0.0,0.0,0.0,0.0,0.0,0.0,0.0,7.8348,7.9769,7.9587,8.1676,8.418,8.6853,8.8395,8.9599,9.056,9.1034,9.1962,9.3484,9.2165,9.1962,9.3518,9.3586,9.3586,9.3586,9.3586,9.3586,9.3586,9.3586,9.3586,9.362,9.4466,9.5026,9.5364,9.6548,9.7258,9.7563,9.7867,9.7987,9.7987,9.7987,9.7987,9.7987,9.7987,9.7987,9.7643,9.4679,9.3093,9.1985,5.1384,5.1458,5.2082,5.4069,5.5065,5.6571,5.9422,6.3056,6.5859,6.688,0.0,0.0,6.6998,6.6907,0.0,0.0,0.0,7.0063,0.0,0.0,6.5507,6.4235,5.9857,0.0,6.1263,5.8002,5.6246,5.6246,5.6633,5.7147,5.7807,5.8756,6.2646,6.8825,6.9332,7.257,7.7587,7.6548,7.5607,7.4859,7.5496,7.573,7.6105,8.0347,8.2323,8.3116,8.4846,8.6257,8.7454,8.8741,8.702,0.0,8.7064,0.0,7.981,7.9948,7.9114,7.7558,7.4965,0.0,0.0,0.0,0.0,0.0,0.0,0.0,0.0,0.0,0.0,0.0,0.0,0.0,0.0,0.0,0.0,7.7739,7.7862,7.8957,8.0898,8.3909,8.5655,8.7482,0.0,8.9816,9.0676,9.2808,9.1387,9.1319,9.3484,9.3586,9.3586,9.3586,9.3586,9.3586,9.3586,9.3586,9.3586,9.362,9.489,9.5601,9.5838,9.7123,9.78,9.7987,9.7987,9.7987,9.7987,9.7987,9.7987,9.7987,9.7987,9.7987,9.7565,9.3783,9.241,9.186,5.281,5.3104,5.3398,5.4252,5.5065,5.6943,6.0902,6.2322,6.3459,6.4976,0.0,0.0,0.0,0.0,0.0,0.0,0.0,7.961,7.6667,0.0,7.2753,0.0,0.0,6.2462,0.0,6.1967,5.7929,5.7929,5.7183,5.7991,6.0266,5.9526,6.1429,6.5618,6.9509,7.1607,7.2537,7.7179,7.8755,7.8195,7.8945,8.0793,8.2866,0.0,8.1283,8.4282,8.547,0.0,0.0,8.7248,8.7221,0.0,0.0,0.0,0.0,0.0,0.0,0.0,0.0,0.0,0.0,7.2789,0.0,0.0,0.0,0.0,7.1672,0.0,0.0,0.0,0.0,0.0,0.0,0.0,0.0,0.0,0.0,7.5405,7.6995,8.0006,8.3605,8.6684,8.8917,8.7225,8.7496,9.1116,8.9342,8.9715,9.3383,9.3586,9.3586,9.3586,9.3586,9.3586,9.3586,9.3586,9.3586,9.362,9.4383,9.5127,9.5853,9.6597,9.7341,9.7987,9.7987,9.7987,9.7987,9.7987,9.7987,9.7987,9.7987,9.7987,9.7565,9.3783,9.241,9.186,5.3104,5.3623,5.3917,5.366,5.4698,5.7127,6.1698,6.4457,6.6553,0.0,0.0,0.0,0.0,0.0,7.4696,0.0,0.0,8.1057,7.8639,7.6486,0.0,0.0,0.0,6.5925,0.0,0.0,6.067,5.9606,5.9312,5.9869,6.119,6.1471,6.3496,6.7106,7.1644,7.4566,7.6244,7.9522,8.0267,7.9256,0.0,8.151,8.3849,0.0,0.0,8.5907,8.7906,8.8871,0.0,8.9971,8.8208,8.6043,8.7617,8.5435,8.2598,8.4163,8.393,0.0,0.0,0.0,8.3219,7.7232,0.0,0.0,0.0,0.0,0.0,0.0,0.0,0.0,0.0,0.0,0.0,0.0,0.0,0.0,0.0,7.4818,7.5731,7.7773,8.1731,8.4383,8.464,8.711,8.9241,9.0493,9.0783,9.1899,9.4214,9.3857,9.3586,9.3586,9.3586,9.3586,9.3586,9.3586,9.3586,9.362,9.4823,9.5567,9.5838,9.7056,9.7766,9.7987,9.7987,9.7987,9.7987,9.7987,9.7987,9.7987,9.7987,9.7987,9.7565,9.3783,9.241,9.186,5.399,5.4252,5.4326,5.41,5.5868,5.8547,6.2242,6.5762,0.0,0.0,7.0008,0.0,7.3382,0.0,7.6357,0.0,8.2251,8.2711,8.0873,7.903,0.0,7.8852,7.2584,0.0,0.0,0.0,6.4332,6.2741,6.1994,6.2032,6.2874,6.3412,6.5295,6.8281,7.1975,7.474,7.6809,7.9808,8.076,8.0319,8.107,8.2965,0.0,0.0,8.7153,8.7895,0.0,9.0656,9.1532,9.1559,8.9507,8.7314,8.953,8.6918,8.349,8.6176,8.6129,8.4999,8.4221,8.5608,0.0,8.0851,7.9938,0.0,7.4683,0.0,0.0,0.0,0.0,0.0,0.0,0.0,0.0,0.0,0.0,0.0,0.0,7.4345,7.5258,7.6014,7.9769,8.278,8.3883,8.5608,8.7989,9.1169,9.0817,9.1696,9.4537,9.4248,9.3857,9.362,9.3586,9.3586,9.3586,9.3586,9.3586,9.362,9.5108,9.5804,9.5838,9.7326,9.7987,9.7987,9.7987,9.7987,9.7987,9.7987,9.7987,9.7987,9.7987,9.7987,9.7565,9.3783,9.1555,9.0047,5.5511,5.5139,5.495,5.5695,5.8364,6.0964,0.0,0.0,6.8826,0.0,7.0876,7.2244,7.3637,7.6071,7.8656,8.1284,8.3858,0.0,8.3653,8.0961,0.0,0.0,7.6791,7.5448,7.8675,0.0,0.0,0.0,6.4875,6.4251,6.5104,6.5205,6.6559,6.8947,7.0511,7.2255,7.4272,7.816,8.0429,8.1541,8.303,8.525,8.7854,8.9107,8.9792,9.015,9.0201,9.1987,9.4002,9.1931,9.0964,9.0528,8.998,8.8959,8.8125,8.8883,8.9579,8.9667,8.757,8.755,8.7245,8.3545,0.0,0.0,0.0,0.0,8.1372,0.0,0.0,0.0,0.0,0.0,0.0,0.0,0.0,0.0,0.0,0.0,7.5371,7.4717,7.7976,8.1866,8.6014,8.2881,8.4099,9.2638,8.9478,8.9396,9.447,9.4571,9.4214,9.362,9.3586,9.3586,9.3586,9.3586,9.3586,9.362,9.5108,9.5804,9.5838,9.7326,9.7987,9.7987,9.7987,9.7987,9.7987,9.7987,9.7987,9.7987,9.7987,9.7941,9.7422,9.3851,9.0114,8.6947,5.6559,5.7771,5.8908,5.9134,5.9869,6.1551,0.0,0.0,0.0,0.0,7.3997,7.5568,7.7476,7.9529,8.1357,8.291,8.4935,0.0,0.0,0.0,0.0,8.516,7.9131,7.6971,7.9614,7.2952,0.0,6.7976,6.5138,6.4201,6.5118,6.5041,6.6328,6.8778,6.9715,7.2112,7.5612,7.7841,8.0404,8.3063,8.4586,8.6368,8.825,0.0,9.0923,9.1929,9.2871,9.3689,9.4075,9.2583,9.1429,9.0528,8.998,8.8959,8.8125,8.8883,8.9221,8.9255,8.868,8.9072,8.899,8.6386,8.4931,8.3625,0.0,0.0,0.0,0.0,0.0,0.0,0.0,0.0,0.0,0.0,0.0,0.0,0.0,0.0,0.0,7.5303,7.8733,8.0627,7.9566,8.3422,8.6738,8.8497,9.0106,9.2305,9.5364,9.2861,9.2049,9.3552,9.3586,9.3586,9.3586,9.3586,9.3586,9.362,9.5108,9.5804,9.5838,9.7326,9.7987,9.7987,9.7987,9.7987,9.7987,9.7987,9.7987,9.7987,9.7987,9.7137,9.5785,9.4846,9.2063,8.9089,5.8394,6.0633,6.2542,6.2542,6.3563,0.0,6.7026,0.0,0.0,7.3477,7.5047,0.0,7.797,8.0835,8.2906,8.3522,8.5497,0.0,0.0,0.0,0.0,8.2889,8.0114,7.9184,8.0546,7.5753,0.0,7.0574,0.0,6.6834,6.605,6.609,6.6841,6.8262,6.9255,7.1128,7.382,7.7583,8.0867,8.3691,8.5794,8.788,0.0,9.1408,9.2923,9.4372,9.5081,9.4637,9.3419,9.1827,9.0834,9.0185,8.9665,8.8804,8.8125,8.8883,8.9323,8.9579,8.9579,9.0121,9.0391,8.914,8.8192,8.7177,8.5655,8.508,8.5148,0.0,0.0,0.0,0.0,0.0,0.0,0.0,0.0,0.0,0.0,0.0,0.0,0.0,7.7176,7.8077,7.6082,8.2949,8.7211,8.6467,8.9241,9.1508,9.2808,9.1764,9.1913,9.3552,9.3586,9.3586,9.3586,9.3586,9.3755,9.4079,9.5229,9.5988,9.6326,9.7461,9.7987,9.7987,9.7987,9.7987,9.7987,9.7987,9.7987,9.7987,9.7987,9.6851,9.5293,9.6127,9.4218,9.1499,6.075,6.3533,6.5729,6.5625,6.7919,0.0,0.0,6.9876,0.0,7.3942,0.0,7.6627,7.7474,8.1173,8.361,8.361,0.0,8.5408,8.2168,8.2851,8.1982,7.8899,8.0287,8.1169,8.1169,7.8868,0.0,0.0,0.0,6.9888,6.6854,6.7221,6.7365,6.7425,6.8725,7.0044,7.168,7.7856,8.188,8.4269,8.6821,8.9441,9.2025,9.3104,9.4693,9.628,9.6106,9.4819,9.2849,9.0885,9.0123,8.995,8.9287,8.8646,8.826,8.8917,8.9545,9.0053,9.0053,9.0527,9.1048,9.1135,9.1169,9.0831,8.9661,8.8984,8.8937,9.0208,8.8531,8.7868,0.0,0.0,0.0,0.0,0.0,0.0,0.0,0.0,0.0,0.0,0.0,0.0,7.5055,8.1718,8.5858,8.5127,8.7022,8.8511,8.9221,9.0696,9.2203,9.3687,9.3654,9.3586,9.3586,0.0,9.4079,9.4706,9.5533,9.6293,9.6935,9.7664,9.7987,9.7987,9.7987,9.7987,9.7987,9.7987,9.7987,9.7987,9.7987,9.7011,9.5753,9.7407,9.6413,9.4312,6.3435,6.6035,6.8047,6.74,6.9131,7.1333,7.3595,7.4421,7.5427,7.7265,7.862,7.9818,8.0901,8.256,8.361,8.361,8.4802,0.0,0.0,0.0,0.0,8.1309,8.0702,8.0378,8.0378,7.757,7.4661,0.0,0.0,6.7876,6.4353,6.5594,6.6215,6.6239,6.6981,7.0451,7.6038,8.025,8.3918,8.7041,8.8115,9.0058,9.2398,9.2556,9.325,9.4,9.2945,9.3397,9.4245,9.2813,9.1668,9.0603,8.9457,8.9018,8.8917,8.9052,8.9187,8.9289,8.9289,8.939,8.9627,9.0256,9.0377,9.0493,9.0831,9.1305,9.1696,9.1967,9.2116,9.1691,8.9999,0.0,0.0,0.0,0.0,0.0,0.0,0.0,0.0,0.0,0.0,0.0,7.7063,8.0006,8.1981,8.1224,8.2678,8.5452,8.9782,8.8057,8.9275,9.4349,9.3924,0.0,0.0,0.0,9.4571,9.4706,9.6056,9.6766,9.6935,9.7664,9.7987,9.7987,9.7987,9.7987,9.7987,9.7987,9.7987,9.7987,9.7987,9.7783,9.7532,9.7895,9.8035,9.8149,6.7754,6.9405,7.0724,7.0568,0.0,0.0,0.0,7.726,0.0,7.7612,7.8114,7.8929,8.0051,8.1693,8.2972,8.3568,8.4459,8.4506,8.3357,8.3126,8.2779,8.2203,8.1635,0.0,8.0796,7.9342,7.6589,7.2428,0.0,6.9335,6.486,6.5265,6.5404,6.5453,6.8009,7.1774,7.6603,8.1359,0.0,8.5809,8.9271,9.1254,9.2271,9.3525,9.4495,9.5091,9.4206,9.4107,9.4037,9.1717,9.0535,8.9908,8.9275,8.9086,8.9086,8.9086,8.9357,8.9681,8.9681,8.9951,9.0338,9.0662,9.0763,9.0966,9.1696,9.1831,9.2068,9.2861,9.2996,9.2083,8.9086,8.6095,0.0,0.0,0.0,0.0,0.0,0.0,0.0,0.0,0.0,0.0,0.0,8.0581,8.1393,8.0276,8.1549,8.4695,8.9903,8.7786,8.8937,9.4503,9.3992,0.0,0.0,0.0,0.0,9.5296,9.6394,9.7105,9.7461,9.7834,9.7987,9.7987,9.7987,9.7987,9.7987,9.7987,9.7987,9.7987,9.7987,9.824,9.8578,9.8578,9.9288,10.0202,7.1604,7.2335,7.3068,0.0,7.5226,0.0,7.7482,7.9052,7.9566,7.7841,7.7739,7.8248,7.9405,8.124,8.2719,8.3651,8.4245,8.4071,8.2938,8.344,8.3317,8.2446,8.2395,8.2137,8.1541,8.1541,7.9206,0.0,0.0,7.1494,6.6557,6.5777,6.568,6.6346,7.024,7.3736,0.0,0.0,8.4221,8.4801,8.9547,9.1502,9.1757,9.3813,9.5294,9.617,9.5322,9.4565,9.3524,9.0386,8.9458,8.956,8.956,8.9458,8.9357,8.9526,8.9884,9.0242,9.0391,9.0865,9.1338,9.1474,9.1541,9.1744,9.2474,9.2218,9.2131,9.3349,9.3233,9.1967,8.9004,8.7536,0.0,0.0,0.0,0.0,0.0,0.0,0.0,0.0,0.0,0.0,8.2002,8.1224,8.1156,8.1596,8.1968,8.4234,8.9004,8.7922,8.9396,9.4315,9.3586,9.3112,9.3112,0.0,9.5229,9.5804,9.6699,9.7428,9.7987,9.7987,9.7987,9.7987,9.7987,9.7987,9.7987,9.7987,9.7987,9.7987,9.7987,9.8442,9.9085,9.9085,9.9965,10.1097,7.3087,7.3663,0.0,0.0,0.0,0.0,0.0,7.9758,8.0141,7.9904,8.0458,8.1334,8.2473,8.3364,8.3954,8.4038,8.4119,8.3683,8.2543,8.2521,8.249,8.2395,8.2395,8.2361,8.2293,8.2306,8.075,0.0,0.0,7.2674,6.8777,6.7443,6.8194,7.0802,7.3207,7.634,0.0,8.2495,8.5032,8.7354,8.785,8.9115,9.0767,9.142,9.307,9.4734,9.2801,9.2943,9.369,9.0988,9.0527,9.1102,9.1102,9.0628,9.0222,9.0899,9.0662,9.0357,9.1,9.1237,9.1474,9.2136,9.2305,9.2508,9.3315,9.3417,9.3417,9.3552,9.4079,9.3556,9.0546,9.2034,9.217,0.0,0.0,0.0,0.0,0.0,0.0,0.0,0.0,0.0,0.0,8.0242,7.9092,8.5777,8.3253,8.2827,8.6041,8.7279,8.9695,9.3586,9.23,9.1522,9.1522,9.4282,9.5736,9.5804,9.7225,9.792,9.7987,9.7987,9.7987,9.7987,9.7987,9.7987,9.7987,9.7987,9.7987,9.7987,9.7987,9.8442,9.9085,9.9085,9.9627,10.0389,0.0,0.0,0.0,0.0,0.0,0.0,0.0,8.0056,8.0209,8.0209,8.083,8.1585,8.2254,8.2781,8.317,8.3431,8.3615,8.3552,8.3076,8.305,8.324,8.37,8.3308,8.305,8.305,8.305,8.1629,0.0,0.0,0.0,7.042,6.9933,7.1482,7.475,7.6961,7.9295,8.1715,8.4728,8.5947,8.6024,8.7948,8.9046,8.9759,9.1928,9.391,9.5387,9.4218,9.4513,9.5029,9.2411,9.1121,9.0729,9.1169,9.1102,9.0932,9.1203,9.1392,9.1595,9.1865,9.2319,9.274,9.303,9.3131,9.3199,9.3518,9.3586,9.3586,9.3586,9.3823,9.3808,9.3049,9.2406,9.1899,0.0,0.0,0.0,0.0,0.0,0.0,0.0,0.0,0.0,0.0,8.508,8.2611,8.4708,8.0141,8.0175,8.6785,8.6853,8.7969,9.0811,9.2489,9.2895,9.1967,9.4518,9.6007,9.6462,9.7495,9.7987,9.7987,9.7987,9.7987,9.7987,9.7987,9.7987,9.7987,9.7987,9.7987,9.7987,9.7987,9.8731,9.9746,9.9746,10.049,10.1606,8.0617,0.0,7.784,0.0,7.9093,7.8889,8.0593,8.0479,8.0276,8.0492,8.0966,8.1401,8.1673,8.2121,8.2509,8.2783,8.3049,8.3186,8.3186,8.3186,8.3524,8.4255,8.3795,0.0,8.3828,8.3815,8.28,8.0737,7.8362,0.0,7.3916,7.3579,7.5117,0.0,8.0276,8.2002,8.3556,8.608,8.6289,8.5152,8.7483,8.8467,8.8919,9.2238,9.4068,9.4911,9.5106,9.5295,9.5098,9.3077,9.173,9.0986,9.1744,9.1812,9.1677,9.1913,9.2184,9.2459,9.2677,9.3165,9.3586,9.3586,9.3586,9.3586,9.3586,9.3586,9.3586,9.3586,9.3789,9.4161,9.489,9.33,9.2421,9.4112,0.0,0.0,0.0,0.0,0.0,0.0,9.389,9.2793,9.244,8.7583,8.5026,8.6379,8.1528,8.1393,8.7955,8.6907,8.7428,9.0338,0.0,0.0,9.2406,9.4654,9.6191,9.6902,9.7664,9.7987,9.7987,9.7987,9.7987,9.7987,9.7987,9.7987,9.7987,9.7987,9.7987,9.7987,9.7987,9.8901,10.022,10.022,10.1201,10.2486,8.0957,8.0199,7.9784,8.1046,8.1262,8.1486,8.2259,8.1156,8.0445,8.1202,8.1304,8.1317,8.1296,8.1981,8.2395,8.2421,8.2408,8.2395,8.2395,8.2395,8.2733,0.0,0.0,8.3862,8.458,8.458,8.458,8.4512,0.0,0.0,8.0073,7.861,7.9117,8.1304,8.278,8.4315,8.577,8.5784,8.5817,8.577,8.5844,8.6725,8.8381,9.1735,9.2704,9.25,9.4475,9.4406,9.324,9.2586,9.2406,9.2508,9.3315,9.303,9.2542,9.3349,9.303,9.2575,9.3383,9.3586,9.3586,9.3586,9.3586,9.3586,9.3586,9.3586,9.3586,9.3586,9.418,9.4924,9.5635,9.577,9.5263,9.3857,0.0,0.0,0.0,0.0,0.0,9.1541,8.6805,8.596,9.1817,8.5689,8.4721,9.2875,8.9951,8.8192,8.9052,8.7685,0.0,9.3383,9.2131,0.0,9.2392,9.4654,9.6191,9.6902,9.7664,9.7987,9.7987,9.7987,9.7987,9.7987,9.7987,9.7987,9.7987,9.7987,9.7987,9.7987,9.7987,9.8901,10.022,10.022,10.1201,10.2486,8.3271,8.2241,8.1392,8.1334,8.1304,8.1372,8.1608,8.0818,8.0445,8.1202,8.0864,8.056,8.056,8.1663,8.2205,0.0,8.2103,8.2395,0.0,8.1934,8.1968,8.2712,8.2746,8.3118,8.3828,8.4343,8.4614,8.4614,0.0,0.0,0.0,8.0454,8.1705,8.4349,8.4302,8.5603,8.7762,8.6369,8.6596,8.7771,8.6907,8.7144,8.8278,9.0749,9.1901,9.2331,9.3498,9.3947,9.387,9.2756,9.2745,9.3267,9.3518,9.3417,9.3281,9.3518,9.3417,9.3267,9.3518,9.3586,9.3586,9.3586,9.3586,9.3586,9.3586,9.3586,9.3586,9.3586,9.418,9.4924,9.5669,9.6225,9.6394,9.592,9.6225,0.0,0.0,0.0,9.5296,9.5804,9.3943,9.3586,0.0,9.1764,0.0,9.0439,8.6108,8.5093,8.8883,9.0087,0.0,0.0,9.3045,0.0,9.3233,9.5447,9.6935,9.7664,9.7901,9.7987,9.7987,9.7987,9.7987,9.7987,9.7987,9.7987,9.7987,9.7987,9.7987,9.7987,9.7987,9.8901,10.022,10.022,10.1201,10.2486,8.383,8.2971,8.2259,8.1799,8.1473,8.1304,8.1304,8.0661,8.0378,8.083,8.0479,8.031,8.0581,8.119,0.0,8.0932,8.1291,8.1549,8.1549,8.1405,8.1507,8.1968,8.2509,8.3016,8.349,0.0,0.0,8.4614,8.3219,8.2543,8.2543,8.2863,8.4002,8.577,8.5283,8.6432,8.8701,8.7178,8.7821,8.9837,8.8548,8.8481,8.9292,9.0901,9.1328,9.1228,9.2769,9.3265,9.3168,9.2604,9.2928,9.3586,9.3586,9.3586,9.3586,9.3586,9.3586,9.3586,9.3586,9.3586,9.3586,9.3586,9.3586,9.3586,9.3586,9.3586,9.3586,9.3586,9.418,9.4924,9.5669,9.6394,9.7003,9.7274,9.7308,9.7308,9.7308,0.0,9.6447,0.0,0.0,0.0,0.0,9.403,9.2962,0.0,9.0256,8.9681,9.2706,0.0,9.014,9.1556,9.4079,0.0,9.4838,9.6191,9.7274,9.7987,9.7987,9.7987,9.7987,9.7987,9.8172,9.8409,9.8409,9.8409,9.8409,9.8409,9.8409,9.8375,9.8104,9.9085,10.0592,10.0321,10.1201,10.2486,8.2968,8.267,0.0,0.0,8.1799,0.0,8.1372,8.0784,8.0378,8.0412,8.0378,8.0615,8.1304,8.0763,8.0344,8.0344,0.0,0.0,0.0,8.0999,8.1372,8.1372,8.2759,8.349,8.349,8.4289,8.4681,8.4681,8.4614,8.4614,8.4614,8.5351,8.5736,8.5736,8.577,8.6989,8.8889,8.8177,8.939,9.1764,9.0494,9.036,9.1005,9.1728,9.0801,8.9519,9.2121,9.231,9.1406,9.2136,9.2928,9.3586,9.3586,9.3586,9.3586,9.3586,9.3586,9.3586,9.3586,9.3586,9.3586,9.3586,9.3586,9.3586,9.3586,9.3586,9.3586,9.3586,9.4214,9.4977,9.5669,9.6394,9.7138,9.7867,9.7969,9.7935,9.7987,9.7987,9.6702,0.0,0.0,0.0,0.0,9.347,9.5499,0.0,9.9712,9.9374,9.851,0.0,8.8348,9.5567,9.5127,9.5466,9.6868,9.6935,9.7341,9.7987,9.7987,9.7987,9.7987,9.7987,9.8375,9.9018,9.9018,9.9018,9.9018,9.9085,9.9085,9.9051,9.8409,9.9491,10.13,10.0608,10.1201,10.2486,0.0,0.0,8.2225,8.1676,8.1866,8.2137,8.2137,8.2002,8.2069,8.2644,8.2238,8.1955,8.2137,8.1989,8.1887,8.1887,8.1359,8.127,8.182,8.2035,8.2137,8.2137,8.3016,8.349,8.349,8.4809,8.552,8.552,8.4898,8.4614,8.4614,8.4783,8.4898,8.4898,8.5533,8.7478,9.0223,8.964,9.0624,9.2519,9.1271,9.0609,9.0369,8.9968,8.9882,9.0028,9.0699,9.1076,9.1406,9.2136,9.2928,9.3586,9.3586,9.3586,9.3586,9.3586,9.3586,9.3586,9.3586,9.3586,9.3586,9.3586,9.3586,9.3586,9.3586,9.3586,9.3586,9.3586,9.462,9.5601,9.577,9.6394,9.7138,9.7867,9.7529,9.7375,9.7935,9.7987,9.7649,0.0,9.6176,9.6041,9.6601,9.6853,9.6195,0.0,0.0,9.4315,9.2406,9.0662,9.1575,9.5669,9.5635,9.5973,9.6902,9.7461,9.7834,9.7987,9.7987,9.7987,9.7987,9.7987,9.8104,9.8273,9.8273,9.8273,9.8307,9.8848,9.9085,9.9153,9.9509,10.0405,10.1402,10.1199,10.169,10.2486,8.2021,8.19,8.1765,8.1372,8.1642,8.19,8.19,8.2171,8.2441,8.2488,8.2441,8.2395,8.2395,8.2395,8.2665,8.3342,8.2441,8.1968,8.2361,8.2712,8.2746,8.2395,8.3409,8.3862,8.349,8.464,8.5249,8.5249,8.483,8.4796,8.5148,8.5148,8.5337,8.5675,8.6467,8.8424,9.1196,9.1239,9.2235,9.3674,9.237,9.1334,9.0475,8.9473,8.9357,8.9748,9.0087,9.0662,9.1406,9.2136,9.2928,9.3586,9.3586,9.3586,9.3586,9.3586,9.3586,9.3586,9.3586,9.3586,9.3586,9.3586,9.3586,9.3586,9.3586,9.3586,9.3586,9.3586,9.4518,9.5296,9.5296,9.592,9.6529,9.692,9.6935,9.7037,9.7428,9.7495,9.7495,9.7495,9.6868,9.6548,9.6954,9.7581,9.7006,9.4654,0.0,0.0,9.3334,9.33,9.4112,9.5736,9.6123,9.6665,9.7394,9.78,9.7987,9.7987,9.7987,9.8172,9.851,9.851,9.8679,9.9002,9.9002,9.8799,9.8578,9.9288,9.9593,9.9645,10.0001,10.0896,10.1909,10.1503,10.1909,10.2486,8.1135,8.1135,8.1169,8.127,8.1405,8.1507,8.1608,8.2272,8.2509,8.1879,8.234,8.2733,8.2733,8.2733,8.324,8.4478,8.3443,8.2733,8.2733,8.3308,8.3389,8.2767,8.3937,8.4323,8.3693,8.4289,8.4715,8.4952,8.485,8.5168,8.5973,8.5973,8.6298,8.6941,8.7885,8.9605,9.1845,9.28,9.3708,9.4413,9.3329,9.2108,9.0773,8.9695,8.9323,8.9526,9.0154,9.0831,9.1575,9.2203,9.2928,9.3586,9.3586,9.3586,9.3586,9.3586,9.3586,9.3586,9.3586,9.3586,9.3586,9.3586,9.3586,9.3586,9.3586,9.3586,9.3586,9.3586,9.418,9.4706,9.4706,9.5229,9.5601,9.5499,9.6191,9.6665,9.6428,0.0,9.6868,9.6732,9.609,9.5669,9.577,9.6819,9.7292,9.6766,9.7292,9.7394,9.6766,9.6259,9.5988,9.5988,9.6563,9.7258,9.7987,9.7987,9.7987,9.7987,9.7987,9.8341,9.895,9.9051,9.9457,10.0001,10.0186,9.9848,9.9322,10.01,10.0389,10.0389,10.049,10.1286,10.2384,10.1808,10.2011,10.2486,8.0378,8.0378,8.056,8.1202,8.1832,8.2441,8.305,8.3781,8.4221,8.412,8.4187,8.4242,8.4242,8.4242,8.4343,8.458,8.4377,8.4242,8.4242,8.4377,8.439,8.4242,8.4478,8.4546,8.4424,8.4546,8.5222,8.6555,8.5926,8.5993,8.6724,8.6724,8.6792,8.6982,8.8787,9.0436,9.1904,9.3734,9.399,9.3178,9.2979,9.186,9.0295,9.0104,9.0425,9.0966,9.1102,9.1609,9.2237,9.2358,9.2928,9.3586,9.3586,9.3586,9.3586,9.3586,9.3586,9.3586,9.3586,9.3586,9.3586,9.3586,9.3586,9.3586,9.3586,9.3586,9.3586,9.3586,9.418,9.4706,9.4706,9.4774,9.4687,9.406,9.5075,9.5548,9.4296,0.0,9.6665,9.6056,9.533,9.5127,9.5736,9.5432,9.5417,9.5939,9.6074,9.6074,9.5973,9.6462,9.6732,9.6732,9.6834,9.7258,9.7987,9.7987,9.7987,9.7987,9.7987,9.807,9.8206,9.8815,9.9153,9.9322,9.9915,10.0102,10.0084,10.0878,10.1183,10.13,10.1893,10.2299,10.2502,10.2401,10.2384,10.2486,8.0209,8.0209,8.0412,8.1169,8.19,8.2631,8.3389,8.412,8.4444,8.4052,8.4356,8.4458,8.4052,8.4356,8.4614,8.4614,8.4614,8.4614,8.4614,8.4614,8.4783,8.5215,8.5249,8.5249,8.5249,8.483,8.5168,8.6298,8.5973,8.6582,8.8091,8.7685,8.7922,8.8714,8.9656,9.0533,9.1484,9.3194,9.3144,9.1913,9.2298,9.1565,9.0208,9.0208,9.0662,9.1338,9.173,9.2102,9.2474,9.2895,9.33,9.3586,9.3586,9.3586,9.3586,9.3586,9.3586,9.3586,9.3586,9.3586,9.3586,9.3586,9.3586,9.3586,9.3586,9.3586,9.3586,9.3586,9.3857,9.4112,9.4112,9.4112,9.4112,9.418,9.4755,9.5093,9.4823,9.533,9.5601,9.5263,9.4552,9.4248,9.4567,9.4687,9.4842,9.5195,9.5567,9.5988,9.636,9.6732,9.7071,9.7461,9.7495,9.7664,9.7987,9.7987,9.7987,9.7987,9.7987,9.8427,9.9205,9.9543,9.9931,10.0402,10.0709,10.0592,10.0287,10.1097,10.1402,10.1503,10.2198,10.2486,10.2486,10.2486,10.2486,10.2486,8.0209,8.0209,8.0479,8.1405,8.2035,8.2699,8.3625,8.4255,8.439,8.3828,8.4255,8.439,8.3828,8.4255,8.4614,8.4614,8.4614,8.4614,8.4614,8.4614,8.4965,8.577,8.5804,8.5804,8.5804,8.4999,8.5168,8.6311,8.6142,8.709,8.9086,8.8511,8.8869,8.9966,9.0235,9.0611,9.1105,9.2534,9.2322,9.1079,9.1793,9.1232,9.0019,9.0512,9.0966,9.1406,9.2339,9.2677,9.2778,9.3383,9.3586,9.3586,9.3586,9.3586,9.3586,9.3586,9.3586,9.3586,9.3586,9.3586,9.3586,9.3586,9.3586,9.3586,9.3586,9.3586,9.3586,9.3586,9.3586,9.3586,9.3586,9.3586,9.3687,9.3876,0.0,9.4706,9.4755,9.4721,9.4639,9.4451,9.3943,9.3586,9.3586,9.4282,9.4706,9.4706,9.5533,9.6293,9.6868,9.7071,9.7428,9.7987,9.7987,9.7987,9.7987,9.8172,9.8172,9.7987,9.8172,9.8833,9.9949,10.0102,10.0592,10.1402,10.1605,10.1318,10.0795,10.1386,10.1722,10.169,10.2299,10.2486,10.2486,10.2486,10.2486,10.2486,8.0209,8.0209,8.0648,8.2056,8.2361,8.2868,8.4309,8.458,8.458,8.4512,8.458,8.458,8.4512,8.458,8.4614,8.4614,8.4614,8.4614,8.4614,8.4614,8.4965,8.577,8.5804,8.5804,8.5804,8.4999,8.5675,8.782,8.7144,8.7617,8.9086,8.9052,8.9086,8.921,9.0412,9.094,9.1087,9.2389,9.217,9.1079,9.1793,9.0923,8.939,9.1459,9.1831,9.1474,9.2977,9.3518,9.3518,9.3586,9.3586,9.3586,9.3586,9.3586,9.3586,9.3586,9.3586,9.3586,9.3586,9.3586,9.3586,9.3586,9.3586,9.3586,9.3586,9.3586,9.3586,9.3586,9.3586,9.3586,9.3586,9.3586,9.3146,9.1778,9.3334,9.3962,9.1913,9.3402,9.4451,9.3755,9.362,9.3586,9.3586,9.4282,9.4706,9.4706,9.6007,9.6834,9.6902,9.7529,9.7935,9.7987,9.7987,9.7987,9.7987,9.8679,9.8679,9.8003,9.8679,9.9085,9.9187,9.9881,10.0592,10.1402,10.2096,10.2401,10.2317,10.2384,10.2384,10.2384,10.2502,10.2486,10.2486,10.2486,10.2486,10.2486,8.0898,8.1257,8.1718,8.2293,8.2767,8.3422,8.4444,8.4614,8.4614,8.4614,8.4614,8.4614,8.4614,8.4614,8.4614,8.4614,8.4614,8.4614,8.4614,8.508,8.5486,8.577,8.5804,8.5804,8.5804,8.5486,8.5993,8.7313,8.7516,8.8328,8.9782,8.9323,8.9357,8.9777,8.9805,8.9813,8.9887,9.0825,9.095,9.057,9.1301,9.1429,9.1223,9.2102,9.2556,9.2808,9.3383,9.3586,9.3586,9.3586,9.3586,9.3586,9.3586,9.3586,9.3586,9.3586,9.3586,9.3586,9.3586,9.3586,9.3586,9.3586,9.3586,9.3586,9.3586,9.3586,9.3586,9.3586,9.3586,9.3586,9.3586,9.3586,9.3552,9.3436,9.4405,9.5064,9.47,9.4947,9.507,9.4803,9.4067,9.3789,9.4248,9.4537,9.5093,9.6007,9.6597,9.7105,9.7563,9.7867,9.7987,9.7987,9.8442,9.8679,9.8679,9.9424,9.9645,9.9374,9.9645,9.9983,10.0506,10.0811,10.1402,10.2096,10.2401,10.2486,10.2486,10.2486,10.2486,10.2486,10.2486,10.2486,10.2486,10.2486,10.2486,10.2486,8.1304,8.19,8.2462,8.2699,8.3152,8.3761,8.4478,8.4614,8.4614,8.4614,8.4614,8.4614,8.4614,8.4614,8.4614,8.4614,8.4614,8.4614,8.4614,8.5351,8.5804,8.5804,8.5804,8.5905,8.6129,8.5905,8.6379,8.7583,8.7854,8.8632,8.985,8.9357,8.9357,8.9816,8.9323,8.9086,8.912,8.9647,8.9985,9.0242,9.1,9.1609,9.2102,9.2575,9.2962,9.3267,9.3518,9.3586,9.3586,9.3586,9.3586,9.3586,9.3586,9.3586,9.3586,9.3586,9.3586,9.3586,9.3586,9.3586,9.3586,9.3586,9.3586,9.3586,9.3586,9.3586,9.3586,9.3586,9.3586,9.3586,9.3586,9.3586,9.3917,9.4792,9.528,9.5932,9.7154,9.6491,9.5963,9.6199,9.5075,9.4499,9.4992,9.5263,9.5804,9.6834,9.7105,9.7461,9.7969,9.7987,9.7987,9.7987,9.895,9.9457,9.9457,10.0202,10.0506,10.022,10.0506,10.0894,10.1402,10.1402,10.1792,10.2486,10.2486,10.2486,10.2486,10.2486,10.2486,10.2486,10.2486,10.2486,10.2486,10.2486,10.2486,10.2486,8.1304,8.19,8.2644,8.3355,8.349,8.3761,8.4478,8.4614,8.4614,8.4614,8.4614,8.4614,8.4614,8.4614,8.4614,8.4614,8.4614,8.4614,8.4614,8.5351,8.5804,8.5804,8.5804,8.6142,8.6893,8.6196,8.6887,8.9086,8.8361,8.8375,8.9086,8.9086,8.9086,8.9086,8.9086,8.9086,8.9086,8.912,8.9512,9.0275,9.1,9.1305,9.1488,9.3011,9.3098,9.2508,9.33,9.3586,9.3586,9.3586,9.3586,9.3586,9.3586,9.3586,9.3586,9.3586,9.3586,9.3586,9.3586,9.3586,9.3586,9.3586,9.3586,9.3586,9.3586,9.3586,9.3586,9.3586,9.3586,9.3586,9.3586,9.3601,9.4043,9.5295,9.5519,9.6286,9.8422,9.7565,9.703,9.78,9.6662,9.5804,9.5804,9.6462,9.6902,9.6902,9.7597,9.7987,9.7987,9.7987,9.7987,9.8003,9.9442,10.022,10.022,10.098,10.1014,10.0204,10.1014,10.1402,10.1402,10.1402,10.1792,10.2486,10.2486,10.2486,10.2486,10.2486,10.2486,10.2486,10.2486,10.2486,10.2486,10.2486,10.2486,10.2486,8.2746,8.3443,8.3849,8.3558,8.393,8.4356,8.458,8.4614,8.4614,8.4614,8.4614,8.4614,8.4614,8.4614,8.4614,8.4614,8.4614,8.483,8.5418,8.6163,8.6569,8.6569,8.6569,8.6656,8.6893,8.7177,8.7665,8.8342,8.8646,8.8883,8.9086,8.9086,8.9086,8.9086,8.9086,8.9086,8.912,8.9647,9.029,9.1034,9.1764,9.2421,9.2977,9.3417,9.3451,9.3267,9.3518,9.3586,9.3586,9.3586,9.3586,9.3586,9.3586,9.3586,9.3586,9.3586,9.3586,9.3586,9.3586,9.3586,9.3586,9.3586,9.3586,9.3586,9.3586,9.3586,9.3586,9.3586,9.3586,9.3586,9.3586,9.432,9.5261,9.6262,9.7957,9.9249,9.9499,9.9195,9.8674,9.7938,9.6633,9.6007,9.6529,9.6766,9.7105,9.7631,9.7867,9.7987,9.7987,9.7987,9.824,9.8747,9.9712,10.0506,10.1014,10.1792,10.2096,10.1809,10.2096,10.2198,10.2198,10.2198,10.2299,10.2486,10.2486,10.2486,10.2486,10.2486,10.2486,10.2486,10.2486,10.2486,10.2486,10.2486,10.2486,10.2486,8.3422,8.4086,8.4444,8.4018,8.4289,8.4614,8.4614,8.4614,8.4614,8.4614,8.4614,8.4614,8.4614,8.4614,8.4614,8.4614,8.4898,8.5283,8.577,8.6771,8.7347,8.7347,8.7617,8.7617,8.7347,8.7786,8.8125,8.8443,8.8883,8.9086,8.9086,8.9086,8.9086,8.9086,8.9086,8.9255,8.9545,9.0019,9.0783,9.1778,9.2237,9.2895,9.3586,9.3586,9.3586,9.3586,9.3586,9.3586,9.3586,9.3586,9.3586,9.3586,9.3586,9.3586,9.3586,9.3586,9.3586,9.3586,9.3586,9.3586,9.3586,9.3586,9.3586,9.3586,9.3586,9.3586,9.3586,9.3586,9.3586,9.3743,9.4249,9.5247,9.6508,9.8073,9.9495,10.0613,10.1098,10.0177,9.9327,9.8764,9.7506,9.6853,9.7308,9.7341,9.7529,9.7969,9.7987,9.8138,9.8409,9.8442,9.8781,9.9525,10.0303,10.0912,10.1402,10.208,10.2486,10.2486,10.2486,10.2486,10.2486,10.2486,10.2486,10.2486,10.2486,10.2486,10.2486,10.2486,10.2486,10.2502,10.2198,10.2112,10.2112,10.2112,10.2112,10.2096,8.3592,8.4153,8.4614,8.4614,8.4614,8.4614,8.4614,8.4614,8.4614,8.4614,8.4614,8.4614,8.4614,8.4614,8.4614,8.4681,8.5486,8.6007,8.6007,8.7326,8.8091,8.8091,8.8748,8.8815,8.8192,8.8125,8.8443,8.9086,8.9086,8.9086,8.9086,8.9086,8.9086,8.9086,8.9154,8.9512,9.0106,9.0309,9.1121,9.2305,9.244,9.2962,9.3586,9.3586,9.3586,9.3586,9.3586,9.3586,9.3586,9.3586,9.3586,9.3586,9.3586,9.3586,9.3586,9.3586,9.3586,9.3586,9.3586,9.3586,9.3586,9.3586,9.3586,9.3586,9.3586,9.3586,9.3586,9.3586,9.3586,9.4,9.5371,9.6369,9.7824,10.05,10.0517,10.0791,10.2801,10.0703,9.9225,9.9846,9.8764,9.7987,9.7987,9.7987,9.7987,9.7987,9.807,9.8375,9.9051,9.9153,9.9525,10.0287,10.1014,10.1402,10.1503,10.2198,10.2486,10.2486,10.2486,10.2486,10.2486,10.2486,10.2486,10.2486,10.2486,10.2486,10.2486,10.2486,10.2502,10.2283,10.169,10.1519,10.1402,10.1402,10.1386,10.1605,8.4255,8.4478,8.4614,8.4614,8.4614,8.4614,8.4614,8.4614,8.4614,8.4614,8.4614,8.4614,8.4614,8.4614,8.4864,8.5486,8.6751,8.7516,8.7516,8.8375,8.8849,8.8849,8.9018,8.9289,8.9715,8.9154,8.8951,8.9086,8.9086,8.9086,8.9086,8.9086,8.9086,8.912,8.9681,8.9715,8.9458,9.1189,9.1764,9.1643,9.2861,9.3451,9.3586,9.3586,9.3586,9.3586,9.3586,9.3586,9.3586,9.3586,9.3586,9.3586,9.3586,9.3586,9.3586,9.3586,9.3586,9.3586,9.3586,9.3586,9.3586,9.3586,9.3586,9.3586,9.3586,9.3586,9.3586,9.3586,9.3586,9.4219,9.6152,9.7478,9.9255,10.221,10.2511,10.2406,10.2416,10.089,9.9504,9.8572,9.8184,9.7987,9.7987,9.7987,9.7987,9.7987,9.8544,9.8916,9.9085,9.966,10.0287,10.1081,10.13,10.1706,10.2315,10.2384,10.2486,10.2486,10.2486,10.2486,10.2486,10.2486,10.2486,10.2486,10.2486,10.2486,10.2486,10.2486,10.2214,10.1706,10.2096,10.1893,10.1402,10.1402,10.1808,10.208,8.4512,8.4614,8.4614,8.4614,8.4614,8.4614,8.4614,8.4614,8.4614,8.4614,8.4614,8.4614,8.4614,8.4614,8.4931,8.5736,8.7157,8.8158,8.8511,8.8883,8.9255,8.9627,8.9289,8.9289,8.9681,8.9289,8.9255,8.9613,8.9255,8.9086,8.912,8.9458,8.9613,8.9647,9.0391,9.0493,9.0236,9.1764,9.217,9.1947,9.3112,9.3586,9.3586,9.3586,9.3586,9.3586,9.3586,9.3586,9.3586,9.3586,9.3586,9.3586,9.3586,9.3586,9.3586,9.3586,9.3586,9.3586,9.3586,9.3586,9.3586,9.3586,9.3586,9.3586,9.3586,9.3586,9.3586,9.3586,9.389,9.4879,9.7256,9.8883,10.0586,10.281,10.291,10.2299,10.1295,9.9986,9.8809,9.8095,9.7987,9.7987,9.7987,9.7987,9.8172,9.851,9.8882,9.9439,10.0184,10.059,10.1099,10.1893,10.1893,10.2096,10.2486,10.2486,10.2486,10.2486,10.2486,10.2486,10.2486,10.2486,10.2486,10.2486,10.2486,10.2486,10.2486,10.2486,10.2112,10.1402,10.1419,10.0996,10.0303,10.0709,10.1318,10.1808,8.4614,8.4614,8.4614,8.4614,8.4614,8.4614,8.4614,8.4614,8.4614,8.4614,8.4614,8.4614,8.4614,8.485,8.527,8.5939,8.7448,8.8646,8.9255,8.9289,8.9627,9.0357,8.956,8.9289,8.9661,8.9289,8.939,9.0019,8.939,8.9154,8.9289,8.9918,9.0275,9.0425,9.1169,9.1406,9.1372,9.2237,9.2542,9.2459,9.3267,9.3586,9.3586,9.3586,9.3586,9.3586,9.3586,9.3586,9.3586,9.3586,9.3586,9.3586,9.3586,9.3586,9.3586,9.3586,9.3586,9.3586,9.3586,9.3586,9.3586,9.3586,9.3586,9.3586,9.3586,9.3586,9.362,9.3755,9.4469,9.5869,9.8601,10.0395,10.1916,10.3086,10.2682,10.1699,10.0278,9.8883,9.7987,9.7987,9.7987,9.7987,9.7987,9.8104,9.8442,9.9051,9.9322,10.0082,10.13,10.1503,10.1909,10.2502,10.2486,10.2486,10.2486,10.2486,10.2486,10.2486,10.2486,10.2486,10.2486,10.2486,10.2486,10.2486,10.2486,10.2486,10.2502,10.2401,10.1909,10.1081,10.0506,9.9746,9.9187,9.9915,10.0506,10.0707,8.4614,8.4614,8.4614,8.4614,8.4614,8.4614,8.4614,8.4614,8.4614,8.4614,8.4614,8.4614,8.4614,8.5777,8.6623,8.6724,8.8686,8.9937,9.0053,9.0039,9.0391,9.1102,8.983,8.9999,9.1899,9.0101,8.9154,8.9255,8.9154,8.9424,9.0039,9.014,9.0546,9.1169,9.1933,9.1899,9.1372,9.2841,9.303,9.2459,9.3267,9.3586,9.3586,9.3586,9.3586,9.3586,9.3586,9.3586,9.3586,9.3586,9.3586,9.3586,9.3586,9.3586,9.3586,9.3586,9.3586,9.3586,9.3586,9.3586,9.3586,9.3586,9.3586,9.3586,9.3586,9.3586,9.3789,9.4417,9.5595,9.7408,10.0206,10.1912,10.3194,10.3985,10.2991,10.1699,10.0278,9.8883,9.7987,9.7987,9.7987,9.7987,9.7987,9.8578,9.8984,9.9085,10.0303,10.1199,10.1402,10.1995,10.2401,10.2486,10.2486,10.2486,10.2486,10.2486,10.2486,10.2486,10.2486,10.2486,10.2486,10.2486,10.2486,10.2486,10.2486,10.2486,10.2502,10.1792,10.1097,10.0405,10.0204,9.9746,9.9187,9.9915,9.9476,9.851,8.4614,8.4614,8.4614,8.4614,8.4614,8.4614,8.4614,8.4614,8.4614,8.4614,8.4614,8.4749,8.5215,8.6602,8.7347,8.6927,8.8564,8.9748,9.0174,8.9816,8.9918,9.0662,9.0053,9.0188,9.1155,9.0628,9.0135,8.9715,8.9289,8.9255,8.9579,9.0425,9.1,9.1338,9.2556,9.2658,9.2,9.3112,9.3131,9.2459,9.3267,9.3586,9.3586,9.3586,9.3586,9.3586,9.3586,9.3586,9.3586,9.3586,9.3586,9.3586,9.3586,9.3586,9.3586,9.3586,9.3586,9.3586,9.3586,9.3586,9.3586,9.3586,9.3586,9.3586,9.3586,9.3924,9.4315,9.4639,9.6472,9.8657,10.0691,10.2619,10.3711,10.3199,10.2584,10.1405,9.9249,9.8379,9.7987,9.7987,9.7987,9.8172,9.8578,9.8916,9.9473,10.0303,10.0996,10.1605,10.1995,10.2283,10.2486,10.2486,10.2486,10.2486,10.2486,10.2486,10.2486,10.2486,10.2486,10.2486,10.2486,10.2486,10.2486,10.2486,10.2486,10.2299,10.1909,10.1487,10.0691,9.9593,9.9593,9.939,9.9085,9.9002,9.8815,9.8612]},{"header":{"parameterUnit":"m.s-1","parameterCategory":1,"la1":30.6,"la2":28.766,"lo1":-90.7593,"lo2":-88.6598,"dx":0.0162,"dy":0.0183,"nx":116,"ny":114,"refTime":"2022-12-20T06:00:00:Z","depth":0,"parameterNumber":3,"parameterNumberName":"V-component_of_WINDS"},"data":[0.0,0.0,0.0,0.0,0.0,0.0,0.0,0.0,0.0,0.0,0.0,0.0,0.0,0.0,0.0,0.0,0.0,0.0,0.0,0.0,0.0,0.0,0.0,0.0,0.0,0.0,0.0,0.0,0.0,0.0,0.0,0.0,0.0,0.0,0.0,0.0,0.0,0.0,0.0,0.0,0.0,0.0,0.0,0.0,0.0,0.0,0.0,0.0,0.0,0.0,0.0,0.0,0.0,0.0,0.0,0.0,0.0,0.0,0.0,0.0,0.0,0.0,0.0,0.0,0.0,0.0,0.0,0.0,0.0,0.0,0.0,0.0,0.0,0.0,0.0,0.0,0.0,0.0,0.0,0.0,0.0,0.0,0.0,0.0,0.0,0.0,0.0,0.0,0.0,0.0,0.0,0.0,0.0,0.0,0.0,0.0,0.0,0.0,0.0,0.0,0.0,0.0,0.0,0.0,0.0,0.0,0.0,0.0,0.0,0.0,0.0,0.0,0.0,0.0,0.0,0.0,0.0,0.0,0.0,0.0,0.0,0.0,0.0,0.0,0.0,0.0,0.0,0.0,0.0,0.0,0.0,0.0,0.0,0.0,0.0,0.0,0.0,0.0,0.0,0.0,0.0,0.0,0.0,0.0,0.0,0.0,0.0,0.0,0.0,0.0,0.0,0.0,0.0,0.0,0.0,0.0,0.0,0.0,0.0,0.0,0.0,0.0,0.0,0.0,0.0,0.0,0.0,0.0,0.0,0.0,0.0,0.0,0.0,0.0,0.0,0.0,0.0,0.0,0.0,0.0,0.0,0.0,0.0,0.0,0.0,0.0,0.0,0.0,0.0,0.0,0.0,0.0,0.0,0.0,0.0,0.0,0.0,0.0,0.0,0.0,0.0,0.0,0.0,0.0,0.0,0.0,0.0,0.0,0.0,0.0,0.0,0.0,0.0,0.0,0.0,0.0,0.0,0.0,0.0,0.0,0.0,0.0,0.0,0.0,0.0,0.0,0.0,0.0,0.0,0.0,0.0,0.0,0.0,0.0,0.0,0.0,0.0,0.0,0.0,0.0,0.0,0.0,0.0,0.0,0.0,0.0,0.0,0.0,0.0,0.0,0.0,0.0,0.0,0.0,0.0,0.0,0.0,0.0,0.0,0.0,0.0,0.0,0.0,0.0,0.0,0.0,0.0,0.0,0.0,0.0,0.0,0.0,0.0,0.0,0.0,0.0,0.0,0.0,0.0,0.0,0.0,0.0,0.0,0.0,0.0,0.0,0.0,0.0,0.0,0.0,0.0,0.0,0.0,0.0,0.0,0.0,0.0,0.0,0.0,0.0,0.0,0.0,0.0,0.0,0.0,0.0,0.0,0.0,0.0,0.0,0.0,0.0,0.0,0.0,0.0,0.0,0.0,0.0,0.0,0.0,0.0,0.0,0.0,0.0,0.0,0.0,0.0,0.0,0.0,0.0,0.0,0.0,0.0,0.0,0.0,0.0,0.0,0.0,0.0,0.0,0.0,0.0,0.0,0.0,0.0,0.0,0.0,0.0,0.0,0.0,0.0,0.0,0.0,0.0,0.0,0.0,0.0,0.0,0.0,0.0,0.0,0.0,0.0,0.0,0.0,0.0,0.0,0.0,0.0,0.0,0.0,0.0,0.0,0.0,0.0,0.0,0.0,0.0,0.0,0.0,0.0,0.0,0.0,0.0,0.0,0.0,0.0,0.0,0.0,0.0,0.0,0.0,0.0,0.0,0.0,0.0,0.0,0.0,0.0,0.0,0.0,0.0,0.0,0.0,0.0,0.0,0.0,0.0,0.0,0.0,0.0,0.0,0.0,0.0,0.0,0.0,0.0,0.0,0.0,0.0,0.0,0.0,0.0,0.0,0.0,0.0,0.0,0.0,0.0,0.0,0.0,0.0,0.0,0.0,0.0,0.0,0.0,0.0,0.0,0.0,0.0,0.0,0.0,0.0,0.0,0.0,0.0,0.0,0.0,0.0,0.0,0.0,0.0,0.0,0.0,0.0,0.0,0.0,0.0,0.0,0.0,0.0,0.0,0.0,0.0,0.0,0.0,0.0,0.0,0.0,0.0,0.0,0.0,0.0,0.0,0.0,0.0,0.0,0.0,0.0,0.0,0.0,0.0,0.0,0.0,0.0,0.0,0.0,0.0,0.0,0.0,0.0,0.0,0.0,0.0,0.0,0.0,0.0,0.0,0.0,0.0,0.0,0.0,0.0,0.0,0.0,0.0,0.0,0.0,0.0,0.0,0.0,0.0,0.0,0.0,0.0,0.0,0.0,0.0,0.0,0.0,0.0,0.0,0.0,0.0,0.0,0.0,0.0,0.0,0.0,0.0,0.0,0.0,0.0,0.0,0.0,0.0,0.0,0.0,0.0,0.0,0.0,0.0,0.0,0.0,0.0,0.0,0.0,0.0,0.0,0.0,0.0,0.0,0.0,0.0,0.0,0.0,0.0,0.0,0.0,0.0,0.0,0.0,0.0,0.0,0.0,0.0,0.0,0.0,0.0,0.0,0.0,0.0,0.0,0.0,0.0,0.0,0.0,0.0,0.0,0.0,0.0,0.0,0.0,0.0,0.0,0.0,0.0,0.0,0.0,0.0,0.0,0.0,0.0,0.0,0.0,0.0,0.0,0.0,0.0,0.0,0.0,0.0,0.0,0.0,0.0,0.0,0.0,0.0,0.0,0.0,0.0,0.0,0.0,0.0,0.0,0.0,0.0,0.0,0.0,0.0,0.0,0.0,0.0,0.0,0.0,0.0,0.0,0.0,0.0,0.0,0.0,0.0,0.0,0.0,0.0,0.0,0.0,0.0,0.0,0.0,0.0,0.0,0.0,0.0,0.0,0.0,0.0,0.0,0.0,0.0,0.0,0.0,0.0,0.0,0.0,0.0,0.0,0.0,0.0,0.0,0.0,0.0,0.0,0.0,0.0,0.0,0.0,0.0,0.0,0.0,0.0,0.0,0.0,0.0,0.0,0.0,0.0,0.0,0.0,0.0,0.0,0.0,0.0,0.0,0.0,0.0,0.0,0.0,0.0,0.0,0.0,0.0,0.0,0.0,0.0,0.0,0.0,0.0,0.0,0.0,0.0,0.0,0.0,0.0,0.0,0.0,0.0,0.0,0.0,0.0,0.0,0.0,0.0,0.0,0.0,0.0,0.0,0.0,0.0,0.0,0.0,0.0,0.0,0.0,0.0,0.0,0.0,0.0,0.0,0.0,0.0,0.0,0.0,0.0,0.0,0.0,0.0,0.0,0.0,0.0,0.0,0.0,0.0,0.0,0.0,0.0,0.0,0.0,0.0,0.0,0.0,0.0,0.0,0.0,0.0,0.0,0.0,0.0,0.0,0.0,0.0,0.0,0.0,0.0,0.0,0.0,0.0,0.0,0.0,0.0,0.0,0.0,0.0,0.0,0.0,0.0,0.0,0.0,0.0,0.0,0.0,0.0,0.0,0.0,0.0,0.0,0.0,0.0,0.0,0.0,0.0,0.0,0.0,0.0,0.0,0.0,0.0,0.0,0.0,0.0,0.0,0.0,0.0,0.0,0.0,0.0,0.0,0.0,0.0,0.0,0.0,0.0,0.0,0.0,0.0,0.0,0.0,0.0,0.0,0.0,0.0,0.0,0.0,0.0,0.0,0.0,0.0,0.0,0.0,0.0,0.0,0.0,0.0,0.0,0.0,0.0,0.0,0.0,0.0,0.0,0.0,0.0,0.0,0.0,0.0,0.0,0.0,0.0,0.0,0.0,0.0,0.0,0.0,0.0,0.0,0.0,0.0,0.0,0.0,0.0,0.0,0.0,0.0,0.0,0.0,0.0,0.0,0.0,0.0,0.0,0.0,0.0,0.0,0.0,0.0,0.0,0.0,0.0,0.0,0.0,0.0,0.0,0.0,0.0,0.0,0.0,0.0,0.0,0.0,0.0,0.0,0.0,0.0,0.0,0.0,0.0,0.0,0.0,0.0,0.0,0.0,0.0,0.0,0.0,0.0,0.0,0.0,0.0,0.0,0.0,0.0,0.0,0.0,0.0,0.0,0.0,0.0,0.0,0.0,0.0,0.0,0.0,0.0,0.0,0.0,0.0,0.0,0.0,0.0,0.0,0.0,0.0,0.0,0.0,0.0,0.0,0.0,0.0,0.0,0.0,0.0,0.0,0.0,0.0,0.0,0.0,0.0,0.0,0.0,0.0,0.0,0.0,0.0,0.0,0.0,0.0,0.0,0.0,0.0,0.0,0.0,0.0,0.0,0.0,0.0,0.0,0.0,0.0,0.0,0.0,0.0,0.0,0.0,0.0,0.0,0.0,0.0,0.0,0.0,0.0,0.0,0.0,0.0,0.0,0.0,0.0,0.0,0.0,0.0,0.0,0.0,0.0,0.0,0.0,0.0,0.0,0.0,0.0,0.0,0.0,0.0,0.0,0.0,0.0,0.0,0.0,0.0,0.0,0.0,0.0,0.0,0.0,0.0,0.0,0.0,0.0,0.0,0.0,0.0,0.0,0.0,0.0,0.0,0.0,0.0,0.0,0.0,0.0,0.0,0.0,0.0,0.0,0.0,0.0,0.0,0.0,0.0,0.0,0.0,0.0,0.0,0.0,0.0,0.0,0.0,0.0,0.0,0.0,0.0,0.0,0.0,0.0,0.0,0.0,0.0,0.0,0.0,0.0,0.0,0.0,0.0,0.0,0.0,0.0,0.0,0.0,0.0,0.0,0.0,0.0,0.0,0.0,0.0,0.0,0.0,0.0,0.0,0.0,0.0,0.0,0.0,0.0,0.0,0.0,0.0,0.0,0.0,0.0,0.0,0.0,0.0,0.0,0.0,0.0,0.0,0.0,0.0,0.0,0.0,0.0,0.0,0.0,0.0,0.0,0.0,0.0,0.0,0.0,0.0,0.0,0.0,0.0,0.0,0.0,0.0,0.0,0.0,0.0,0.0,0.0,0.0,0.0,0.0,0.0,0.0,0.0,0.0,0.0,0.0,0.0,0.0,0.0,0.0,0.0,0.0,0.0,0.0,0.0,0.0,0.0,0.0,0.0,0.0,0.0,0.0,0.0,0.0,0.0,0.0,0.0,0.0,0.0,0.0,0.0,0.0,0.0,0.0,0.0,0.0,0.0,0.0,0.0,0.0,0.0,0.0,0.0,0.0,0.0,0.0,0.0,0.0,0.0,0.0,0.0,0.0,0.0,0.0,0.0,0.0,0.0,0.0,0.0,0.0,0.0,0.0,0.0,0.0,0.0,0.0,0.0,0.0,0.0,0.0,0.0,0.0,0.0,0.0,0.0,0.0,0.0,0.0,0.0,0.0,0.0,0.0,0.0,0.0,0.0,0.0,0.0,0.0,0.0,0.0,0.0,0.0,0.0,0.0,0.0,0.0,0.0,0.0,0.0,0.0,0.0,0.0,0.0,0.0,0.0,0.0,0.0,0.0,0.0,0.0,0.0,0.0,0.0,0.0,0.0,0.0,0.0,0.0,0.0,0.0,0.0,0.0,0.0,0.0,0.0,0.0,0.0,0.0,0.0,0.0,0.0,0.0,0.0,0.0,0.0,0.0,0.0,0.0,0.0,0.0,0.0,0.0,0.0,0.0,0.0,0.0,0.0,0.0,0.0,0.0,0.0,0.0,0.0,0.0,0.0,0.0,0.0,0.0,0.0,0.0,0.0,0.0,0.0,0.0,0.0,0.0,0.0,0.0,0.0,0.0,0.0,0.0,0.0,0.0,0.0,0.0,0.0,0.0,0.0,0.0,0.0,0.0,0.0,0.0,0.0,0.0,0.0,0.0,0.0,0.0,0.0,0.0,0.0,0.0,0.0,0.0,0.0,0.0,0.0,0.0,0.0,0.0,0.0,0.0,0.0,0.0,0.0,0.0,0.0,0.0,0.0,0.0,0.0,0.0,0.0,0.0,0.0,0.0,0.0,0.0,0.0,0.0,0.0,0.0,0.0,0.0,0.0,0.0,0.0,0.0,0.0,0.0,0.0,0.0,0.0,0.0,0.0,0.0,0.0,0.0,0.0,0.0,0.0,0.0,0.0,0.0,0.0,0.0,0.0,0.0,0.0,0.0,0.0,0.0,0.0,0.0,2.6008,0.0,0.0,0.0,0.0,0.0,0.0,0.0,0.0,0.0,0.0,0.0,0.0,0.0,0.0,0.0,0.0,0.0,0.0,0.0,0.0,0.0,0.0,0.0,0.0,1.1205,1.148,1.1621,1.2162,0.0,0.0,0.0,0.0,0.0,0.0,0.0,0.0,0.0,1.0849,1.1557,1.2594,1.4389,1.6866,1.6077,1.5707,1.5708,0.0,0.0,0.0,0.0,0.0,0.0,0.0,0.0,0.0,0.0,0.0,0.0,0.0,0.0,0.0,0.0,0.0,0.0,0.0,0.0,0.0,0.0,0.0,0.0,0.0,0.0,0.0,0.0,0.0,0.0,0.0,0.0,0.0,0.0,0.0,0.0,0.0,0.0,0.0,0.0,0.0,0.0,0.0,0.0,0.0,0.0,0.0,0.0,0.0,0.0,0.0,0.0,0.0,0.0,0.0,0.0,0.0,0.0,0.0,0.0,0.0,0.0,0.0,0.0,0.0,0.0,0.0,0.0,0.0,0.0,0.0,2.7514,0.0,0.0,0.0,0.0,0.0,0.0,0.0,0.0,0.0,0.0,0.0,0.0,0.0,0.0,0.0,0.0,0.0,0.0,0.0,0.0,0.0,0.9542,1.0463,1.098,1.1212,1.1063,1.136,1.1108,1.0001,1.0015,0.0,0.0,0.0,0.0,1.0885,1.0806,1.1496,1.3043,1.5258,1.7907,2.0946,2.1529,2.1378,2.0586,1.9112,0.0,0.0,0.0,0.0,0.0,0.0,0.0,0.0,0.0,0.0,0.0,0.0,0.0,0.0,0.0,0.0,0.0,0.0,0.0,0.0,0.0,0.0,0.0,0.0,0.0,0.0,0.0,0.0,0.0,0.0,0.0,0.0,0.0,0.0,0.0,0.0,0.0,0.0,0.0,0.0,0.0,0.0,0.0,0.0,0.0,0.0,0.0,0.0,0.0,0.0,0.0,0.0,0.0,0.0,0.0,0.0,0.0,0.0,0.0,0.0,0.0,0.0,0.0,2.8977,2.9485,2.9919,2.9919,3.1333,3.3623,3.1556,3.1799,3.3422,0.0,0.0,0.0,0.0,0.0,0.0,0.0,0.0,0.0,0.0,0.0,0.0,0.0,0.0,0.0,0.0,0.0,0.0,0.0,0.0,0.9818,1.1428,1.1316,1.1485,1.2362,1.2531,1.2104,1.0914,1.1255,1.1522,1.1522,1.0935,1.0935,1.1645,1.1201,1.2346,1.5188,2.0576,2.357,2.4294,2.5572,2.6097,2.5823,2.1973,2.0226,2.0087,0.0,0.0,0.0,0.0,0.0,0.0,0.0,0.0,0.0,0.0,0.0,0.0,0.0,0.0,0.0,0.0,0.0,0.0,0.0,0.0,0.0,0.0,0.0,0.0,0.0,0.0,0.0,0.0,0.0,0.0,0.0,0.0,0.0,0.0,0.0,0.0,0.0,0.0,0.0,0.0,0.0,2.2443,2.255,0.0,0.0,0.0,0.0,0.0,0.0,0.0,0.0,0.0,0.0,0.0,0.0,0.0,2.8662,2.955,3.1087,3.2697,3.4308,3.5812,3.6755,3.7233,3.7233,3.7438,3.7813,3.7481,0.0,3.4473,3.3727,0.0,0.0,0.0,0.0,0.0,0.0,0.0,0.0,0.0,0.0,0.0,0.0,0.0,0.0,0.0,0.0,0.0,0.0,0.0,0.0,0.0,1.1971,1.243,1.3395,1.4203,1.3903,1.2132,1.3438,1.3399,1.1438,1.1513,1.1599,1.1582,1.201,1.4887,2.032,2.4762,2.7622,2.9015,2.9621,2.9648,2.9107,2.7245,2.4893,2.2345,2.1534,0.0,0.0,0.0,0.0,0.0,0.0,0.0,0.0,0.0,0.0,0.0,0.0,0.0,0.0,0.0,0.0,0.0,0.0,0.0,0.0,0.0,0.0,0.0,0.0,0.0,0.0,0.0,0.0,0.0,0.0,0.0,0.0,0.0,0.0,0.0,0.0,0.0,0.0,0.0,1.9403,2.0892,2.0753,2.0288,1.9845,0.0,0.0,0.0,0.0,0.0,0.0,0.0,0.0,0.0,3.2445,3.2505,3.3263,3.4857,3.5864,3.6874,3.793,3.8888,3.9609,4.0058,4.0058,4.0058,4.0058,4.0058,3.9258,3.7814,3.5937,3.4355,3.2988,0.0,0.0,0.0,0.0,2.9924,2.9553,0.0,0.0,0.0,0.0,0.0,0.0,0.0,0.0,0.0,0.0,0.0,0.0,1.2234,1.3292,1.4276,1.5147,1.6449,1.6441,1.4676,1.5772,1.5142,1.2096,1.2384,1.2323,1.1637,1.4357,1.8707,2.4672,2.8358,3.1089,3.2843,3.2726,3.2281,3.1543,3.1426,2.9057,2.507,2.4339,2.2862,2.0918,0.0,0.0,0.0,0.0,0.0,0.0,0.0,0.0,0.0,0.0,0.0,0.0,0.0,0.0,0.0,0.0,0.0,0.0,0.0,0.0,0.0,0.0,0.0,0.0,0.0,0.0,0.0,0.0,0.0,0.0,0.0,0.0,0.0,0.0,0.0,0.0,0.0,2.0109,2.1478,2.1082,2.1787,2.2114,0.0,0.0,0.0,0.0,0.0,0.0,3.056,3.1623,3.3535,3.6465,3.6543,3.7439,3.9237,3.9551,3.9941,4.0391,4.0684,4.1133,4.1699,4.1699,4.1699,4.1699,4.1699,4.1406,4.0781,3.8107,3.6604,3.5898,3.4375,3.3398,3.2852,3.2997,3.2947,3.3138,0.0,0.0,0.0,0.0,0.0,0.0,0.0,0.0,0.0,0.0,0.0,1.226,1.3387,1.559,1.733,1.8201,1.946,1.994,1.9394,1.8095,1.6522,1.4682,1.3748,1.2941,1.227,1.9173,2.3995,2.6472,3.1424,3.4092,3.457,3.4176,3.3746,3.3265,3.2871,3.1191,2.8541,2.6914,2.543,2.3993,2.1893,0.0,0.0,0.0,0.0,0.0,0.0,0.0,0.0,0.0,0.0,0.0,0.0,0.0,0.0,0.0,0.0,0.0,0.0,0.0,0.0,0.0,0.0,0.0,0.0,0.0,0.0,0.0,0.0,0.0,0.0,0.0,0.0,0.0,0.0,0.0,0.0,0.0,0.0,2.7985,2.9277,0.0,0.0,0.0,0.0,2.8615,2.9507,3.148,3.489,3.5496,3.6955,3.959,3.9668,4.0117,4.1054,4.1074,4.1308,4.1699,4.1719,4.2168,4.3008,4.3008,4.3008,4.3008,4.3008,4.2734,4.2167,4.043,3.8927,3.7697,3.6834,3.648,3.6482,3.6866,3.7764,3.8913,0.0,0.0,0.0,0.0,0.0,0.9566,0.9687,0.9854,1.0108,1.0546,1.2668,1.4598,1.5788,1.8392,2.0377,2.1273,2.2586,2.2679,2.1036,2.0776,1.9384,1.6464,1.5709,1.6319,1.8368,2.4417,2.8568,3.0637,3.3792,3.5547,3.5974,3.5527,3.5218,3.5061,3.4648,3.3633,3.2124,3.0131,2.8047,2.5964,2.4633,2.2654,0.0,0.0,0.0,0.0,0.0,0.0,0.0,0.0,0.0,0.0,0.0,0.0,0.0,0.0,0.0,0.0,0.0,0.0,0.0,0.0,0.0,0.0,0.0,0.0,0.0,0.0,0.0,0.0,0.0,0.0,0.0,0.0,0.0,0.0,0.0,0.0,0.0,2.7586,2.904,0.0,2.9178,3.0434,3.1811,3.3033,3.4641,3.6365,3.8205,3.8437,3.9316,4.1074,4.1367,4.1797,4.2403,4.2989,4.332,4.3476,4.375,4.4022,4.4315,4.4315,4.4315,4.4315,4.4315,4.4082,4.3633,4.2715,4.1426,3.998,3.9375,3.8984,3.8885,3.9844,4.0488,4.1035,0.0,0.0,0.0,0.0,0.9685,0.9867,0.9989,1.0228,1.0661,1.1373,1.4112,1.6604,1.8137,2.1229,2.3501,2.4305,2.5567,2.5608,2.3969,2.3221,2.1527,1.8611,1.8046,1.9359,2.2669,2.7822,3.1465,3.35,3.5612,3.6894,3.7322,3.6875,3.6565,3.6408,3.5859,3.5195,3.443,3.2851,3.0684,2.8209,2.7057,2.521,2.3047,0.0,0.0,0.0,0.0,0.0,0.0,0.0,0.0,0.0,0.0,0.0,0.0,0.0,0.0,0.0,0.0,0.0,0.0,0.0,0.0,0.0,0.0,0.0,0.0,0.0,0.0,0.0,0.0,0.0,0.0,0.0,0.0,0.0,0.0,2.5866,2.8048,2.8612,3.0891,3.2219,3.1741,3.3951,3.584,3.6844,3.8241,3.955,4.0684,4.0742,4.1348,4.2637,4.2949,4.3301,4.373,4.4316,4.4609,4.4609,4.4881,4.5076,4.5254,4.5254,4.5254,4.5254,4.5254,4.5,4.459,4.4277,4.3398,4.2207,4.1426,4.125,4.1504,4.2187,4.2637,4.3008,0.0,0.0,0.0,1.0112,1.0112,1.0234,1.0546,1.0833,1.1556,1.3071,1.5618,1.8153,2.0417,2.4107,2.6677,2.7342,2.833,2.8756,2.8353,2.5309,2.2781,2.1144,2.0796,2.1956,2.4794,2.9408,3.2773,3.481,3.6891,3.8146,3.8573,3.8126,3.7716,3.7305,3.6428,3.584,3.543,3.4941,3.3301,3.0893,2.9141,2.7389,2.5698,0.0,0.0,0.0,0.0,0.0,0.0,0.0,0.0,0.0,0.0,0.0,0.0,0.0,0.0,0.0,0.0,0.0,0.0,0.0,0.0,0.0,0.0,0.0,0.0,0.0,0.0,0.0,0.0,0.0,0.0,0.0,0.0,0.0,2.5216,2.9227,3.2105,3.1859,3.5456,3.7482,3.6252,3.7693,3.9061,3.9902,3.998,4.0723,4.2382,4.246,4.3065,4.4375,4.4433,4.4629,4.5018,4.5037,4.5037,4.5037,4.5037,4.5293,4.5725,4.5725,4.5725,4.5725,4.5725,4.5449,4.5037,4.5037,4.4803,4.4336,4.2987,4.3261,4.4355,4.3906,4.4276,4.5037,0.0,0.0,0.0,1.011,1.0295,1.0484,1.0594,1.0833,1.1912,1.4452,1.7603,2.0771,2.3853,2.7148,2.9196,2.9398,2.9662,2.9531,2.8775,2.5717,2.3532,2.2639,2.4775,2.7338,3.0263,3.3872,3.6162,3.7018,3.7947,3.8475,3.8592,3.8475,3.8358,3.8221,3.7656,3.715,3.6719,3.5976,3.5078,3.4004,3.2266,3.0332,2.8451,0.0,0.0,0.0,0.0,0.0,0.0,0.0,0.0,0.0,0.0,0.0,0.0,0.0,0.0,0.0,0.0,0.0,0.0,0.0,0.0,0.0,0.0,0.0,0.0,0.0,0.0,0.0,0.0,0.0,0.0,0.0,2.6242,2.8671,2.8508,3.1843,3.4855,3.6488,3.8261,3.9219,3.8867,4.0098,4.1133,4.1679,4.2031,4.2715,4.3789,4.3867,4.4139,4.4803,4.5156,4.5392,4.5529,4.5801,4.5935,4.5935,4.5935,4.6016,4.6133,4.6133,4.6133,4.6133,4.6133,4.6055,4.5918,4.5625,4.5781,4.6052,4.4452,4.4082,4.4414,4.4569,4.5193,4.5898,0.0,0.0,0.0,1.0782,1.0684,1.0594,1.0594,1.0923,1.2371,1.5723,1.8957,2.2402,2.6184,2.893,3.0566,3.0742,3.0742,3.0021,2.8331,2.5318,2.3818,2.431,2.7175,3.0201,3.335,3.6127,3.7773,3.8203,3.8475,3.8592,3.8592,3.8592,3.8592,3.8573,3.8107,3.7775,3.7519,3.6818,3.6211,3.5566,3.4551,3.2949,3.1094,3.0298,2.942,2.8516,2.7656,2.666,2.5732,2.5343,0.0,0.0,0.0,0.0,0.0,0.0,0.0,0.0,0.0,0.0,0.0,0.0,0.0,0.0,0.0,0.0,0.0,0.0,0.0,0.0,0.0,0.0,0.0,0.0,2.9585,3.2681,3.3066,3.5412,3.7686,3.9206,4.0156,4.0703,4.0703,4.1699,4.2519,4.2909,4.3379,4.4025,4.4904,4.4941,4.5117,4.5525,4.5801,4.6016,4.6191,4.6423,4.666,4.6836,4.6836,4.6836,4.6836,4.6641,4.654,0.0,4.6367,4.6308,4.6289,4.6035,4.623,0.0,0.0,0.0,0.0,0.0,4.5605,4.6037,1.1204,1.1145,1.1179,1.1588,1.1069,1.0594,1.0594,1.1183,1.3043,1.6934,2.0044,2.3518,2.7786,2.9927,3.1172,3.1469,3.1325,3.0006,2.7117,2.4773,2.4338,2.6235,2.88,3.1722,3.499,3.6965,3.8223,3.8671,3.8671,3.869,3.8749,3.8749,3.871,3.8651,3.8224,3.8029,3.7951,3.7539,3.6916,3.6213,3.6155,3.5101,3.3422,3.2289,3.1641,3.1226,3.04,2.9344,2.8155,2.6825,0.0,0.0,0.0,0.0,0.0,0.0,0.0,0.0,0.0,0.0,0.0,0.0,0.0,0.0,0.0,0.0,0.0,0.0,0.0,0.0,0.0,0.0,0.0,0.0,3.2944,3.6924,3.8018,3.9413,4.0449,4.0762,4.1523,4.2031,4.209,4.2832,4.3476,4.3887,4.4316,4.4902,4.5725,0.0,0.0,0.0,0.0,4.654,4.6911,4.695,4.7187,4.76,4.7561,4.7522,4.7522,4.7028,4.6833,4.6814,4.6443,4.6308,4.6308,4.6308,4.6328,4.6367,4.6328,4.6523,4.6755,4.6016,4.5764,4.5764,1.107,1.0901,1.0731,1.0817,1.0697,1.0594,1.0594,1.2029,1.4506,1.8461,2.1781,2.5303,2.9349,3.1083,3.1831,3.1528,3.0314,2.8169,2.4859,2.6232,2.7703,2.882,3.2001,3.4841,3.7218,3.806,3.8671,3.9082,3.9082,3.9277,3.9648,3.9648,3.9434,3.9082,3.8984,3.8769,3.8436,3.7988,3.7697,3.7502,3.7187,3.6016,3.4434,3.418,3.4043,3.3906,3.341,3.2828,3.2313,3.2382,3.1163,2.9596,2.9632,2.8537,0.0,0.0,0.0,0.0,0.0,0.0,0.0,0.0,0.0,0.0,0.0,0.0,0.0,0.0,0.0,0.0,0.0,0.0,0.0,3.3587,3.5967,3.8289,4.068,4.2143,4.2871,4.2637,4.3027,4.3476,4.3867,4.4334,4.4824,4.5295,4.5392,4.5666,4.6152,4.6191,4.6211,4.6308,4.6618,4.6833,4.6911,4.7285,4.7522,4.76,0.0,0.0,4.7028,4.6621,4.6426,4.6426,4.6328,4.6308,4.6308,4.6308,4.6482,4.6755,4.6426,4.6348,4.6406,4.623,4.6191,4.6133,1.0826,1.0706,1.0728,1.1131,1.087,1.0594,1.0594,1.2076,1.4615,1.858,2.1584,2.4851,2.8811,3.0034,3.019,2.9282,2.7172,2.5999,2.6279,2.7054,2.8897,3.2018,3.4055,3.6088,3.8206,3.869,3.8984,3.9199,3.9434,3.9668,3.9902,3.9902,3.9766,3.9551,3.9551,3.9297,3.8867,3.8652,3.8302,3.7892,3.7677,3.6973,3.5957,3.5527,3.5234,3.498,3.4567,3.4121,3.3789,3.402,3.3238,3.2148,3.2148,3.1284,2.9916,0.0,0.0,0.0,0.0,0.0,0.0,0.0,0.0,0.0,0.0,0.0,0.0,0.0,0.0,2.6937,2.7091,0.0,3.423,3.7089,3.9161,4.1014,4.2847,4.3828,4.41,4.3476,4.3965,4.4432,4.4687,4.5098,4.5449,4.5686,4.59,4.6172,4.6579,4.6599,4.6599,4.6599,4.6794,4.6911,4.6911,4.7126,4.7363,4.76,4.7363,4.7246,4.7246,4.6794,4.6599,4.6579,4.6387,4.6308,4.6328,4.6523,4.6599,4.6618,4.6855,4.668,4.6289,4.6074,4.5996,4.5957,1.0594,1.0594,1.0799,1.1453,1.1029,1.0684,1.0913,1.2288,1.4632,1.843,2.1105,2.3947,2.7318,2.7997,2.7592,2.5963,2.3958,2.4286,2.7835,2.7764,2.9711,3.4577,3.5632,3.6885,3.8556,3.8984,3.9238,3.9336,3.9805,4.0059,4.0137,4.0137,4.0098,4.0019,4.0019,3.9707,3.9199,3.9199,3.875,3.8029,3.8029,3.7793,3.7344,3.6643,3.6074,3.5603,3.5117,3.4726,3.4469,3.4469,3.416,3.3734,3.3398,3.3023,3.2374,3.0713,3.0199,0.0,0.0,0.0,0.0,0.0,0.0,0.0,0.0,2.5742,2.5356,2.5841,2.8658,3.087,3.0368,3.4139,3.7962,3.9914,4.2008,4.3634,4.4414,4.4862,4.4883,4.418,4.4726,4.5154,4.5232,4.5586,4.5822,4.5822,4.6191,4.654,4.6892,4.6989,4.6989,4.6911,4.6989,4.6989,4.6911,4.6989,4.7226,4.76,4.7522,4.7461,4.7441,4.7067,4.6853,4.6775,4.6521,4.6484,4.6582,4.6892,4.6855,4.6621,4.7327,4.7171,4.6504,4.6194,4.6076,4.6076,1.0594,1.0594,1.0626,1.072,1.0657,1.0967,1.203,1.361,1.5796,1.8925,2.1853,2.4108,2.5336,2.5661,2.4774,2.2235,2.2656,2.3942,2.6065,2.8746,3.1691,3.4921,3.7117,3.8354,3.8592,3.8984,3.9394,3.9824,4.0215,4.0644,4.1054,4.1054,4.082,4.043,4.043,3.9961,3.9199,3.9199,3.8926,3.8514,3.8514,3.8242,3.7834,3.7736,3.7226,3.6482,3.6018,3.5823,3.5784,3.5784,3.5527,3.5176,3.5117,3.4785,3.416,3.2832,3.134,3.006,2.9781,2.9041,2.849,2.9116,2.9343,2.9992,0.0,3.241,3.1964,3.1517,3.3946,3.6253,3.6621,3.9415,4.2024,4.3051,4.38,4.4414,4.4862,4.5332,4.5588,4.549,4.5568,4.5764,4.6133,4.6211,4.623,4.623,4.6599,4.6853,4.6911,4.7305,4.7324,4.6911,4.7305,4.7324,4.6889,4.7305,4.7561,4.76,4.7187,4.697,4.697,4.6931,4.6697,4.6387,4.6697,4.707,4.7464,4.7503,4.7503,4.7464,4.7561,4.7542,4.7444,4.7405,4.7386,4.7386,1.0594,1.0594,1.0594,1.0594,1.0594,1.1006,1.2212,1.3622,1.5541,1.8273,2.0327,2.1745,2.2295,2.1579,2.0698,1.9898,2.1575,2.4039,2.7214,3.0463,3.373,3.6987,3.8075,3.8592,3.8592,3.8984,3.9434,3.9902,4.0293,4.0742,4.1191,4.1191,4.1094,4.0898,4.0625,4.0157,3.959,3.9316,3.8983,3.8592,3.8592,3.8495,3.8281,3.8009,3.7697,3.7285,3.633,3.5842,0.0,3.5664,3.5527,3.543,3.5684,3.5449,3.4941,3.4141,3.356,3.3292,3.3836,3.3212,3.2384,3.2325,3.239,3.2817,3.4137,3.4484,3.4613,3.4886,3.7336,3.9365,3.9091,4.1284,4.3514,4.4689,4.5041,4.5293,4.5681,4.5937,4.6035,4.6035,4.6035,4.6113,4.6289,4.6308,4.6406,4.6618,4.6579,4.6777,4.7285,4.7246,4.7087,4.6911,4.7087,4.7087,4.6911,4.7087,4.7324,4.76,4.7402,4.7305,4.7305,4.7305,4.7207,4.7073,4.7226,4.7422,4.762,4.7851,4.7793,4.7659,4.8148,4.8187,4.791,4.7698,4.76,4.76,1.0594,1.0594,1.0594,1.0594,1.0594,1.1129,1.2688,1.3713,1.5255,1.7888,1.9113,1.9697,1.9565,1.8207,1.7463,1.7865,2.0288,2.3691,2.8101,3.1297,3.4712,3.8441,3.8592,3.8592,3.8592,3.8984,3.9375,3.9707,4.0118,4.0508,4.0839,4.0839,4.0839,4.082,4.0488,4.0098,3.9687,3.9336,3.8983,3.8592,3.8592,3.8514,3.8359,3.8029,3.7677,3.7267,3.633,3.5803,3.5488,3.5019,3.5098,3.541,3.5469,3.5449,3.5351,3.5137,3.5137,3.5332,3.5974,3.5876,3.551,3.5286,3.5395,3.573,3.6326,3.6774,3.7278,3.8016,4.0177,4.171,4.1127,4.2796,4.457,4.5549,4.5803,4.5979,4.625,4.6308,4.6308,4.6308,4.6406,4.6484,4.6484,4.6484,4.6638,4.7048,4.6836,4.6914,4.7561,4.7285,4.7028,4.6889,4.6911,4.6911,4.6911,4.6911,4.7148,4.76,4.76,4.76,4.76,4.76,4.7737,4.7952,4.7835,4.7835,4.7972,4.8262,4.8226,4.8011,4.8659,4.8695,4.8359,4.8069,4.7952,4.7952,1.0594,1.0594,1.0594,1.0594,1.0594,1.1423,1.386,1.4287,1.5328,1.8214,1.9016,1.8826,1.7527,1.6422,1.5799,1.5881,1.8627,2.2557,2.777,3.0642,3.4065,3.8402,3.8592,3.8592,3.8592,3.8984,3.9199,3.9219,3.9687,3.9922,3.9941,3.9941,3.9941,3.9941,3.9922,3.9668,3.9219,3.9199,3.8983,3.8592,3.8592,3.832,3.7931,3.7912,3.7131,3.6057,3.6018,3.5999,3.5725,3.4027,3.432,3.5234,3.4411,3.4723,3.5469,3.5842,3.5374,3.4726,3.4746,3.5371,3.6274,3.7488,3.8405,3.9281,4.012,4.0685,4.1133,4.1562,4.2694,4.3612,4.3589,4.4725,4.5646,4.5686,4.6037,4.6289,4.6308,4.6308,4.6308,4.6308,4.6638,4.6892,4.6892,4.6892,4.709,4.7542,4.7581,4.7581,4.76,4.76,4.7363,4.6911,4.6911,4.6911,4.6911,4.6911,4.7148,4.76,4.76,4.76,4.76,4.76,4.805,4.8835,4.8379,4.8441,4.8855,4.8874,4.8874,4.8874,4.8894,4.8894,4.8874,4.8874,4.8855,4.8855,1.0594,1.0594,1.0661,1.0825,1.1377,1.2422,1.4287,1.4405,1.5248,1.7863,1.7422,0.0,0.0,0.0,0.0,0.0,1.9446,2.3359,2.744,3.1295,3.4725,3.7599,3.8299,3.8592,3.8592,3.8729,3.8926,3.9199,3.9355,3.959,3.9902,3.9902,3.9902,3.9883,3.957,3.9355,3.918,3.8925,3.8535,3.8144,3.8144,3.7891,3.7578,3.8144,3.7207,3.5605,0.0,3.4863,3.375,3.2891,3.2906,3.3316,3.3555,3.3652,3.3809,3.4528,3.5137,3.5745,3.6584,3.7463,3.8437,3.9746,4.0508,4.1074,4.164,4.1875,4.2207,4.291,4.3183,4.3653,4.4805,4.5137,4.543,4.5996,4.6211,4.6308,4.6308,4.6308,4.6406,4.6658,4.6814,4.7126,4.7715,4.7519,4.7422,4.76,4.7305,4.7148,4.7148,4.6894,4.6797,4.6911,4.6911,4.7185,4.7751,4.7751,4.7988,4.8441,4.8441,4.8441,4.8441,4.8441,4.864,4.8894,4.8734,4.8753,4.8913,4.8913,4.8913,4.8913,4.8913,4.8913,4.8933,4.9199,4.9297,4.9258,1.0739,1.0739,1.0792,1.0964,1.1885,0.0,0.0,0.0,0.0,0.0,0.0,0.0,0.0,0.0,0.0,0.0,0.0,2.2928,2.645,3.0458,3.3746,3.6052,3.6697,3.7127,3.7439,3.7146,3.742,3.8319,3.8144,3.8457,3.918,3.9043,3.8965,3.8965,3.8652,3.8516,3.8496,3.826,3.8125,3.8105,3.7656,3.7324,3.7088,3.7027,3.5857,0.0,3.3711,3.273,3.1616,3.1358,3.169,3.2257,3.2602,3.3168,3.3867,3.457,3.5469,3.666,3.8556,3.9375,4.0059,4.1699,4.2285,4.2558,4.2812,4.2987,4.33,4.4003,4.3965,4.416,4.5451,4.5449,4.5488,4.6191,4.6426,4.6501,4.6501,4.666,4.6797,4.6892,4.7185,4.7575,4.8164,4.7969,4.7793,4.7793,4.7402,4.7168,4.7168,4.6758,4.6697,4.7148,4.7168,4.75,4.8203,4.8203,4.8441,4.8913,4.8913,4.8913,4.8913,4.8913,4.8913,4.8913,4.8913,4.8913,4.8913,4.9046,4.9125,4.9125,4.9301,4.9359,4.9402,4.9648,4.9766,4.9726,1.1017,1.1017,1.1039,0.0,0.0,0.0,0.0,0.0,0.0,0.0,0.0,0.0,0.0,0.0,0.0,0.0,0.0,0.0,2.4937,2.8284,3.1284,3.3824,3.4016,3.445,3.5273,3.4489,3.486,3.6538,3.6113,3.6526,3.7736,3.7383,3.7207,3.7207,3.7207,3.7187,3.7168,3.7168,3.7615,3.82,3.6988,3.646,3.6226,3.4622,3.3195,3.1905,3.0678,2.9955,2.9579,2.9637,3.0849,3.2242,3.1821,3.3457,3.5566,3.5979,3.6484,3.7574,4.0449,4.0976,4.1191,4.3262,4.3789,4.3808,4.3808,4.416,4.459,4.4901,4.4959,4.5057,4.549,4.5588,4.5744,4.6133,4.6579,4.6892,4.6911,4.7285,4.7402,4.7009,4.7695,4.8183,4.8203,4.8183,4.8164,4.8164,4.7793,4.7561,4.7561,4.7126,4.7126,4.762,4.764,4.7835,4.8242,4.8242,4.8457,4.8913,4.8913,4.8913,4.8913,4.8933,4.8933,4.8933,4.8972,4.8972,4.9011,4.9394,4.9547,4.9586,5.0019,5.0199,5.0199,5.0219,5.0238,5.0238,0.0,0.0,0.0,0.0,0.0,0.0,0.0,0.0,0.0,0.0,0.0,0.0,0.0,0.0,0.0,0.0,0.0,0.0,2.4374,2.7506,2.9966,3.1636,3.291,3.3675,3.391,3.3695,3.3809,3.4242,3.4473,3.4902,3.5527,3.5762,3.5879,3.5879,3.5879,3.5684,3.5371,3.5371,3.4941,3.4254,3.3942,3.3238,3.2398,3.2609,3.167,3.0302,3.062,3.0019,2.9238,3.0229,3.2124,3.4101,3.4336,3.5508,3.6894,3.7307,3.8672,4.0273,4.1367,4.25,4.3613,4.4452,4.4941,4.5197,4.5197,4.5508,4.5586,4.4726,4.4277,4.3984,4.379,4.4025,4.4355,4.4805,4.5781,4.654,4.6853,4.7009,4.7263,4.7812,4.7793,4.7871,4.8183,4.793,4.7734,4.7734,4.7344,4.7067,4.7067,4.697,4.7243,4.8027,4.8047,4.8242,4.8714,4.8714,4.8773,4.8913,4.8913,4.8913,4.8913,4.9199,4.9355,4.9375,4.973,4.9867,4.9867,4.9984,5.0019,5.0019,5.016,5.0199,5.0238,5.0527,5.0644,5.0683,0.0,0.0,0.0,0.0,0.0,0.0,0.0,0.0,0.0,0.0,0.0,0.0,0.0,0.0,0.0,0.0,0.0,0.0,0.0,2.5879,2.7812,2.9141,3.0083,3.0864,3.1396,3.1074,3.1445,3.2563,3.2261,3.2711,3.3848,3.3555,3.3434,3.3434,3.3434,3.3281,3.3027,3.3027,3.2847,0.0,0.0,3.1348,3.0874,3.0581,2.9774,2.8836,2.9324,2.9975,3.082,3.2129,3.3652,3.5156,3.5976,3.699,3.8104,3.9259,4.0488,4.1758,4.3145,4.424,4.5098,4.5681,4.6191,4.633,4.5566,4.5723,4.5547,4.3867,4.33,4.3008,4.2598,4.3164,4.3848,4.4316,4.5781,4.6953,4.7187,4.7539,4.7891,4.8164,4.7988,4.8027,4.848,4.7952,4.7679,4.7851,4.7461,4.7263,4.7458,4.7477,4.7793,4.8499,4.8519,4.8636,4.8913,4.8913,4.8913,4.8913,4.8913,4.8988,4.916,4.9414,4.9605,4.9824,0.0,5.0199,5.0219,5.0395,5.0449,5.0469,5.0664,5.0723,5.0762,5.0972,5.105,5.1089,0.0,0.0,0.0,0.0,0.0,0.0,0.0,0.0,0.0,1.3827,1.3477,1.3247,1.3247,1.3761,0.0,0.0,0.0,0.0,0.0,0.0,2.55,2.6608,2.6765,2.7337,2.845,2.7793,2.8529,3.0728,2.9682,3.0204,3.2105,3.105,3.0586,3.0625,3.0625,3.0586,3.0547,3.0547,3.0932,3.1416,3.0234,2.9941,3.0039,0.0,2.7786,2.7565,2.7852,3.0009,3.2965,3.4453,3.5371,3.6113,3.7402,3.8416,3.9491,4.1465,4.2129,4.2734,4.508,4.5783,4.6035,4.6794,4.7305,4.7168,4.5545,4.541,4.4982,4.2695,4.2187,4.2031,4.1621,4.2637,4.3711,4.4219,4.6094,4.7542,4.76,4.8284,4.8656,4.8262,4.8203,4.834,4.8675,4.803,4.7776,4.8164,4.7871,4.7832,4.8183,4.8203,4.8418,4.8894,4.8913,4.8913,4.8913,4.8949,4.8968,4.8968,4.9027,4.9261,4.9586,4.9644,4.9879,5.0297,0.0,0.0,5.0395,5.0742,5.0898,5.0894,5.1265,5.1401,5.1401,5.1401,5.1401,5.1401,0.0,0.0,0.0,0.0,0.0,0.0,0.0,0.0,0.0,0.0,1.3884,1.3533,0.0,0.0,0.0,0.0,0.0,0.0,0.0,0.0,0.0,2.4851,2.5542,2.6018,2.6252,2.6128,2.6264,2.6713,2.6875,2.7513,2.8582,2.8705,2.8926,2.9244,2.9244,2.9049,2.8764,2.8764,2.8418,2.7877,2.7643,2.7162,2.6576,2.6264,2.6355,0.0,2.864,3.0576,3.2726,3.5444,3.7322,3.8769,4.0097,4.1074,4.1953,4.3047,4.3866,4.4627,4.5471,4.6191,4.6814,4.7344,4.7542,4.7346,4.6308,4.5586,4.4433,4.1934,4.1113,4.0703,4.0312,4.1543,4.289,4.3691,4.5603,4.7168,4.7542,4.8008,4.8281,4.8223,4.8203,4.8105,4.7855,4.7698,4.7776,4.8164,4.8144,4.8125,4.8203,4.8203,4.8418,4.8894,4.8913,4.8913,4.8913,4.9219,4.9414,4.9391,4.9809,5.0004,5.0102,5.043,5.0625,5.0723,5.103,0.0,5.1206,5.1265,5.1304,5.1304,5.1382,5.1401,5.1401,5.1401,5.1401,5.1401,0.0,0.0,0.0,0.0,0.0,0.0,0.0,1.4442,1.471,1.5775,1.5656,1.5177,1.4416,1.4199,1.496,0.0,0.0,0.0,0.0,0.0,0.0,2.4062,2.4481,2.4812,2.5015,2.5015,2.5249,2.5706,0.0,2.5801,2.666,2.6634,2.6744,2.6934,2.7155,2.7123,2.696,2.696,2.6706,2.631,2.631,2.6057,2.5706,2.5706,2.6128,0.0,2.8633,3.0659,3.2789,3.472,3.7068,3.9512,4.1269,4.2266,4.2969,4.4042,4.4666,4.5193,4.6072,4.6777,4.7363,4.7793,4.791,4.7441,4.5703,4.4629,4.3144,4.0117,3.9492,3.9375,3.8927,4.0625,4.2383,4.3242,4.535,4.7067,4.7519,4.8167,4.8558,4.8558,4.834,4.8223,4.8265,4.8069,4.8086,4.8538,4.8558,4.8558,4.8558,4.8558,4.8656,4.8894,4.8913,4.8988,4.9199,4.9391,4.9625,4.9863,5.0102,5.0317,5.0508,5.0723,5.0894,5.1109,5.1323,0.0,5.1401,5.1401,5.1401,5.1401,5.1401,5.1401,5.1401,5.1401,5.1401,5.1401,0.0,0.0,0.0,0.0,0.0,0.0,0.0,1.5211,1.5882,1.738,1.7555,1.7032,1.5626,1.4879,1.5234,0.0,0.0,0.0,0.0,0.0,0.0,0.0,2.3652,2.3797,2.4118,0.0,0.0,2.5128,2.4469,0.0,0.0,0.0,0.0,0.0,2.5476,2.5647,2.5581,2.5667,2.5706,0.0,0.0,2.5706,2.5725,0.0,0.0,0.0,0.0,3.0625,3.2715,3.3961,3.6345,3.916,4.1211,4.2363,4.3203,4.4491,4.494,4.5291,4.656,4.7246,4.7679,4.7988,4.8066,4.7383,4.4726,4.338,4.1758,3.8439,3.8066,3.8281,3.8185,4.0176,4.2148,4.3204,4.5293,4.6973,4.7522,4.8265,4.8734,4.8734,4.8519,4.846,4.8714,4.8519,4.8496,4.8874,4.8968,4.8988,4.8913,4.8913,4.8952,4.9027,4.9027,4.9242,4.9644,4.9742,4.998,5.0336,5.0434,5.0625,5.0937,5.0937,5.1089,5.1421,5.1499,0.0,0.0,5.1499,5.1499,5.1401,5.1401,5.1401,5.1401,5.1401,5.1401,5.1401,0.0,0.0,0.0,0.0,0.0,0.0,0.0,1.587,1.7061,1.8557,1.8744,1.8303,1.7125,1.6191,1.6092,0.0,0.0,0.0,0.0,0.0,0.0,0.0,0.0,0.0,0.0,0.0,0.0,2.3346,2.3268,0.0,0.0,0.0,0.0,0.0,0.0,2.5496,2.518,2.5542,0.0,0.0,0.0,0.0,0.0,0.0,0.0,0.0,0.0,3.0742,3.1997,3.4453,3.625,3.7793,3.957,4.1191,4.2734,4.4062,4.4705,4.5291,4.656,4.7246,4.762,4.7659,4.7659,4.6877,4.3907,4.2266,4.0605,3.791,3.7383,3.7754,3.8887,4.0566,4.2344,4.4004,4.5449,4.6641,4.7483,4.7969,4.8262,4.8262,4.8597,4.8675,4.8301,4.8617,4.8855,4.8894,4.9238,4.9297,4.8933,4.8913,4.9066,4.943,4.9449,4.9687,5.0141,5.0488,5.0703,5.0762,5.1109,5.1304,5.1343,5.1343,5.1382,5.1421,5.1855,0.0,0.0,5.1855,5.1777,5.1401,5.1401,5.1401,5.1401,5.1401,5.1401,5.1401,0.0,0.0,0.0,0.0,0.0,0.0,1.5257,1.6179,1.7355,1.9197,1.9438,1.9132,1.8303,1.7994,1.7704,1.7327,0.0,0.0,0.0,0.0,0.0,0.0,0.0,0.0,0.0,0.0,2.3101,2.3101,2.3376,0.0,0.0,0.0,0.0,0.0,0.0,2.5246,2.5114,2.5266,0.0,0.0,0.0,0.0,0.0,0.0,0.0,0.0,0.0,0.0,3.2085,3.3121,3.5016,3.701,3.7422,3.9083,4.1308,4.3379,4.4297,4.5039,4.6836,4.7441,4.7659,4.7891,4.7383,4.6094,4.332,4.1504,3.9765,3.742,3.7146,3.7617,3.8651,3.9824,4.1387,4.3613,4.4648,4.5625,4.6992,4.7558,4.793,4.8183,4.8359,4.8519,4.8617,4.8773,4.8913,4.8913,4.9046,4.916,4.9258,4.9535,4.9633,4.9508,4.9785,5.0117,5.0547,5.0723,5.0937,5.1167,5.1323,5.1401,5.1401,5.1401,5.1558,5.1836,5.2036,0.0,0.0,5.2109,5.2129,5.2143,5.1933,5.1973,5.2182,5.2182,5.2182,5.2182,0.0,0.0,0.0,0.0,0.0,1.4037,1.57,1.6526,1.7622,1.9439,1.9746,1.9546,1.885,1.8807,1.855,1.7883,1.7807,0.0,0.0,0.0,0.0,0.0,0.0,0.0,0.0,0.0,2.317,2.3318,2.3633,2.3859,0.0,0.0,2.4789,2.4246,0.0,0.0,0.0,0.0,0.0,0.0,0.0,0.0,0.0,0.0,0.0,0.0,0.0,0.0,0.0,0.0,0.0,3.5935,3.5996,3.7424,3.9687,4.248,4.373,4.4668,4.6816,4.7383,4.7461,4.7731,4.6973,4.541,4.2676,4.0937,3.9238,3.697,3.6834,3.7439,3.8416,3.9315,4.0703,4.3125,4.3906,4.4785,4.6482,4.7012,4.7425,4.7949,4.8125,4.832,4.8656,4.8835,4.8913,4.8913,4.9148,4.9359,4.9488,5.0176,5.0351,4.9898,5.0195,5.0566,5.0952,5.0972,5.1109,5.1401,5.1401,5.1401,5.1421,5.1538,5.1797,5.2114,5.2368,0.0,0.0,5.2383,5.2441,5.2676,5.2246,5.2344,5.2715,5.2715,5.2715,5.2715,0.0,0.0,0.0,0.0,0.0,0.0,1.5976,1.7033,1.8036,1.9241,1.9641,1.9466,1.8598,1.8153,1.8233,1.901,1.9015,0.0,0.0,0.0,0.0,0.0,0.0,0.0,0.0,0.0,2.3337,2.38,2.38,2.4004,2.4402,2.4887,2.4633,2.3828,0.0,0.0,0.0,0.0,0.0,0.0,0.0,0.0,2.5683,0.0,0.0,0.0,0.0,0.0,0.0,0.0,0.0,0.0,0.0,3.6621,3.8008,4.1406,4.3026,4.418,4.6326,4.6911,4.6911,4.6911,4.6308,4.4904,4.1895,4.0527,3.916,3.6545,3.6367,3.7088,3.8376,3.9315,4.0586,4.2754,4.3437,4.4316,4.6074,4.6308,4.6641,4.7503,4.7949,4.8203,4.8223,4.8636,4.8913,4.8913,4.9691,0.0,4.9527,5.0699,5.1206,5.0801,5.0801,5.0996,5.1401,5.1401,5.1401,5.1401,5.1401,5.1401,5.1421,5.1875,5.2095,0.0,0.0,0.0,0.0,5.2695,5.2695,5.2676,5.2246,5.2344,5.2715,5.2715,5.2715,5.2715,0.0,0.0,0.0,0.0,0.0,0.0,0.0,1.5964,1.6794,1.801,1.8077,1.805,1.8143,1.7839,1.8019,1.901,1.9296,0.0,0.0,0.0,0.0,0.0,0.0,0.0,0.0,0.0,2.3789,2.4207,2.5398,2.6042,2.6198,2.6666,2.6412,2.5559,2.5239,2.5024,0.0,0.0,0.0,0.0,0.0,2.5315,2.4649,0.0,0.0,0.0,0.0,0.0,0.0,0.0,0.0,0.0,0.0,0.0,0.0,3.8788,4.1035,4.2734,4.4276,4.5154,4.5389,4.4512,4.3867,4.2812,4.0391,3.916,3.8048,3.635,3.6367,3.7105,3.8376,3.8555,3.9629,4.2969,4.3125,4.3632,4.5976,4.6816,4.7307,4.7561,4.8245,4.8675,4.8675,4.8815,4.8913,4.8913,4.9394,4.9805,4.9961,5.0625,5.0937,5.0801,5.1069,5.1265,5.1401,5.1401,5.1401,5.1421,5.1738,5.1875,5.1894,5.2324,5.2701,0.0,0.0,0.0,0.0,5.3281,5.334,5.3549,5.315,5.3223,5.3588,5.3588,5.3588,5.3588,0.0,0.0,0.0,0.0,0.0,0.0,0.0,1.5376,1.5953,1.6807,1.678,1.6886,1.7449,1.7195,1.7545,1.8984,1.941,0.0,0.0,0.0,0.0,0.0,0.0,0.0,0.0,2.3652,2.4406,2.5657,2.6719,2.7598,2.8215,2.8509,2.7923,2.6602,2.6067,2.5551,0.0,0.0,0.0,0.0,2.5143,2.461,2.3895,0.0,0.0,0.0,0.0,0.0,0.0,0.0,0.0,0.0,0.0,0.0,0.0,0.0,3.9023,4.0723,4.25,4.3475,4.3827,4.3027,4.2246,4.125,3.959,3.8418,3.7365,3.6233,3.6367,3.7105,3.8376,3.8476,3.9454,4.2675,4.2753,4.3261,4.5723,4.666,4.7402,4.8223,4.8519,4.8773,4.9082,4.8988,4.8949,4.9125,4.9512,4.9961,5.0391,5.082,5.1011,5.1011,5.1265,5.1401,5.1401,5.1401,5.1499,5.168,5.1953,5.2168,5.2324,5.2754,5.313,0.0,0.0,0.0,0.0,5.358,5.3658,5.3959,5.356,5.3658,5.3998,5.3998,5.3998,5.3998,0.0,0.0,0.0,0.0,0.0,0.0,0.0,1.5146,1.5418,1.5701,1.5728,1.5915,1.6474,1.6196,1.6768,1.8802,0.0,0.0,0.0,0.0,0.0,0.0,0.0,0.0,0.0,2.3839,2.509,2.7643,2.78,2.8705,3.0289,3.0371,2.9238,2.7175,2.7116,2.6367,0.0,0.0,0.0,0.0,2.4233,2.3633,0.0,0.0,0.0,0.0,0.0,0.0,0.0,0.0,0.0,0.0,0.0,0.0,0.0,0.0,0.0,0.0,0.0,4.1816,4.2207,4.207,4.1191,4.0118,3.9238,3.8144,0.0,3.6233,3.6423,3.7127,3.8456,3.8964,3.9883,4.2089,4.246,4.3202,4.5392,4.6152,4.7266,4.9352,4.8805,4.861,4.9469,4.9183,4.9125,4.9527,4.998,5.0414,5.0781,5.1187,5.1401,5.1401,5.1401,5.1401,5.1401,5.1401,5.166,5.2114,5.2134,5.2368,5.2773,5.3228,5.3443,0.0,0.0,0.0,0.0,5.3599,5.3652,5.3959,5.3599,5.3652,5.3998,5.3998,5.3998,5.3998,0.0,0.0,0.0,0.0,0.0,0.0,0.0,0.0,0.0,0.0,1.4952,1.4861,1.4994,1.4751,1.542,0.0,0.0,0.0,0.0,0.0,0.0,0.0,0.0,0.0,0.0,2.4102,2.5203,2.7155,2.8822,3.0156,3.1201,3.1875,3.1035,2.8959,2.8281,2.709,0.0,0.0,0.0,0.0,2.4233,2.3098,0.0,0.0,0.0,0.0,2.1182,2.193,0.0,0.0,0.0,0.0,0.0,0.0,0.0,0.0,3.6033,3.7127,3.7733,0.0,4.0176,3.8828,3.8769,3.8749,0.0,3.7519,3.7539,3.6699,3.6873,3.7656,3.9277,3.9139,3.9667,4.2481,4.295,4.3574,4.5432,4.719,4.8832,5.0332,4.9722,4.9433,4.998,4.9629,4.9551,5.0,5.041,5.0703,5.0801,5.1187,5.1401,5.1401,5.1401,5.1401,5.1401,5.1401,5.166,5.2114,5.2402,5.2793,5.3248,5.3672,5.3842,0.0,0.0,0.0,5.3998,5.39,5.39,5.3998,5.3881,5.392,5.3998,5.3998,5.3998,5.3998,0.0,0.0,0.0,0.0,0.0,0.0,0.0,0.0,0.0,0.0,0.0,1.4322,1.4322,1.4186,0.0,0.0,0.0,0.0,0.0,0.0,0.0,0.0,0.0,2.2882,2.2972,2.3913,2.5542,2.7877,2.9238,3.0874,3.2695,3.2769,3.1738,2.9799,2.793,2.6576,0.0,0.0,0.0,2.4609,2.2634,0.0,0.0,0.0,0.0,0.0,2.0357,2.118,0.0,2.3238,2.4439,2.5737,0.0,0.0,0.0,0.0,3.5368,3.615,3.6345,3.793,3.9355,3.8398,3.8397,3.8416,3.7713,3.7598,3.75,3.7068,3.7285,3.7988,3.9336,3.9862,4.0742,4.2774,4.3771,4.4963,4.6897,4.8499,4.9887,5.0933,5.0332,4.9922,5.018,4.9961,4.9922,5.018,5.0566,5.0898,5.1069,5.1284,5.1401,5.1401,5.1401,5.1401,5.1401,5.1401,5.1714,5.2383,5.2598,5.3047,5.3672,5.39,5.3998,0.0,0.0,0.0,5.3998,5.3998,5.3998,5.3998,5.3998,5.3998,5.3998,5.3998,5.3998,5.3998,0.0,0.0,0.0,0.0,0.0,0.0,0.0,0.0,0.0,0.0,0.0,0.0,0.0,0.0,0.0,0.0,0.0,0.0,0.0,0.0,0.0,0.0,0.0,2.2265,2.2188,2.3648,2.5847,2.8814,2.9545,3.1299,3.3981,3.3512,3.2187,3.0078,2.7272,2.5783,0.0,0.0,2.3583,2.3172,2.0615,0.0,0.0,0.0,0.0,0.0,0.0,0.0,0.0,2.2505,2.3446,2.4776,2.7641,0.0,0.0,0.0,0.0,0.0,3.6135,3.7853,3.9394,3.8926,3.8612,3.8396,3.8319,3.783,3.7402,3.7402,3.7773,3.8439,3.959,4.0898,4.2168,4.3302,4.4904,4.6682,4.8695,4.975,5.0566,5.1323,5.0742,5.0317,5.0395,5.0336,5.0317,5.0395,5.0703,5.103,5.1382,5.1401,5.1401,5.1401,5.1401,5.144,5.1499,5.1499,5.1909,5.2715,5.2773,5.3242,5.3998,5.3998,5.3998,5.3998,0.0,0.0,5.3998,5.3998,5.3998,5.3998,5.3998,5.3998,5.3998,5.3998,5.3998,5.3998,0.0,0.0,0.0,0.0,0.0,0.0,0.0,0.0,0.0,0.0,0.0,0.0,0.0,0.0,0.0,0.0,0.0,0.0,0.0,0.0,0.0,0.0,2.0341,2.1969,2.2997,2.3934,2.571,2.8398,3.0279,3.1997,3.3539,3.4886,3.3601,3.0128,2.8223,2.6142,2.3998,2.38,2.303,2.1874,2.0243,0.0,0.0,0.0,0.0,0.0,0.0,0.0,0.0,2.2087,2.4095,2.65,2.6474,0.0,0.0,0.0,0.0,0.0,3.7307,3.9219,4.0273,3.7713,3.7303,3.742,3.7068,3.7422,3.7814,3.7814,3.8439,3.9726,4.2071,4.2129,4.2558,4.4923,4.6428,4.7815,4.9219,5.0156,5.0898,5.1343,5.0972,5.0859,5.1187,5.0918,5.0859,5.1187,5.1284,5.1343,5.1401,5.1401,5.1401,5.1401,5.1401,5.1577,5.1973,5.1973,5.2226,5.269,5.3111,5.3535,5.3998,5.3998,5.3998,5.3998,0.0,5.3998,5.3998,5.3998,5.3998,5.3998,5.3998,5.3998,5.3998,5.3998,5.3998,5.3998,0.0,0.0,0.0,0.0,0.0,0.0,0.0,0.0,0.0,0.0,0.0,0.0,0.0,0.0,0.0,0.0,0.0,0.0,0.0,0.0,0.0,1.7438,1.9736,2.1298,2.1894,2.3749,2.6244,2.933,3.125,3.309,3.4788,3.3968,3.2098,2.9406,2.7467,2.5528,2.3645,2.2918,2.1824,2.0451,0.0,0.0,0.0,0.0,0.0,0.0,0.0,0.0,0.0,0.0,2.3471,2.5323,2.714,0.0,0.0,0.0,0.0,0.0,3.6662,3.7969,3.9042,3.8809,4.0117,4.1406,4.123,4.1465,4.1601,4.1133,4.1191,4.1758,4.3144,4.3476,4.4394,4.6995,4.8086,4.8926,4.9766,5.0605,5.1187,5.1382,5.103,5.0879,5.105,5.0918,5.0879,5.105,5.1284,5.1401,5.1401,5.1401,5.1519,5.1777,5.1777,5.1992,5.2422,5.2681,5.2896,5.3091,5.3287,5.3619,5.3998,5.3998,5.3998,5.3998,0.0,5.3998,5.3998,5.3998,5.3998,5.3998,5.3998,5.3998,5.3998,5.3998,5.3998,5.3998,0.0,0.0,0.0,0.0,0.0,0.0,0.0,0.0,0.0,0.0,0.0,0.0,0.0,0.0,0.0,0.0,0.0,0.0,0.0,0.0,1.6166,1.6952,1.9327,2.0954,2.1695,2.4386,2.7432,3.0801,3.2359,3.4043,3.5803,3.3168,3.0962,2.9127,2.7194,2.5227,2.3296,2.2186,2.0739,1.915,0.0,0.0,0.0,0.0,0.0,0.0,0.0,0.0,0.0,0.0,0.0,0.0,0.0,0.0,0.0,3.4168,3.5363,3.5837,3.6428,3.7246,3.8379,4.0313,4.2167,4.371,4.451,4.4393,4.4022,4.3769,4.3535,4.3595,4.4199,4.5117,4.6445,4.8561,4.9316,4.9801,5.0297,5.0933,5.144,5.1558,5.1187,5.1035,5.123,5.1074,5.0996,5.1094,5.1382,5.1519,5.1421,5.1499,5.1738,5.2095,5.2114,5.2368,5.2851,5.3228,5.341,5.341,5.3502,5.3691,5.3998,5.3998,5.3998,5.3998,5.3998,5.3998,5.3998,5.3998,5.3998,5.3998,5.3998,5.3998,5.3998,5.3998,5.3998,5.3998,0.0,0.0,0.0,0.0,0.0,0.0,0.0,0.0,0.0,0.0,0.0,0.0,0.0,0.0,0.0,0.0,0.0,0.0,0.0,0.0,1.5967,1.6351,1.8737,2.1423,2.4362,2.6813,2.9564,3.2617,3.3551,3.4489,3.541,3.3949,3.2133,3.0039,2.8711,2.5987,2.2374,2.1893,2.0299,1.8104,1.8023,0.0,0.0,0.0,0.0,0.0,0.0,0.0,0.0,0.0,0.0,0.0,0.0,0.0,3.3551,3.3816,3.5186,3.6871,3.8084,3.9061,4.0019,4.1367,4.0371,3.9902,4.3066,4.2578,4.1895,4.3398,4.4023,4.4668,4.5898,4.7129,4.8164,4.8815,4.9594,5.0273,5.0703,5.1128,5.1558,5.1992,5.166,5.1675,5.2475,5.1831,5.1538,5.1953,5.2036,5.1855,5.1421,5.1816,5.2075,5.2114,5.2114,5.2505,5.3326,5.3365,5.341,5.3384,5.3789,5.3978,5.3998,5.3998,5.3998,5.3998,5.3998,5.3998,5.3998,5.3998,5.3998,5.3998,5.3998,5.3998,5.3998,5.3998,5.3998,5.3998,0.0,0.0,0.0,0.0,0.0,0.0,0.0,0.0,0.0,0.0,0.0,0.0,0.0,0.0,0.0,0.0,0.0,0.0,0.0,1.5499,1.6194,1.706,1.9804,2.2333,2.4533,2.8031,3.1359,3.4414,3.5781,3.6094,3.5351,3.3207,3.1367,2.9732,2.7236,2.4795,2.2481,2.1399,1.9927,1.833,1.8489,1.865,0.0,0.0,0.0,0.0,0.0,0.0,0.0,0.0,2.4699,2.663,2.9117,3.1686,3.403,3.5245,3.612,3.6871,3.7596,3.8809,4.0273,4.1777,4.1777,4.2149,4.5018,4.5625,4.5822,4.6741,4.6836,4.6758,4.6677,4.7734,4.8695,4.8874,4.9848,5.0625,5.0781,5.1148,5.1558,5.2031,5.1699,5.1753,5.2637,5.2187,5.2012,5.2441,5.2461,5.2402,5.2202,5.2383,5.2622,5.2896,5.2896,5.3189,5.3769,5.3769,5.3769,5.3769,5.392,5.3998,5.3998,5.3998,5.3998,5.3998,5.3998,5.3998,5.3998,5.3998,5.3998,5.3998,5.3998,5.3998,5.3998,5.3998,5.3998,5.4037,0.0,0.0,0.0,0.0,0.0,0.0,0.0,0.0,0.0,0.0,0.0,0.0,0.0,0.0,0.0,0.0,0.0,0.0,1.512,1.5553,1.6248,1.7274,2.0378,2.2822,2.4364,2.9149,3.2796,3.5176,3.6758,3.6582,3.471,3.2011,3.0637,3.0255,2.6345,2.4251,2.3547,2.1492,1.9916,1.8785,1.8864,1.8971,0.0,0.0,0.0,0.0,0.0,0.0,0.0,0.0,2.5177,2.6883,3.0822,3.2948,3.4389,3.633,3.7459,3.8123,3.8105,3.918,4.0684,4.2226,4.2656,4.3399,4.6091,4.707,4.7676,4.8675,4.8421,4.7871,4.7399,4.8047,4.8812,4.9222,5.016,5.0859,5.0976,5.1343,5.1738,5.2075,5.1933,5.2085,5.2851,5.2539,5.2486,5.2891,5.291,5.2851,5.2715,5.2832,5.3072,5.339,5.341,5.3599,5.3998,5.3998,5.3998,5.3998,5.3998,5.3998,5.3998,5.3998,5.3998,5.3998,5.3998,5.3998,5.3998,5.3998,5.3998,5.3998,5.3998,5.3998,5.4017,5.4154,5.4213,5.4277,0.0,0.0,0.0,0.0,0.0,0.0,0.0,0.0,0.0,0.0,0.0,0.0,0.0,0.0,0.0,0.0,0.0,0.0,1.5378,1.566,1.6061,1.6661,2.0153,2.2757,2.4147,3.023,3.3812,3.4707,3.6033,3.5564,3.3332,3.043,3.0202,3.1945,2.6496,2.4721,2.5577,2.2285,2.033,1.9374,1.9052,1.9118,1.9401,0.0,0.0,0.0,0.0,0.0,0.0,0.0,2.7544,2.7475,3.4459,3.5668,3.4899,3.6754,3.9139,4.0976,4.0117,4.0546,4.1523,4.2774,4.2461,4.2637,4.5625,4.5996,4.6311,4.8464,4.8206,4.7737,4.8125,4.8223,4.8652,4.9984,5.0527,5.0933,5.1343,5.1797,5.2114,5.2114,5.2461,5.2891,5.3345,5.2994,5.2891,5.3365,5.341,5.3209,5.2754,5.315,5.341,5.341,5.341,5.3599,5.3998,5.3998,5.3998,5.3998,5.3998,5.3998,5.3998,5.3998,5.3998,5.3998,5.3998,5.3998,5.3998,5.3998,5.3998,5.4017,5.3998,5.4017,5.4076,5.4531,5.4713,5.4713,0.0,0.0,0.0,0.0,0.0,0.0,0.0,0.0,0.0,0.0,0.0,0.0,0.0,0.0,0.0,0.0,0.0,0.0,1.5391,1.566,1.6061,1.6661,1.9841,2.2004,2.2852,2.8308,3.2617,3.5608,3.5723,3.4684,3.2504,2.9752,2.9309,3.0587,2.5713,2.415,2.4954,2.1759,2.0237,1.9958,1.985,1.9758,1.9693,0.0,0.0,0.0,0.0,0.0,0.0,0.0,0.0,0.0,3.3315,3.5247,3.6577,3.7126,3.8047,3.881,3.8556,4.0469,4.254,4.2598,4.4473,4.6465,4.707,4.6875,4.6992,4.8558,4.8441,4.8144,4.8617,4.8926,4.9332,5.0082,5.0781,5.1265,5.1382,5.1797,5.2187,5.248,5.2935,5.3365,5.3789,5.3685,5.3666,5.3828,5.3828,5.3744,5.3627,5.3744,5.3828,5.3828,5.3828,5.3861,5.3998,5.3998,5.3998,5.3998,5.3998,5.3998,5.3998,5.3998,5.3998,5.3998,5.3998,5.3998,5.3998,5.3998,5.4193,5.4453,5.4115,5.4369,5.4902,5.4746,5.4863,5.5117,0.0,0.0,0.0,0.0,0.0,0.0,0.0,0.0,1.4092,1.4092,1.4092,1.4202,0.0,0.0,0.0,1.512,1.5309,1.5444,1.5553,1.5833,1.6448,1.7458,1.9957,2.2442,2.4863,2.8737,3.1797,3.3968,3.4062,3.3024,3.0842,2.8689,2.8308,2.9234,2.5027,2.3788,2.4679,2.1923,2.0679,2.0559,2.0559,2.0466,2.0321,0.0,0.0,0.0,0.0,0.0,0.0,0.0,0.0,0.0,3.2422,3.3626,3.4703,3.6497,3.791,3.9242,4.0822,4.2891,4.4707,4.5115,4.6326,4.7558,4.8011,4.7913,4.7812,4.8284,4.8441,4.8558,4.8855,4.9398,4.9922,5.0351,5.0972,5.146,5.1636,5.2051,5.2422,5.2676,5.3242,5.3652,5.375,5.39,5.3998,5.3998,5.3998,5.3998,5.3998,5.3998,5.3998,5.3998,5.3998,5.3998,5.3998,5.3998,5.3998,5.3998,5.3998,5.3998,5.3998,5.3998,5.3998,5.3998,5.3998,5.3998,5.3998,5.3998,5.4277,5.4674,5.4394,5.4707,5.5293,5.5215,5.5332,5.5501,0.0,0.0,1.4092,0.0,0.0,0.0,0.0,1.4092,1.4092,1.4092,1.4092,1.4202,0.0,0.0,0.0,1.5351,1.5418,1.554,1.577,1.6112,1.703,1.8641,2.0535,2.3814,2.8682,3.0376,3.0962,3.0456,3.1403,3.0831,2.88,2.7349,2.7261,2.8213,2.4583,2.3688,2.4826,2.2509,2.1339,2.1069,2.108,2.1096,2.1042,2.0817,0.0,0.0,0.0,0.0,0.0,0.0,0.0,0.0,3.1878,3.1512,3.102,3.5116,3.8158,4.1018,4.4763,4.6326,4.7282,4.8883,4.7887,4.6914,4.8444,4.8874,4.8714,4.7952,4.8402,4.8991,4.907,4.9711,5.0395,5.0801,5.1148,5.1558,5.2031,5.2441,5.2715,5.2754,5.349,5.3867,5.3482,5.3789,5.3998,5.3998,5.3998,5.3998,5.3998,5.3998,5.3998,5.3998,5.3998,5.3998,5.3998,5.3998,5.3998,5.3998,5.3998,5.3998,5.3998,5.3998,5.3998,5.3998,5.3998,5.3998,5.4017,5.4056,5.4336,5.4746,5.4746,5.5019,5.5469,5.5774,5.593,5.5911,0.0,0.0,1.4092,1.4092,0.0,0.0,1.4092,1.4092,1.4092,1.4092,1.4092,1.4202,1.4461,1.4723,0.0,1.5376,1.5593,1.5741,1.5808,1.6112,1.703,1.8641,2.2224,2.5367,2.7897,2.8633,2.8372,2.7124,2.8637,2.9017,2.8298,2.5897,2.6568,2.9573,2.5188,2.4393,2.6128,2.2453,2.0844,2.0804,2.1015,2.0975,2.0804,2.0949,2.1047,0.0,0.0,0.0,0.0,0.0,0.0,0.0,3.2271,3.2351,3.2699,3.378,3.6287,3.9189,4.1186,4.4276,4.6989,4.738,4.791,4.8245,4.7952,4.8652,4.9336,4.9117,4.9234,4.959,5.0273,5.0547,5.0801,5.1206,5.1343,5.1558,5.2031,5.2441,5.2832,5.3209,5.3691,5.3959,5.3861,5.3939,5.3998,5.3998,5.3998,5.3998,5.3998,5.3998,5.3998,5.3998,5.3998,5.3998,5.3998,5.3998,5.3998,0.0,5.3998,5.3998,5.3998,5.3998,5.3998,5.3998,5.3998,5.3998,5.4037,5.4394,5.4785,5.5176,5.5176,5.5644,5.6289,5.5989,5.6126,5.6387,0.0,0.0,0.0,0.0,0.0,0.0,0.0,0.0,1.4466,1.4309,1.4295,1.4402,1.4707,1.4903,0.0,0.0,1.5646,1.5808,1.5808,1.6233,1.7579,2.0025,2.388,2.6409,2.7331,2.7281,2.6866,2.61,2.554,2.5538,2.6096,2.5755,2.6615,2.8361,2.5963,2.5174,2.5454,2.2546,2.1261,2.1154,2.1416,2.1523,2.1496,2.1392,2.1514,2.2024,2.4178,0.0,0.0,0.0,0.0,0.0,0.0,0.0,2.9826,3.1441,3.3139,3.5581,4.0731,4.363,4.5544,4.7136,4.8047,4.846,4.7988,4.8574,4.9316,4.9746,5.0,5.025,5.0723,5.0976,5.1226,5.1655,5.1538,5.1694,5.2603,5.2695,5.2949,5.3594,5.3861,5.3998,5.3998,5.3998,5.3998,5.3998,5.3998,5.3998,5.3998,5.3998,5.3998,5.3998,5.3998,5.3998,5.3998,5.3998,5.3998,5.3998,5.3998,5.3998,5.3998,5.3998,5.3998,5.3998,5.3998,5.4115,5.4355,5.4615,5.5039,5.5579,5.5579,5.6015,5.6589,5.6328,5.6387,5.6737,0.0,0.0,0.0,0.0,0.0,0.0,0.0,0.0,0.0,1.4538,1.4552,1.4696,1.497,1.5037,1.516,0.0,0.0,0.0,1.5808,1.6728,1.8648,2.1671,2.4991,2.6843,2.6999,2.6329,2.5856,2.5597,2.2909,2.226,2.3535,2.5418,2.6389,2.6576,2.6185,2.5444,2.4348,2.254,2.1649,2.1478,2.174,2.1977,2.2121,2.1673,2.1955,2.2864,2.5019,2.6827,2.8609,3.1146,0.0,0.0,0.0,0.0,2.631,2.9322,3.0396,3.236,4.0239,4.2887,4.4163,4.7318,4.8203,4.8281,4.8125,4.8636,4.9343,5.0043,5.0508,5.082,5.0898,5.1167,5.1558,5.2012,5.1777,5.1973,5.3209,5.3072,5.3125,5.39,5.3998,5.3998,5.3998,5.3998,5.3998,5.3998,5.3998,5.3998,5.3998,5.3998,5.3998,5.3998,5.3998,5.3998,5.3998,5.3998,5.3998,5.3998,5.3998,5.3998,5.3998,5.3998,5.3998,5.4017,5.4076,5.4355,5.4713,5.487,5.5312,5.5911,5.5989,5.6269,5.6609,5.6609,5.6609,5.695,0.0,0.0,0.0,0.0,0.0,0.0,0.0,0.0,0.0,0.0,1.475,1.4957,1.5008,1.5213,1.5362,1.5402,1.5646,1.5808,1.5808,0.0,0.0,2.2136,2.4584,2.6225,2.6979,2.6011,2.4865,2.3591,2.2252,2.1812,2.2252,2.2769,2.4317,2.6509,2.4599,2.4116,2.4572,2.1989,2.0844,2.0831,2.1109,2.1243,2.1283,2.1203,2.1249,2.1577,2.3435,2.5561,2.7578,2.8499,2.9826,0.0,0.0,0.0,2.7042,2.9166,3.0817,3.257,3.5479,3.9964,4.4441,4.7028,4.8245,4.8597,4.7855,4.891,5.0063,5.018,5.0508,5.0918,5.1265,5.1362,5.1558,5.2012,5.2056,5.2329,5.3267,5.3345,5.3482,5.3939,5.3998,5.3998,5.3998,5.3998,5.3998,5.3998,5.3998,5.3998,5.3998,5.3998,5.3998,5.3998,5.3998,5.3998,5.3998,5.3998,5.3998,5.3998,5.3998,5.3998,5.3998,5.3998,5.3998,5.4017,5.4433,5.4629,5.4746,5.5442,5.5813,5.595,5.6348,5.6523,5.6609,5.6609,5.6609,5.6989,0.0,0.0,0.0,0.0,0.0,0.0,0.0,0.0,0.0,0.0,0.0,1.5215,1.5215,1.5336,1.5391,1.5391,1.5646,1.6264,1.7353,1.9292,2.1189,2.3018,2.4551,2.5401,2.5495,2.4359,2.32,2.2017,2.0913,2.0937,2.2007,2.2268,2.4079,2.703,2.5368,2.4811,2.4903,2.2112,2.0922,2.0922,2.104,2.1804,2.2712,2.1534,2.1724,2.2711,2.3424,2.4438,2.5818,2.8217,2.8433,2.7768,2.8409,0.0,0.0,0.0,2.7501,2.9429,3.4994,3.9964,4.4275,4.7202,4.8421,4.8737,4.8066,4.9125,5.0199,5.0199,5.0703,5.1187,5.1382,5.1616,5.1933,5.2363,5.2441,5.2734,5.3613,5.3541,5.356,5.3939,5.3998,5.3998,5.3998,5.3998,5.3998,5.3998,5.3998,5.3998,5.3998,5.3998,5.3998,5.3998,5.3998,5.3998,5.3998,5.3998,5.3998,5.3998,5.3998,5.3998,5.3998,5.3998,5.3998,5.4037,5.4492,5.483,5.5078,5.5657,5.6048,5.6308,5.6504,5.6609,5.6609,5.6609,5.7369,5.8836,0.0,0.0,0.0,0.0,0.0,0.0,0.0,0.0,0.0,0.0,0.0,1.5511,1.5511,0.0,0.0,0.0,1.5766,1.6748,1.8694,1.9825,2.1407,2.3597,2.4164,2.435,2.4242,2.2761,2.1689,2.1051,2.0083,2.047,2.2111,2.2455,2.4191,2.6946,2.5813,2.5081,2.4536,2.2288,2.1336,2.1363,2.1657,2.2712,2.3968,2.2873,2.3291,2.439,2.3913,2.4226,2.5166,2.7259,2.702,2.6101,2.7583,2.6259,0.0,0.0,0.0,2.7678,3.4977,3.9587,4.3116,4.6542,4.7969,4.8499,4.8262,4.9238,5.0238,5.0336,5.0918,5.1401,5.1401,5.1777,5.2226,5.2637,5.2812,5.3144,5.39,5.373,5.3652,5.3959,5.3998,5.3998,5.3998,5.3998,5.3998,5.3998,5.3998,5.3998,5.3998,5.3998,5.3998,5.3998,5.3998,5.3998,5.3998,5.3998,5.3998,5.3998,5.3998,5.4056,5.4154,5.4056,5.4115,5.4349,5.4707,5.5078,5.5508,5.5891,5.6289,5.6609,5.6609,5.6609,5.6609,5.6465,5.7867,6.0241,0.0,0.0,0.0,0.0,0.0,0.0,0.0,0.0,0.0,0.0,0.0,1.5781,1.5781,1.5781,1.5781,1.5781,1.6072,1.7102,1.9049,1.9645,2.1064,2.3579,2.2973,0.0,2.4089,2.1809,2.0695,2.0912,2.0411,2.0917,2.2388,2.2989,2.4098,2.5577,2.4676,2.3807,2.298,2.2258,2.1954,2.2061,2.3197,2.3719,2.3986,2.5537,2.6172,2.6085,2.4661,2.5442,0.0,0.0,0.0,2.8187,2.6908,2.656,2.6677,0.0,0.0,0.0,3.4058,3.736,4.0513,4.4238,4.6426,4.7776,4.8125,4.9238,5.0317,5.0683,5.1109,5.1401,5.1401,5.1777,5.2226,5.2637,5.3091,5.3521,5.3939,5.3978,5.3978,5.3998,5.3998,5.3998,5.3998,5.3998,5.3998,5.3998,5.3998,5.3998,5.3998,5.3998,5.3998,5.3998,5.3998,5.3998,5.3998,5.3998,5.3998,5.3998,5.3998,5.4213,5.4655,5.4193,5.4447,5.5234,5.5273,5.5481,5.5911,5.6367,5.6562,5.6609,5.6609,5.6609,5.6543,5.6087,5.7586,6.0199,0.0,0.0,0.0,0.0,0.0,0.0,0.0,0.0,0.0,0.0,0.0,0.0,0.0,1.5808,1.59,1.6099,1.738,1.882,2.038,2.1366,2.243,2.3652,2.3117,2.2396,2.155,2.0851,2.0203,1.9611,1.9658,2.0443,2.19,2.2472,2.334,2.4387,2.3875,2.3567,2.3402,2.2238,2.1833,2.2141,2.3688,2.501,2.6105,2.6507,2.7475,2.8404,0.0,0.0,0.0,0.0,0.0,0.0,0.0,2.7795,2.7033,2.7549,2.8189,2.9914,3.5204,3.7578,3.9584,4.3929,4.5877,4.6953,4.7637,4.9066,5.0238,5.0395,5.0933,5.1499,5.1797,5.2207,5.2539,5.2695,5.332,5.3848,5.3978,5.3998,5.3998,5.3998,5.3998,5.3998,5.3998,5.3998,5.3998,5.3998,5.3998,5.3998,5.3998,5.3998,5.3998,5.3998,5.3998,5.3998,5.3998,5.3998,5.3998,5.3998,5.3998,5.4095,5.4258,5.4076,5.4466,5.5312,5.5312,5.5521,5.595,5.6406,5.6609,5.6609,5.6609,5.6609,5.6562,5.6406,5.8889,6.2561,0.0,0.0,0.0,0.0,0.0,1.5391,1.5391,1.5633,1.5808,0.0,0.0,0.0,0.0,0.0,1.6405,1.6712,1.8256,1.9821,2.1267,2.2533,2.3405,2.3813,2.3107,2.1977,2.0394,2.0101,1.9668,1.9078,1.9466,2.0323,2.1612,2.2261,2.31,2.4035,2.3523,2.3554,2.3866,2.28,2.2492,2.2899,2.4858,2.6186,2.7088,2.7942,2.8823,0.0,0.0,0.0,0.0,0.0,0.0,0.0,0.0,0.0,2.6406,2.7462,2.8541,3.0439,3.5195,3.7578,3.9585,4.3204,4.4783,4.584,4.7441,4.8714,4.9687,5.0297,5.0913,5.1499,5.1816,5.2324,5.2754,5.291,5.3529,5.3998,5.3998,5.3998,5.3998,5.3998,5.3998,5.3998,5.3998,5.3998,5.3998,5.3998,5.3998,0.0,5.3998,5.3998,5.3998,5.3998,5.3998,5.3998,5.3998,5.3998,5.3998,5.3998,5.3998,5.4076,5.4213,5.4076,5.4544,5.5481,5.5371,5.5625,5.6145,5.6465,5.6609,5.6609,5.6609,5.6609,5.6562,5.6426,5.9538,6.3865,0.0,0.0,0.0,0.0,1.5229,1.5429,1.5429,1.566,1.5835,1.5835,0.0,0.0,0.0,0.0,0.0,1.7661,1.8684,2.0026,2.1697,2.3003,2.3836,2.4043,2.2765,2.1679,2.0855,1.9569,1.9051,1.9401,1.9918,2.0655,2.1585,2.2439,2.3465,2.4492,2.3679,2.3643,2.4168,2.3879,2.3933,2.4409,2.672,2.7175,2.68,2.9971,0.0,0.0,3.1554,3.213,0.0,3.4598,0.0,0.0,0.0,0.0,0.0,2.6997,2.9222,3.155,0.0,0.0,0.0,4.1933,4.2987,4.4433,4.7422,4.8105,4.8633,5.0391,5.105,5.1362,5.1421,5.2124,5.2851,5.3306,5.373,5.3998,5.3998,5.3998,5.3998,5.3998,5.3998,5.3998,5.3998,5.3998,5.3998,5.3998,5.3998,5.3998,5.3998,5.3998,5.3998,5.3998,5.3998,5.3998,5.3998,5.3998,5.3998,5.3998,5.3998,5.4258,5.4674,5.4213,5.4701,5.5872,5.5462,5.5801,5.6609,5.6609,5.6609,5.6609,5.6609,5.6609,5.6523,5.6087,5.9289,6.3845,0.0,0.0,0.0,1.5242,1.571,1.6056,1.6056,1.6273,1.6447,0.0,0.0,0.0,0.0,0.0,0.0,1.974,2.1217,2.2656,2.3989,2.4337,2.4068,2.3124,2.1711,2.0483,1.9484,1.9088,1.9051,1.9401,1.9547,1.9947,2.0599,2.1542,2.2328,2.3029,2.346,2.3759,2.3866,2.31,2.334,2.4356,2.6066,2.7255,0.0,0.0,0.0,0.0,0.0,3.4788,3.477,0.0,3.8769,3.6484,0.0,0.0,0.0,0.0,0.0,3.2177,3.5614,0.0,0.0,0.0,0.0,0.0,4.498,4.5937,4.6975,4.9007,4.9746,5.0406,5.168,5.2344,5.2851,5.3306,5.373,5.3998,5.3998,5.3998,5.3998,5.3998,5.3998,5.3998,5.3998,5.3998,5.3998,0.0,5.3998,5.3998,5.3998,5.3998,5.3998,5.3998,5.3998,5.3998,5.3998,5.3998,5.3998,5.3998,5.3998,5.4076,5.4193,5.4414,5.4863,5.5488,5.5657,5.6048,5.6609,5.6609,5.6609,5.6609,5.6609,5.6609,5.6562,5.6445,5.9819,6.4457,0.0,0.0,1.5429,1.5723,1.627,1.6671,1.6671,1.69,1.7047,0.0,0.0,0.0,0.0,0.0,0.0,0.0,2.338,2.4419,2.4956,2.503,2.4421,2.298,2.1671,2.0369,1.9134,1.9105,1.9199,1.9401,1.9401,1.9666,2.0224,2.1015,2.17,2.2271,2.2913,2.3358,2.3541,2.2735,2.3229,2.4756,2.6841,0.0,0.0,3.0595,3.2169,0.0,0.0,0.0,3.8158,4.2863,4.1187,0.0,0.0,0.0,0.0,0.0,0.0,0.0,0.0,0.0,3.9199,4.0235,0.0,0.0,4.4551,4.5471,4.6467,4.9144,5.0019,5.0601,5.1621,5.2168,5.2578,5.3052,5.3457,5.3808,5.3978,5.3998,5.3998,5.3998,5.3998,5.3998,5.3998,5.3998,5.3998,5.3998,5.3998,5.3998,5.3998,5.3998,5.3998,5.3998,5.3998,5.3998,5.3998,5.3998,5.3998,5.3998,5.3998,5.3998,5.4017,5.4473,5.4902,5.5332,5.5735,5.6165,5.6609,5.6609,5.6609,5.6609,5.6609,5.6609,5.6742,5.7853,6.0998,6.4883,0.0,0.0,1.5967,1.6337,1.6898,1.7313,1.738,1.7622,1.7729,0.0,0.0,0.0,0.0,0.0,0.0,0.0,2.5232,2.5656,2.5221,2.5209,2.4564,2.31,2.1942,2.0745,1.943,1.9401,1.9401,1.9401,1.9401,1.9667,2.017,2.0799,2.139,2.1911,2.2241,2.2709,2.3158,2.2775,2.3607,2.543,2.8091,2.9007,0.0,0.0,3.3318,3.5038,3.8537,4.0391,4.1889,4.6459,4.3103,0.0,0.0,0.0,0.0,0.0,3.29,0.0,0.0,0.0,0.0,4.0157,4.0293,0.0,4.4824,4.5488,4.6252,4.9433,5.0406,5.0757,5.1011,5.1465,5.1914,5.2285,5.2857,5.3424,5.392,5.3998,5.3998,5.3998,5.3998,5.3998,5.3998,5.3998,5.3998,5.3998,5.3998,5.3998,5.3998,5.3998,5.3998,5.3998,5.3998,5.3998,5.3998,5.3998,5.3998,5.3998,5.3998,5.3998,5.4017,5.4531,5.4961,5.5332,5.5774,5.6204,5.6609,5.6609,5.6609,5.6609,5.6609,5.6609,5.6883,5.9268,6.2086,6.5036,1.6056,1.6177,1.6377,1.6925,1.7475,1.8009,1.849,1.8839,1.9107,1.928,0.0,0.0,0.0,0.0,0.0,0.0,0.0,2.7088,2.6407,2.4965,2.3459,2.1975,2.0573,1.9692,1.9416,1.9401,1.9401,1.9401,1.9401,1.9561,1.9907,2.0722,2.116,2.1309,2.2054,2.2468,2.2628,2.35,2.4596,2.5891,2.6687,0.0,3.248,3.395,3.6521,3.9714,4.2534,4.3792,4.4434,4.6095,4.1834,3.5728,0.0,0.0,0.0,3.1531,0.0,0.0,0.0,0.0,0.0,0.0,4.0957,0.0,4.1679,4.2363,4.3534,4.5293,4.5955,4.6775,4.8493,4.9469,5.0035,5.0113,5.1387,5.2734,5.3842,5.3998,5.3998,5.3998,5.3998,5.3998,5.3998,5.3998,5.3998,5.3998,5.3998,5.3998,5.3998,5.3998,5.3998,5.3998,5.3998,5.3998,5.3998,5.3998,5.3998,5.3998,5.3998,5.3998,5.4037,5.4824,5.5234,5.5351,5.6133,5.6504,5.6609,5.6609,5.6609,5.6609,5.6609,5.6609,5.6662,5.7202,6.05,6.4782,1.6445,1.6632,1.6979,1.7715,1.8317,1.889,1.9463,2.0095,2.0485,2.0454,0.0,0.0,0.0,0.0,0.0,0.0,0.0,0.0,2.71,2.5206,2.34,2.1671,2.0184,1.9468,1.9601,1.9468,1.9468,1.9601,1.9601,1.9748,2.0012,2.0746,2.1641,2.2632,2.2338,2.2859,2.3923,2.3661,2.4338,2.5703,2.7302,0.0,3.3976,3.5185,3.8375,4.2371,4.3684,4.4376,4.4702,4.4696,4.0314,0.0,0.0,3.5684,3.4412,0.0,3.7006,3.962,0.0,0.0,0.0,4.0195,0.0,0.0,0.0,4.2109,4.2968,4.4941,4.5508,4.6113,4.7617,4.8086,4.8493,4.9371,5.043,5.1504,5.2553,5.3301,5.3691,5.3691,5.3861,5.3998,5.3998,5.3998,5.3998,5.3998,5.3998,5.3998,5.3998,5.3998,5.3998,5.3998,5.3998,5.3998,5.3998,5.3998,5.3998,5.3998,5.4258,5.4355,5.4394,5.5208,5.5599,5.5638,5.6308,5.6609,5.6609,5.6609,5.6609,5.6609,5.6609,5.6609,5.6936,5.9634,6.2368,6.5084,1.6994,1.7261,1.7688,1.8451,1.9079,1.9654,2.0212,2.1031,2.1582,0.0,0.0,0.0,0.0,0.0,0.0,0.0,0.0,0.0,0.0,2.561,2.3613,2.1759,2.0205,1.9627,2.0135,1.9655,1.9535,1.98,1.98,1.9973,2.0319,2.084,2.2058,2.3741,2.2819,2.3447,2.5104,2.4026,2.4665,2.66,0.0,3.1891,3.4691,3.6142,3.9776,4.4051,4.3813,4.3664,4.3459,4.2655,3.856,3.4352,3.7586,3.7595,0.0,0.0,0.0,0.0,0.0,0.0,0.0,0.0,0.0,4.0449,0.0,0.0,0.0,4.4883,4.5371,4.5723,4.666,4.668,4.695,4.818,4.9121,4.9887,5.0347,5.1699,5.274,5.2994,5.3535,5.3842,5.3764,5.3744,5.3822,5.3998,5.3842,5.3822,5.3998,5.3998,5.3998,5.3998,5.3998,5.3998,5.3998,5.3998,5.3998,5.4017,5.4394,5.459,5.4707,5.5442,5.5833,5.593,5.6406,5.6609,5.6609,5.6609,5.6609,5.6609,5.6609,5.6609,5.7202,6.2086,6.4252,6.541,1.8237,1.833,1.8464,1.8797,1.9344,1.9962,2.055,2.1181,2.1957,0.0,0.0,0.0,0.0,0.0,0.0,0.0,0.0,0.0,2.8844,0.0,2.3542,2.2011,2.0322,2.0032,2.1371,2.0084,1.9535,1.98,1.98,2.008,2.0643,2.0962,2.151,2.2301,2.3434,2.3973,2.408,2.543,2.7947,3.1113,3.198,3.342,0.0,3.7551,4.1337,4.5321,4.4269,4.2452,4.0507,0.0,3.6498,3.2886,0.0,3.828,3.9541,3.838,0.0,0.0,0.0,0.0,0.0,0.0,4.1855,0.0,0.0,0.0,4.1426,4.1719,0.0,4.2695,4.3926,0.0,0.0,4.4453,4.6348,4.7659,4.6973,4.8652,5.0367,5.1499,5.2715,5.3306,5.2891,5.2851,5.3158,5.3939,5.3275,5.3178,5.3959,5.3998,5.3998,5.3998,5.3998,5.3998,5.3998,5.3998,5.3998,5.3998,5.4056,5.4316,5.4733,5.5156,5.556,5.593,5.6406,5.6609,5.6609,5.6609,5.6609,5.6609,5.6609,5.6609,5.6963,5.9953,6.2624,6.5134,1.8464,1.8504,1.8691,1.9304,1.9758,2.0292,2.11,2.2305,2.3327,2.3959,0.0,0.0,0.0,0.0,0.0,0.0,0.0,3.2876,0.0,0.0,0.0,2.1861,2.0739,2.0525,2.1299,2.0361,1.9918,2.0039,2.0227,2.0456,2.0697,2.1165,2.2342,2.4048,2.4521,2.5504,2.6807,2.6901,2.8466,3.0991,0.0,0.0,0.0,4.0202,4.3632,4.6587,4.4815,4.2516,4.0127,0.0,3.5952,0.0,0.0,0.0,0.0,4.2099,4.3475,4.4141,0.0,0.0,0.0,0.0,0.0,0.0,3.9902,0.0,4.0801,0.0,0.0,0.0,0.0,0.0,0.0,0.0,4.5234,4.6055,4.5979,4.7126,4.8571,5.0113,5.1035,5.1763,5.2285,5.2558,5.3061,5.3939,5.3178,5.3061,5.3959,5.3998,5.3998,5.3998,5.3998,5.3998,5.3998,5.3998,5.3998,5.4017,5.4505,5.4863,5.5058,5.5742,5.6152,5.6328,5.6504,5.6609,5.6609,5.6609,5.6609,5.6609,5.6609,5.6609,5.7122,6.1412,6.372,6.531,1.8718,1.8745,1.8972,1.9679,2.0025,2.0573,2.1646,2.297,2.4174,2.513,0.0,0.0,3.2203,3.4575,0.0,0.0,0.0,3.403,0.0,0.0,2.5331,2.3499,2.1823,0.0,2.2298,2.1093,2.0437,2.0437,2.063,2.0817,2.1058,2.1422,2.284,2.505,2.5256,2.6863,2.9395,2.9049,3.0595,3.3354,3.4033,3.6936,4.108,4.3172,4.5018,4.625,4.4021,4.1548,3.8966,3.6559,3.5297,0.0,3.9735,0.0,4.2436,4.5348,4.5705,4.4806,4.3281,0.0,0.0,0.0,0.0,0.0,0.0,0.0,0.0,0.0,0.0,0.0,0.0,0.0,0.0,0.0,0.0,4.4883,4.4982,4.5586,4.6677,4.8415,4.9453,5.0508,0.0,5.1855,5.2319,5.3549,5.2729,5.269,5.3939,5.3998,5.3998,5.3998,5.3998,5.3998,5.3998,5.3998,5.3998,5.4017,5.4785,5.5195,5.5332,5.6074,5.6465,5.6609,5.6609,5.6609,5.6609,5.6609,5.6609,5.6609,5.6609,5.6609,5.7256,6.2701,6.4706,6.5485,1.9254,1.9361,1.9468,1.9746,2.0025,2.0691,2.2148,2.2702,2.3904,2.6562,0.0,0.0,0.0,0.0,0.0,0.0,0.0,3.6123,3.2223,0.0,2.6592,0.0,0.0,2.2773,0.0,2.2535,2.1066,2.1066,2.0831,2.1125,2.1954,2.1703,2.2415,2.3924,2.5342,2.7644,3.0557,3.2215,3.602,4.0977,4.148,4.4153,4.7722,0.0,4.4882,4.3495,4.1111,0.0,0.0,3.2892,3.3946,0.0,0.0,0.0,0.0,0.0,0.0,0.0,0.0,0.0,0.0,4.2051,0.0,0.0,0.0,0.0,4.1406,0.0,0.0,0.0,0.0,0.0,0.0,0.0,0.0,0.0,0.0,4.3535,4.4453,4.6191,4.8239,5.0015,5.1304,5.0328,5.0484,5.2573,5.1582,5.1797,5.3881,5.3998,5.3998,5.3998,5.3998,5.3998,5.3998,5.3998,5.3998,5.4017,5.4492,5.4922,5.5306,5.5735,5.6165,5.6609,5.6609,5.6609,5.6609,5.6609,5.6609,5.6609,5.6609,5.6609,5.7256,6.2701,6.4706,6.5485,1.9361,1.9534,1.9641,1.9547,1.9892,2.0757,2.2475,2.346,2.5111,0.0,0.0,0.0,0.0,0.0,4.1858,0.0,0.0,3.662,3.2976,2.9432,0.0,0.0,0.0,2.3995,0.0,0.0,2.2101,2.1713,2.1606,2.179,2.2271,2.2412,2.313,2.4404,2.6099,2.8763,3.2021,3.3193,3.6659,4.1561,0.0,4.5037,4.5319,0.0,0.0,4.4008,3.9772,3.7666,0.0,3.3751,3.5275,3.8675,4.0682,4.3473,4.6375,4.8286,4.8457,0.0,0.0,0.0,4.8047,4.459,0.0,0.0,0.0,0.0,0.0,0.0,0.0,0.0,0.0,0.0,0.0,0.0,0.0,0.0,0.0,4.3223,4.3751,4.4902,4.7187,4.8688,4.8867,5.0293,5.1523,5.2246,5.2447,5.3091,5.4394,5.4154,5.3998,5.3998,5.3998,5.3998,5.3998,5.3998,5.3998,5.4017,5.4746,5.5176,5.5332,5.6035,5.6445,5.6609,5.6609,5.6609,5.6609,5.6609,5.6609,5.6609,5.6609,5.6609,5.7256,6.2701,6.4706,6.5485,1.9667,1.9746,1.9773,1.9708,2.0334,2.1309,2.2693,2.4772,0.0,0.0,3.2878,0.0,3.9791,0.0,4.1189,0.0,3.8327,3.5776,3.2367,3.0758,0.0,3.0244,2.9004,0.0,0.0,0.0,2.6278,2.5628,2.4342,2.3812,2.4017,2.3473,2.3785,2.4831,2.6219,2.9394,3.3772,3.4909,3.8466,4.3553,4.5984,4.5958,0.0,0.0,4.292,4.1836,0.0,3.6829,3.6113,3.529,3.7361,4.0686,4.3214,4.579,4.8203,4.9722,4.9726,4.9105,4.8656,4.9457,0.0,4.668,4.6152,0.0,4.3145,0.0,0.0,0.0,0.0,0.0,0.0,0.0,0.0,0.0,0.0,0.0,0.0,4.295,4.3477,4.3887,4.6055,4.7793,4.846,4.9457,5.0801,5.2637,5.2466,5.2974,5.4615,5.4414,5.4154,5.4017,5.3998,5.3998,5.3998,5.3998,5.3998,5.4017,5.4876,5.5312,5.5332,5.6191,5.6609,5.6609,5.6609,5.6609,5.6609,5.6609,5.6609,5.6609,5.6609,5.6609,5.7256,6.2701,6.5911,6.8087,2.017,2.0052,2.0,2.0237,2.1243,2.2208,0.0,0.0,2.9994,0.0,3.5821,3.9022,4.2221,4.1142,3.9565,3.7903,3.6272,0.0,3.068,3.2147,0.0,0.0,3.5148,3.6265,3.7394,0.0,0.0,0.0,2.8694,2.6984,2.6967,2.503,2.4534,2.5286,2.6013,2.9814,3.5825,3.7385,4.1507,4.7048,4.7907,4.7073,4.5005,4.2561,3.9861,3.7341,3.7218,3.5916,3.4679,3.7114,3.9818,4.2756,4.5909,4.8678,5.0879,5.1284,5.1719,5.1802,5.059,5.0547,5.0371,4.8265,0.0,0.0,0.0,0.0,4.695,0.0,0.0,0.0,0.0,0.0,0.0,0.0,0.0,0.0,0.0,0.0,4.3516,4.3165,4.5019,4.7266,4.9691,4.7851,4.8555,5.3451,5.166,5.1645,5.4576,5.4635,5.4394,5.4017,5.3998,5.3998,5.3998,5.3998,5.3998,5.4017,5.4876,5.5312,5.5332,5.6191,5.6609,5.6609,5.6609,5.6609,5.6609,5.6609,5.6609,5.6609,5.6609,5.6689,5.7422,6.2598,6.7868,7.2554,2.0603,2.1045,2.1459,2.1523,2.179,2.2422,0.0,0.0,0.0,0.0,3.7526,4.0923,4.4478,4.3124,4.1063,3.8854,3.6931,0.0,0.0,0.0,0.0,3.5302,3.5854,3.661,3.7601,3.4601,0.0,3.2423,3.0288,2.8479,2.7035,2.8217,2.839,2.7788,2.9907,3.3818,3.8916,3.9876,4.3231,4.7926,4.8805,4.6407,4.2271,0.0,4.0393,3.7844,3.5795,3.4738,3.4706,3.7377,4.0021,4.2756,4.5909,4.8678,5.0879,5.1284,5.1479,5.1499,5.1167,5.1426,5.1411,4.9906,4.9066,4.8281,0.0,0.0,0.0,0.0,0.0,0.0,0.0,0.0,0.0,0.0,0.0,0.0,0.0,0.0,0.0,4.3476,4.5428,4.6521,4.5937,4.8164,5.0078,5.1094,5.2056,5.3326,5.5058,5.3613,5.3144,5.3978,5.3998,5.3998,5.3998,5.3998,5.3998,5.4017,5.4876,5.5312,5.5332,5.6191,5.6609,5.6609,5.6609,5.6609,5.6609,5.6609,5.6609,5.6609,5.6609,5.7826,5.9744,6.1153,6.5064,6.9526,2.1272,2.2087,2.2783,2.2783,2.4181,0.0,2.6276,0.0,0.0,3.6384,3.9746,0.0,4.4874,4.267,4.0492,3.9113,3.6016,0.0,0.0,0.0,0.0,3.8157,3.997,4.1193,4.1706,3.9408,0.0,3.6836,0.0,3.0811,2.8934,2.9231,2.8977,2.8428,3.1243,3.4788,3.889,4.2042,4.523,4.8167,4.7863,4.5382,0.0,4.0937,3.9115,3.6788,3.5254,3.6209,3.8636,4.1244,4.3022,4.4719,4.7864,4.9764,5.0879,5.1284,5.1538,5.1719,5.1719,5.2031,5.2187,5.1465,5.0918,5.0332,4.9453,4.9121,4.916,0.0,0.0,0.0,0.0,0.0,0.0,0.0,0.0,0.0,0.0,0.0,0.0,0.0,4.453,4.5078,4.3926,4.7891,5.0351,4.9922,5.1523,5.2832,5.3549,5.3013,5.3066,5.3978,5.3998,5.3998,5.3998,5.3998,5.4095,5.4316,5.498,5.5384,5.5579,5.6269,5.6609,5.6609,5.6609,5.6609,5.6609,5.6609,5.6609,5.6609,5.6609,5.823,6.0453,5.9268,6.2399,6.7052,2.2111,2.3144,2.3964,2.3906,2.7097,0.0,0.0,3.2236,0.0,3.8826,0.0,4.4074,4.4168,4.1081,3.9016,3.9016,0.0,3.2892,3.4561,3.7676,4.0068,4.1401,4.4905,4.6833,4.6833,4.5506,0.0,0.0,0.0,3.3405,3.1597,2.9666,2.8747,2.8903,3.1933,3.5042,3.8339,4.4049,4.7006,4.7707,4.6224,4.4198,4.1848,3.949,3.736,3.5728,3.6082,3.9033,4.3142,4.5592,4.6572,4.7325,5.042,5.1148,5.0957,5.1304,5.1699,5.1992,5.1992,5.2266,5.2534,5.2617,5.2637,5.2441,5.1733,5.1343,5.1348,5.2114,5.1113,5.0699,0.0,0.0,0.0,0.0,0.0,0.0,0.0,0.0,0.0,0.0,0.0,0.0,4.336,4.721,4.957,4.9117,5.0211,5.1069,5.1479,5.2363,5.3267,5.4056,5.4037,5.3998,5.3998,0.0,5.4316,5.4713,5.5156,5.556,5.593,5.6387,5.6609,5.6609,5.6609,5.6609,5.6609,5.6609,5.6609,5.6609,5.6609,5.8038,5.9797,5.7448,5.9844,6.429,2.3069,2.4035,2.4788,2.4511,2.7537,3.1086,3.4244,3.7206,3.9527,4.0732,4.3804,4.5102,4.3129,4.0574,3.9016,3.9016,3.6352,0.0,0.0,0.0,0.0,4.2355,4.4964,4.6406,4.6406,4.4785,4.3105,0.0,0.0,3.4912,3.2878,3.3197,3.3352,3.3478,3.6273,3.9606,4.3294,4.6158,4.6816,4.5976,4.6115,4.3288,3.8953,3.8575,3.8328,3.8456,4.0746,4.0883,4.0399,4.3033,4.5423,4.7763,5.0516,5.1362,5.1304,5.1382,5.146,5.1519,5.1519,5.1577,5.1714,5.2109,5.2212,5.2246,5.2441,5.2715,5.2974,5.313,5.3183,5.2905,5.1928,0.0,0.0,0.0,0.0,0.0,0.0,0.0,0.0,0.0,0.0,0.0,4.4492,4.6191,4.7302,4.6894,4.7734,4.9336,5.1836,5.084,5.1543,5.4473,5.4193,0.0,0.0,0.0,5.4635,5.4713,5.5423,5.5833,5.593,5.6387,5.6609,5.6609,5.6609,5.6609,5.6609,5.6609,5.6609,5.6609,5.6609,5.6883,5.7236,5.6769,5.7459,5.8647,2.4681,2.5283,2.6223,2.762,0.0,0.0,0.0,4.1323,0.0,4.2965,4.4307,4.4372,4.1894,4.1177,4.0356,3.9107,3.8102,3.8567,4.1079,4.2498,4.3841,4.5156,4.6334,0.0,4.6618,4.5779,4.4219,4.1816,0.0,3.5233,3.3854,3.2807,3.2966,3.4323,3.8209,4.1465,4.4116,4.5069,0.0,4.6621,4.339,4.1467,4.024,3.7549,3.6688,3.7308,4.0292,4.15,4.233,4.6198,4.8392,4.9708,5.0993,5.1401,5.1401,5.1401,5.1558,5.1777,5.1777,5.1933,5.2124,5.2344,5.2402,5.2519,5.2974,5.3052,5.3189,5.3613,5.3691,5.3164,5.1401,4.9707,0.0,0.0,0.0,0.0,0.0,0.0,0.0,0.0,0.0,0.0,0.0,4.6523,4.6992,4.6348,4.7112,4.8929,5.1938,5.0683,5.1348,5.4596,5.4232,0.0,0.0,0.0,0.0,5.5019,5.5618,5.6028,5.6269,5.6484,5.6609,5.6609,5.6609,5.6609,5.6609,5.6609,5.6609,5.6609,5.6609,5.6719,5.6914,5.6914,5.7324,5.7851,2.6883,2.727,2.8415,0.0,3.4904,0.0,4.0738,4.4073,4.5937,4.4941,4.4883,4.3989,4.1529,4.2234,4.2091,4.0208,4.0324,4.1573,4.4041,4.4512,4.5561,4.7511,4.76,4.7422,4.7048,4.7048,4.5701,0.0,0.0,3.6158,3.5576,3.2393,3.2501,3.5556,3.974,4.2598,0.0,0.0,4.5698,4.7157,4.1905,4.0919,4.2058,3.725,3.5688,3.6466,3.9453,4.201,4.4734,4.9812,5.1616,5.1675,5.1675,5.1616,5.1558,5.1655,5.1894,5.2134,5.2187,5.2461,5.2734,5.2812,5.2851,5.2969,5.3424,5.3242,5.3158,5.3861,5.3828,5.313,5.1387,5.0571,0.0,0.0,0.0,0.0,0.0,0.0,0.0,0.0,0.0,0.0,4.7344,4.6894,4.6855,4.7109,4.7324,4.8633,5.1387,5.0762,5.1645,5.4453,5.3998,5.3724,5.3724,0.0,5.498,5.5312,5.5794,5.625,5.6609,5.6609,5.6609,5.6609,5.6609,5.6609,5.6609,5.6609,5.6609,5.6609,5.6609,5.6836,5.7207,5.7207,5.7715,5.8332,2.9947,3.0701,0.0,0.0,0.0,0.0,0.0,4.441,4.6269,4.6133,4.6423,4.5754,4.3333,4.3483,4.3704,4.3457,4.347,4.4554,4.7028,4.7224,4.7356,4.76,4.76,4.7581,4.7542,4.7519,4.6621,0.0,0.0,3.9459,3.931,3.4899,3.5571,4.0569,4.2186,4.4103,0.0,4.7269,4.6982,4.5716,4.5185,4.3886,4.1874,3.8658,3.8046,3.924,4.1743,4.3124,4.4657,5.0176,5.2266,5.2598,5.2598,5.2324,5.209,5.248,5.2344,5.2168,5.2539,5.2676,5.2812,5.3228,5.3326,5.3443,5.3842,5.39,5.39,5.3978,5.4316,5.4049,5.231,5.317,5.3248,0.0,0.0,0.0,0.0,0.0,0.0,0.0,0.0,0.0,0.0,4.6328,4.5664,4.9555,4.8066,4.779,4.9644,5.0391,5.1753,5.3998,5.3256,5.2807,5.2807,5.4433,5.5273,5.5312,5.6133,5.657,5.6609,5.6609,5.6609,5.6609,5.6609,5.6609,5.6609,5.6609,5.6609,5.6609,5.6609,5.6836,5.7207,5.7207,5.7519,5.7996,0.0,0.0,0.0,0.0,0.0,0.0,0.0,4.5553,4.6308,4.6308,4.6638,4.5865,4.3161,4.483,4.5422,4.3692,4.534,4.6911,4.7904,4.7949,4.8089,4.8385,4.8128,4.7949,4.7949,4.7949,4.7129,0.0,0.0,0.0,4.0606,3.738,3.8459,4.3184,4.4433,4.5781,4.7059,4.6724,4.6939,4.7286,4.439,4.3762,4.4082,3.9852,3.8779,3.9907,4.2782,4.4103,4.539,5.0994,5.2642,5.2383,5.2637,5.2598,5.25,5.2656,5.2798,5.2915,5.3072,5.3301,5.351,5.3711,5.3769,5.3808,5.3959,5.3998,5.3998,5.3998,5.4134,5.416,5.3756,5.3384,5.3091,0.0,0.0,0.0,0.0,0.0,0.0,0.0,0.0,0.0,0.0,4.9121,4.7695,4.8906,4.6269,4.6289,5.0074,5.0113,5.0757,5.2397,5.3398,5.3633,5.313,5.457,5.543,5.5657,5.6289,5.6609,5.6609,5.6609,5.6609,5.6609,5.6609,5.6609,5.6609,5.6609,5.6609,5.6609,5.6609,5.7039,5.7625,5.7625,5.8055,5.8699,3.4714,0.0,3.9102,0.0,4.2944,4.3561,4.6267,4.6465,4.6348,4.6443,4.6716,4.6113,4.4086,4.6108,4.6771,4.4743,4.6688,4.8027,4.8027,4.8027,4.8223,4.8675,4.8379,0.0,4.8398,4.8421,4.7835,4.6643,4.4025,0.0,4.2676,4.0733,4.1745,0.0,4.6348,4.7344,4.8089,4.7103,4.7616,4.8761,4.5299,4.535,4.6937,4.1853,4.081,4.2288,4.3845,4.5103,4.6768,5.1726,5.2994,5.2564,5.2969,5.3008,5.293,5.3066,5.3223,5.3449,5.3541,5.3789,5.3998,5.3998,5.3998,5.3998,5.3998,5.3998,5.3998,5.3998,5.4115,5.433,5.4785,5.3867,5.3359,5.4336,0.0,0.0,0.0,0.0,0.0,0.0,5.4173,5.3574,5.3404,5.0566,4.9059,4.984,4.707,4.6992,5.0781,5.0176,5.0445,5.2124,0.0,0.0,5.3384,5.4648,5.5501,5.5911,5.6387,5.6609,5.6609,5.6609,5.6609,5.6609,5.6609,5.6609,5.6609,5.6609,5.6609,5.6609,5.6609,5.7136,5.7898,5.7898,5.8465,5.9207,3.7402,4.015,4.2982,4.6263,4.6828,4.6987,4.7522,4.6855,4.6445,4.6853,4.6911,4.6889,4.6847,4.7302,4.76,4.7556,4.7578,4.76,4.76,4.76,4.7796,0.0,0.0,4.8418,4.8894,4.8894,4.8894,4.8855,0.0,0.0,4.623,4.5328,4.5621,4.6911,4.7793,4.8649,4.9488,4.9465,4.9484,4.9488,4.9438,4.9944,5.0195,4.5021,4.4996,4.7417,4.5189,4.614,4.8959,5.2283,5.3384,5.3443,5.3842,5.3711,5.3463,5.3861,5.3711,5.3482,5.3881,5.3998,5.3998,5.3998,5.3998,5.3998,5.3998,5.3998,5.3998,5.3998,5.4375,5.4805,5.5215,5.5293,5.5,5.4154,0.0,0.0,0.0,0.0,0.0,5.2851,5.0117,4.9629,5.3077,4.9473,4.8883,5.3588,5.1933,5.0918,5.1382,5.0625,0.0,5.3881,5.3158,0.0,5.341,5.4648,5.5501,5.5911,5.6387,5.6609,5.6609,5.6609,5.6609,5.6609,5.6609,5.6609,5.6609,5.6609,5.6609,5.6609,5.6609,5.7136,5.7898,5.7898,5.8465,5.9207,4.1517,4.4103,4.6049,4.6781,4.6911,4.695,4.7087,4.666,4.6445,4.6853,4.6658,4.6482,4.6482,4.7148,4.7461,0.0,4.7402,4.76,0.0,4.7305,4.7324,4.7754,4.7773,4.7988,4.8398,4.8757,4.8913,4.8913,0.0,0.0,0.0,4.7361,4.8008,4.8668,4.8672,4.8124,4.728,4.8834,4.8589,4.7346,4.9232,5.0312,5.0455,4.7147,4.67,4.7745,4.7351,4.7933,4.9355,5.2379,5.358,5.3848,5.3959,5.39,5.3822,5.3959,5.39,5.3848,5.3959,5.3998,5.3998,5.3998,5.3998,5.3998,5.3998,5.3998,5.3998,5.3998,5.4375,5.4805,5.5234,5.5521,5.5618,5.5345,5.5521,0.0,0.0,0.0,5.5019,5.5312,5.4238,5.3998,0.0,5.3013,0.0,5.2182,4.9683,4.9098,5.1284,5.2012,0.0,0.0,5.3685,0.0,5.3828,5.5072,5.593,5.6387,5.6523,5.6609,5.6609,5.6609,5.6609,5.6609,5.6609,5.6609,5.6609,5.6609,5.6609,5.6609,5.6609,5.7136,5.7898,5.7898,5.8465,5.9207,4.3349,4.5785,4.7522,4.7226,4.7009,4.6911,4.6911,4.654,4.6406,4.6638,4.6465,4.6367,4.6523,4.6875,0.0,4.6697,4.6933,4.7112,4.7112,4.697,4.7028,4.7324,4.7637,4.793,4.8203,0.0,0.0,4.8913,4.8047,4.7656,4.7656,4.8658,4.9265,4.9488,4.9238,4.8002,4.6175,4.7457,4.6757,4.5067,4.7797,4.914,4.9368,4.7952,4.8146,4.9083,4.8679,4.9329,5.0751,5.2726,5.3652,5.3998,5.3998,5.3998,5.3998,5.3998,5.3998,5.3998,5.3998,5.3998,5.3998,5.3998,5.3998,5.3998,5.3998,5.3998,5.3998,5.3998,5.4375,5.4805,5.5234,5.5618,5.597,5.6126,5.6145,5.6145,5.6145,0.0,5.5683,0.0,0.0,0.0,0.0,5.4322,5.3672,0.0,5.2109,5.1777,5.349,0.0,5.2075,5.2826,5.4316,0.0,5.472,5.5501,5.6126,5.6609,5.6609,5.6609,5.6609,5.6609,5.668,5.6816,5.6816,5.6816,5.6816,5.6816,5.6816,5.6797,5.664,5.7207,5.8113,5.7957,5.8465,5.9207,4.3565,4.5766,0.0,0.0,4.7226,0.0,4.695,4.6641,4.6406,4.6426,4.6406,4.6543,4.6911,4.6599,4.6387,4.6387,0.0,0.0,0.0,4.6736,4.695,4.695,4.7751,4.8203,4.8203,4.8695,4.8952,4.8952,4.8913,4.8913,4.8913,4.9277,4.9469,4.9469,4.9488,4.8126,4.5812,4.5658,4.4477,4.2973,4.5674,4.7133,4.7753,4.7973,4.9461,5.1197,4.9401,5.0447,5.2773,5.3228,5.3652,5.3998,5.3998,5.3998,5.3998,5.3998,5.3998,5.3998,5.3998,5.3998,5.3998,5.3998,5.3998,5.3998,5.3998,5.3998,5.3998,5.3998,5.4394,5.487,5.5234,5.5618,5.6048,5.6504,5.6562,5.6543,5.6609,5.6609,5.5866,0.0,0.0,0.0,0.0,5.3965,5.5137,0.0,5.7605,5.741,5.6875,0.0,5.104,5.5176,5.4922,5.5117,5.5891,5.593,5.6165,5.6609,5.6609,5.6609,5.6609,5.6609,5.6797,5.7168,5.7168,5.7168,5.7168,5.7207,5.7207,5.7187,5.6816,5.7441,5.8449,5.8086,5.8465,5.9207,0.0,0.0,4.7503,4.7126,4.7266,4.7422,4.7422,4.7344,4.7383,4.7715,4.748,4.7346,4.7422,4.7366,4.7307,4.7307,4.6973,4.6892,4.7268,4.7363,4.7422,4.7422,4.793,4.8203,4.8203,4.8965,4.9375,4.9375,4.9046,4.8913,4.8913,4.9011,4.9046,4.9046,4.9352,4.7065,4.3125,4.5458,4.5153,4.3388,4.6129,4.8749,5.0966,5.0643,5.1112,5.1879,5.1413,5.1857,5.2773,5.3228,5.3652,5.3998,5.3998,5.3998,5.3998,5.3998,5.3998,5.3998,5.3998,5.3998,5.3998,5.3998,5.3998,5.3998,5.3998,5.3998,5.3998,5.3998,5.4629,5.5195,5.5293,5.5618,5.6048,5.6504,5.6308,5.6184,5.6543,5.6609,5.6413,0.0,5.5527,5.5449,5.5807,5.5918,5.5573,0.0,0.0,5.4453,5.3384,5.2344,5.2871,5.5234,5.5215,5.541,5.5911,5.6269,5.6484,5.6609,5.6609,5.6609,5.6609,5.6609,5.664,5.6738,5.6738,5.6738,5.6758,5.707,5.7207,5.7246,5.7488,5.7969,5.8507,5.839,5.8711,5.9207,4.6997,4.7285,4.7207,4.695,4.7107,4.7285,4.7285,4.7441,4.7598,4.7595,4.7598,4.76,4.76,4.76,4.7757,4.8148,4.7598,4.7324,4.7581,4.7754,4.7773,4.76,4.8187,4.8418,4.8203,4.8867,4.9219,4.9219,4.9007,4.8988,4.916,4.916,4.9301,4.9496,4.9922,4.7202,4.2435,4.4346,4.3716,4.1706,4.443,4.7292,5.0054,5.1041,5.1558,5.1816,5.2012,5.2344,5.2773,5.3228,5.3652,5.3998,5.3998,5.3998,5.3998,5.3998,5.3998,5.3998,5.3998,5.3998,5.3998,5.3998,5.3998,5.3998,5.3998,5.3998,5.3998,5.3998,5.457,5.5019,5.5019,5.5345,5.5696,5.5957,5.593,5.5989,5.625,5.6289,5.6289,5.6289,5.5891,5.5742,5.5976,5.6374,5.6042,5.4648,0.0,0.0,5.3887,5.3867,5.4336,5.5273,5.5462,5.5774,5.623,5.6465,5.6609,5.6609,5.6609,5.668,5.6875,5.6875,5.6973,5.7195,5.7195,5.7078,5.6914,5.7324,5.75,5.7566,5.7808,5.8289,5.88,5.8566,5.88,5.9207,4.6814,4.6814,4.6833,4.6892,4.697,4.7028,4.7087,4.75,4.7637,4.7243,4.7539,4.7796,4.7796,4.7796,4.8089,4.8835,4.8206,4.7796,4.7796,4.8128,4.8144,4.7815,4.8522,4.8714,4.832,4.8695,4.8972,4.9109,4.905,4.9203,4.9605,4.9605,4.9824,5.0195,5.0198,4.7394,4.2706,4.2689,4.163,4.0106,4.2379,4.5236,4.836,5.065,5.1538,5.1655,5.2051,5.2441,5.2871,5.3267,5.3652,5.3998,5.3998,5.3998,5.3998,5.3998,5.3998,5.3998,5.3998,5.3998,5.3998,5.3998,5.3998,5.3998,5.3998,5.3998,5.3998,5.3998,5.4375,5.4713,5.4713,5.498,5.5195,5.5137,5.5501,5.5774,5.5638,0.0,5.5891,5.5813,5.5442,5.5234,5.5293,5.5898,5.6172,5.5833,5.6172,5.623,5.5833,5.554,5.5384,5.5384,5.5716,5.6152,5.6609,5.6609,5.6609,5.6609,5.6609,5.6777,5.7129,5.7187,5.7422,5.7808,5.7879,5.7683,5.7344,5.7793,5.7996,5.7996,5.8055,5.8551,5.9149,5.8742,5.8859,5.9207,4.6406,4.6406,4.6482,4.6853,4.7246,4.7598,4.7949,4.8402,4.8656,4.8597,4.8636,4.8698,4.8698,4.8698,4.8757,4.8894,4.8776,4.8698,4.8698,4.8776,4.8753,4.8698,4.8835,4.8874,4.8773,4.8874,4.9265,5.0004,4.9609,4.9648,5.0102,5.0102,5.0141,5.0124,4.8176,4.5615,4.2581,4.0696,4.099,4.2709,4.3141,4.6521,5.1412,5.1825,5.2207,5.2519,5.2598,5.2891,5.3287,5.339,5.3652,5.3998,5.3998,5.3998,5.3998,5.3998,5.3998,5.3998,5.3998,5.3998,5.3998,5.3998,5.3998,5.3998,5.3998,5.3998,5.3998,5.3998,5.4375,5.4713,5.4713,5.4752,5.4668,5.4271,5.4857,5.513,5.4408,0.0,5.5774,5.5423,5.5039,5.4922,5.5273,5.5098,5.5124,5.539,5.5469,5.5469,5.541,5.5657,5.5813,5.5813,5.5872,5.6152,5.6609,5.6609,5.6609,5.6609,5.6609,5.6621,5.6699,5.7051,5.7246,5.7344,5.7722,5.7867,5.782,5.8242,5.8418,5.8449,5.8828,5.9062,5.918,5.9121,5.9149,5.9207,4.6308,4.6308,4.6426,4.6833,4.7285,4.7737,4.8144,4.8597,4.8815,4.8558,4.8734,4.8792,4.8558,4.8734,4.8913,4.8913,4.8913,4.8913,4.8913,4.8913,4.9011,4.9199,4.9219,4.9219,4.9219,4.9007,4.9203,4.9824,4.9605,4.9957,5.0859,5.0625,5.0762,5.1187,5.0081,4.7979,4.5177,4.4608,4.4802,4.5545,4.5735,4.8366,5.2114,5.2114,5.2344,5.2734,5.2994,5.3209,5.3424,5.3633,5.3867,5.3998,5.3998,5.3998,5.3998,5.3998,5.3998,5.3998,5.3998,5.3998,5.3998,5.3998,5.3998,5.3998,5.3998,5.3998,5.3998,5.3998,5.4154,5.4336,5.4336,5.4336,5.4336,5.4375,5.4707,5.4902,5.4746,5.5039,5.5195,5.5,5.459,5.4414,5.4564,5.4668,5.4791,5.4961,5.5176,5.5384,5.5599,5.5813,5.6009,5.6269,5.6289,5.6387,5.6609,5.6609,5.6609,5.6609,5.6609,5.6863,5.7312,5.7507,5.7695,5.7894,5.8144,5.8113,5.7937,5.8332,5.8507,5.8566,5.9004,5.9207,5.9207,5.9207,5.9207,5.9207,4.6308,4.6308,4.6465,4.697,4.7363,4.7776,4.8281,4.8675,4.8753,4.8398,4.8675,4.8753,4.8398,4.8675,4.8913,4.8913,4.8913,4.8913,4.8913,4.8913,4.9086,4.9488,4.9508,4.9508,4.9508,4.9105,4.9203,4.9801,4.9703,5.025,5.1401,5.1069,5.1308,5.1909,5.128,4.9646,4.7394,4.7435,4.7422,4.7444,4.7848,4.9567,5.1973,5.229,5.2519,5.2773,5.3345,5.3541,5.3599,5.3881,5.3998,5.3998,5.3998,5.3998,5.3998,5.3998,5.3998,5.3998,5.3998,5.3998,5.3998,5.3998,5.3998,5.3998,5.3998,5.3998,5.3998,5.3998,5.3998,5.3998,5.3998,5.3998,5.4056,5.4199,0.0,5.4713,5.4707,5.4687,5.4674,5.4531,5.4238,5.3998,5.3998,5.4433,5.4713,5.4713,5.5156,5.556,5.5891,5.6009,5.625,5.6609,5.6609,5.6609,5.6609,5.668,5.668,5.6609,5.668,5.7097,5.7742,5.7867,5.8113,5.8507,5.8625,5.8496,5.823,5.8535,5.8655,5.8711,5.9062,5.9207,5.9207,5.9207,5.9207,5.9207,4.6308,4.6308,4.6562,4.7405,4.7581,4.7874,4.8737,4.8894,4.8894,4.8855,4.8894,4.8894,4.8855,4.8894,4.8913,4.8913,4.8913,4.8913,4.8913,4.8913,4.9086,4.9488,4.9508,4.9508,4.9508,4.9105,4.9496,5.0703,5.0312,5.0586,5.1401,5.1382,5.1401,5.1343,4.8867,4.7625,4.7259,4.475,4.511,4.7444,4.7848,4.9399,5.1577,5.2837,5.3052,5.2812,5.3646,5.3959,5.3959,5.3998,5.3998,5.3998,5.3998,5.3998,5.3998,5.3998,5.3998,5.3998,5.3998,5.3998,5.3998,5.3998,5.3998,5.3998,5.3998,5.3998,5.3998,5.3998,5.3998,5.3998,5.3998,5.3998,5.3744,5.2988,5.3887,5.4283,5.3066,5.3926,5.4531,5.4095,5.4017,5.3998,5.3998,5.4433,5.4713,5.4713,5.543,5.5872,5.5911,5.6308,5.6543,5.6609,5.6609,5.6609,5.6609,5.6973,5.6973,5.6582,5.6973,5.7207,5.7265,5.7703,5.8113,5.8507,5.8945,5.9121,5.911,5.9149,5.9149,5.9149,5.918,5.9207,5.9207,5.9207,5.9207,5.9207,4.6677,4.6914,4.721,4.7542,4.7815,4.8164,4.8815,4.8913,4.8913,4.8913,4.8913,4.8913,4.8913,4.8913,4.8913,4.8913,4.8913,4.8913,4.8913,4.9121,4.9355,4.9488,4.9508,4.9508,4.9508,4.9355,4.9648,5.041,5.0527,5.0996,5.1836,5.1538,5.1558,5.1767,5.0454,4.988,4.9825,4.909,4.935,5.0366,5.0739,5.163,5.2701,5.3209,5.3437,5.3549,5.3881,5.3998,5.3998,5.3998,5.3998,5.3998,5.3998,5.3998,5.3998,5.3998,5.3998,5.3998,5.3998,5.3998,5.3998,5.3998,5.3998,5.3998,5.3998,5.3998,5.3998,5.3998,5.3998,5.3998,5.3998,5.3998,5.3978,5.3945,5.2633,5.1515,5.1284,5.1485,5.1585,5.134,5.2916,5.4115,5.4414,5.4615,5.4902,5.543,5.5735,5.6028,5.6328,5.6504,5.6609,5.6609,5.6836,5.6973,5.6973,5.7402,5.7566,5.741,5.7566,5.7762,5.8027,5.8203,5.8507,5.8945,5.9121,5.9207,5.9207,5.9207,5.9207,5.9207,5.9207,5.9207,5.9207,5.9207,5.9207,5.9207,4.6911,4.7285,4.764,4.7776,4.8008,4.8359,4.8835,4.8913,4.8913,4.8913,4.8913,4.8913,4.8913,4.8913,4.8913,4.8913,4.8913,4.8913,4.8913,4.9277,4.9508,4.9508,4.9508,4.9566,4.9726,4.9566,4.984,5.0566,5.0723,5.1172,5.1875,5.1558,5.1558,5.1855,5.1538,5.1401,5.1421,5.1758,5.1953,5.2134,5.2539,5.2891,5.3209,5.3482,5.3672,5.3848,5.3959,5.3998,5.3998,5.3998,5.3998,5.3998,5.3998,5.3998,5.3998,5.3998,5.3998,5.3998,5.3998,5.3998,5.3998,5.3998,5.3998,5.3998,5.3998,5.3998,5.3998,5.3998,5.3998,5.3998,5.3998,5.3998,5.3814,5.3222,5.1196,4.9541,4.9036,4.9563,4.9989,5.0045,5.2633,5.4525,5.4844,5.5,5.5312,5.5872,5.6028,5.6269,5.6562,5.6609,5.6609,5.6609,5.7129,5.7422,5.7422,5.7851,5.8027,5.7898,5.8027,5.8215,5.8507,5.8507,5.8769,5.9207,5.9207,5.9207,5.9207,5.9207,5.9207,5.9207,5.9207,5.9207,5.9207,5.9207,5.9207,5.9207,4.6911,4.7285,4.7715,4.8125,4.8203,4.8359,4.8835,4.8913,4.8913,4.8913,4.8913,4.8913,4.8913,4.8913,4.8913,4.8913,4.8913,4.8913,4.8913,4.9277,4.9508,4.9508,4.9508,4.9703,5.0199,4.9766,5.0132,5.1401,5.1016,5.0991,5.1401,5.1401,5.1401,5.1401,5.1401,5.1401,5.1401,5.1421,5.168,5.2153,5.2539,5.2715,5.2787,5.3666,5.375,5.3443,5.3867,5.3998,5.3998,5.3998,5.3998,5.3998,5.3998,5.3998,5.3998,5.3998,5.3998,5.3998,5.3998,5.3998,5.3998,5.3998,5.3998,5.3998,5.3998,5.3998,5.3998,5.3998,5.3998,5.3998,5.3998,5.3972,5.3038,5.017,4.9658,4.8763,4.6255,4.8478,5.0477,5.0776,5.3477,5.5312,5.5312,5.5657,5.5911,5.5911,5.6348,5.6609,5.6609,5.6609,5.6609,5.6582,5.7449,5.7898,5.7898,5.8301,5.832,5.7926,5.832,5.8507,5.8507,5.8507,5.8769,5.9207,5.9207,5.9207,5.9207,5.9207,5.9207,5.9207,5.9207,5.9207,5.9207,5.9207,5.9207,5.9207,4.7773,4.8206,4.8441,4.8242,4.8457,4.8734,4.8894,4.8913,4.8913,4.8913,4.8913,4.8913,4.8913,4.8913,4.8913,4.8913,4.8913,4.9007,4.9316,4.9746,4.998,4.998,4.998,5.0063,5.0199,5.0332,5.0581,5.0972,5.1148,5.1284,5.1401,5.1401,5.1401,5.1401,5.1401,5.1401,5.1421,5.1758,5.2129,5.2558,5.3013,5.3359,5.3646,5.39,5.392,5.3848,5.3959,5.3998,5.3998,5.3998,5.3998,5.3998,5.3998,5.3998,5.3998,5.3998,5.3998,5.3998,5.3998,5.3998,5.3998,5.3998,5.3998,5.3998,5.3998,5.3998,5.3998,5.3998,5.3998,5.3998,5.3998,5.2383,5.0818,5.0177,4.669,4.4644,4.6166,4.7181,4.8527,5.0678,5.353,5.543,5.5696,5.5833,5.6028,5.6367,5.6504,5.6609,5.6609,5.6609,5.6719,5.7012,5.7605,5.8027,5.832,5.8769,5.8945,5.8817,5.8945,5.9004,5.9004,5.9004,5.9062,5.9207,5.9207,5.9207,5.9207,5.9207,5.9207,5.9207,5.9207,5.9207,5.9207,5.9207,5.9207,5.9207,4.8164,4.8578,4.8815,4.8538,4.8695,4.8913,4.8913,4.8913,4.8913,4.8913,4.8913,4.8913,4.8913,4.8913,4.8913,4.8913,4.9046,4.9238,4.9488,5.0098,5.043,5.043,5.0586,5.0586,5.043,5.0683,5.0879,5.103,5.1284,5.1401,5.1401,5.1401,5.1401,5.1401,5.1401,5.1499,5.1699,5.1973,5.2447,5.2988,5.3287,5.3633,5.3998,5.3998,5.3998,5.3998,5.3998,5.3998,5.3998,5.3998,5.3998,5.3998,5.3998,5.3998,5.3998,5.3998,5.3998,5.3998,5.3998,5.3998,5.3998,5.3998,5.3998,5.3998,5.3998,5.3998,5.3998,5.3998,5.3998,5.3646,5.2512,5.1011,4.9273,4.7173,4.5048,4.3977,4.4912,4.7113,4.932,5.1208,5.4049,5.5918,5.6145,5.6165,5.6308,5.6562,5.6609,5.666,5.6816,5.6836,5.7031,5.7461,5.791,5.8262,5.8507,5.8973,5.9207,5.9207,5.9207,5.9207,5.9207,5.9207,5.9207,5.9207,5.9207,5.9207,5.9207,5.9207,5.9207,5.918,5.9004,5.8917,5.8917,5.8917,5.8917,5.8945,4.8262,4.8617,4.8913,4.8913,4.8913,4.8913,4.8913,4.8913,4.8913,4.8913,4.8913,4.8913,4.8913,4.8913,4.8913,4.8952,4.9355,4.9625,4.9625,5.0386,5.0859,5.0859,5.1206,5.1245,5.0918,5.0879,5.103,5.1401,5.1401,5.1401,5.1401,5.1401,5.1401,5.1401,5.144,5.168,5.2056,5.2173,5.2642,5.3326,5.3404,5.3672,5.3998,5.3998,5.3998,5.3998,5.3998,5.3998,5.3998,5.3998,5.3998,5.3998,5.3998,5.3998,5.3998,5.3998,5.3998,5.3998,5.3998,5.3998,5.3998,5.3998,5.3998,5.3998,5.3998,5.3998,5.3998,5.3998,5.3998,5.3115,5.0277,4.98,4.8042,4.266,4.4294,4.5502,4.3438,4.8101,5.1929,5.2427,5.4922,5.6609,5.6609,5.6609,5.6609,5.6609,5.6621,5.6797,5.7187,5.7246,5.7461,5.7937,5.832,5.8507,5.8566,5.9004,5.9207,5.9207,5.9207,5.9207,5.9207,5.9207,5.9207,5.9207,5.9207,5.9207,5.9207,5.9207,5.918,5.909,5.8711,5.8538,5.8507,5.8507,5.8535,5.8625,4.8675,4.8835,4.8913,4.8913,4.8913,4.8913,4.8913,4.8913,4.8913,4.8913,4.8913,4.8913,4.8913,4.8913,4.9027,4.9355,5.0054,5.0527,5.0527,5.0991,5.1265,5.1265,5.1362,5.1519,5.1797,5.144,5.1323,5.1401,5.1401,5.1401,5.1401,5.1401,5.1401,5.1421,5.1777,5.1797,5.1616,5.2681,5.3013,5.291,5.3613,5.392,5.3998,5.3998,5.3998,5.3998,5.3998,5.3998,5.3998,5.3998,5.3998,5.3998,5.3998,5.3998,5.3998,5.3998,5.3998,5.3998,5.3998,5.3998,5.3998,5.3998,5.3998,5.3998,5.3998,5.3998,5.3998,5.3998,5.3998,5.3205,5.0555,4.8302,4.5856,4.2827,4.3019,4.4262,4.6269,4.9685,5.2907,5.5345,5.6188,5.6609,5.6609,5.6609,5.6609,5.6609,5.6894,5.7109,5.7207,5.7539,5.7937,5.8359,5.8449,5.8683,5.9034,5.9149,5.9207,5.9207,5.9207,5.9207,5.9207,5.9207,5.9207,5.9207,5.9207,5.9207,5.9207,5.9207,5.8976,5.8683,5.8945,5.8828,5.8507,5.8507,5.8742,5.8973,4.8855,4.8913,4.8913,4.8913,4.8913,4.8913,4.8913,4.8913,4.8913,4.8913,4.8913,4.8913,4.8913,4.8913,4.9066,4.9469,5.0289,5.0898,5.1069,5.1284,5.1499,5.1714,5.1519,5.1519,5.1777,5.1519,5.1499,5.1738,5.1499,5.1401,5.1421,5.1616,5.1738,5.1758,5.2187,5.2246,5.2065,5.3013,5.3248,5.3086,5.3724,5.3998,5.3998,5.3998,5.3998,5.3998,5.3998,5.3998,5.3998,5.3998,5.3998,5.3998,5.3998,5.3998,5.3998,5.3998,5.3998,5.3998,5.3998,5.3998,5.3998,5.3998,5.3998,5.3998,5.3998,5.3998,5.3998,5.3998,5.4173,5.3067,4.8921,4.7198,4.5575,4.3013,4.3981,4.6149,4.9302,5.2327,5.4841,5.6421,5.6609,5.6609,5.6609,5.6609,5.668,5.6875,5.709,5.7375,5.7805,5.8039,5.8406,5.8828,5.8828,5.8945,5.9207,5.9207,5.9207,5.9207,5.9207,5.9207,5.9207,5.9207,5.9207,5.9207,5.9207,5.9207,5.9207,5.9207,5.8917,5.8507,5.8555,5.8273,5.791,5.8144,5.8496,5.8742,4.8913,4.8913,4.8913,4.8913,4.8913,4.8913,4.8913,4.8913,4.8913,4.8913,4.8913,4.8913,4.8913,4.905,4.9261,4.9586,5.0488,5.1148,5.1499,5.1519,5.1714,5.2168,5.1675,5.1519,5.1733,5.1519,5.1577,5.1973,5.1577,5.144,5.1519,5.1914,5.2153,5.2207,5.2637,5.2773,5.2754,5.3287,5.3463,5.3449,5.3848,5.3998,5.3998,5.3998,5.3998,5.3998,5.3998,5.3998,5.3998,5.3998,5.3998,5.3998,5.3998,5.3998,5.3998,5.3998,5.3998,5.3998,5.3998,5.3998,5.3998,5.3998,5.3998,5.3998,5.3998,5.3998,5.4017,5.4095,5.4028,5.2324,4.7063,4.6183,4.5476,4.3162,4.5482,4.8644,5.1681,5.4706,5.6609,5.6609,5.6609,5.6609,5.6609,5.664,5.6836,5.7187,5.7344,5.7746,5.8449,5.8566,5.88,5.918,5.9207,5.9207,5.9207,5.9207,5.9207,5.9207,5.9207,5.9207,5.9207,5.9207,5.9207,5.9207,5.9207,5.9207,5.918,5.9121,5.88,5.8359,5.8027,5.7625,5.7265,5.7722,5.8027,5.807,4.8913,4.8913,4.8913,4.8913,4.8913,4.8913,4.8913,4.8913,4.8913,4.8913,4.8913,4.8913,4.8913,4.9555,5.0043,5.0102,5.1235,5.1958,5.1992,5.2017,5.2187,5.2598,5.1831,5.1928,5.3091,5.1987,5.144,5.1499,5.144,5.1597,5.2017,5.2075,5.231,5.2637,5.3111,5.3091,5.2754,5.3568,5.3711,5.3449,5.3848,5.3998,5.3998,5.3998,5.3998,5.3998,5.3998,5.3998,5.3998,5.3998,5.3998,5.3998,5.3998,5.3998,5.3998,5.3998,5.3998,5.3998,5.3998,5.3998,5.3998,5.3998,5.3998,5.3998,5.3998,5.3998,5.4115,5.4512,5.2581,5.0001,4.7327,4.4809,4.3107,4.3138,4.5653,4.8644,5.1681,5.4706,5.6609,5.6609,5.6609,5.6609,5.6609,5.6914,5.7148,5.7207,5.791,5.839,5.8507,5.8887,5.9121,5.9207,5.9207,5.9207,5.9207,5.9207,5.9207,5.9207,5.9207,5.9207,5.9207,5.9207,5.9207,5.9207,5.9207,5.9207,5.918,5.8769,5.8332,5.7969,5.7926,5.7625,5.7265,5.7722,5.7468,5.6875,4.8913,4.8913,4.8913,4.8913,4.8913,4.8913,4.8913,4.8913,4.8913,4.8913,4.8913,4.8991,4.9199,5.0,5.043,5.0219,5.1133,5.1816,5.2095,5.1855,5.1914,5.2344,5.1992,5.207,5.2661,5.2324,5.2007,5.1797,5.1519,5.1499,5.1719,5.2207,5.2539,5.2734,5.3437,5.3496,5.315,5.3724,5.3769,5.3449,5.3848,5.3998,5.3998,5.3998,5.3998,5.3998,5.3998,5.3998,5.3998,5.3998,5.3998,5.3998,5.3998,5.3998,5.3998,5.3998,5.3998,5.3998,5.3998,5.3998,5.3998,5.3998,5.3998,5.3998,5.3998,5.4193,5.4453,5.4674,5.2687,5.0133,4.7489,4.4753,4.349,4.5375,4.675,4.9254,5.3958,5.5767,5.6609,5.6609,5.6609,5.668,5.6914,5.7109,5.7395,5.791,5.8273,5.8625,5.8887,5.909,5.9207,5.9207,5.9207,5.9207,5.9207,5.9207,5.9207,5.9207,5.9207,5.9207,5.9207,5.9207,5.9207,5.9207,5.9207,5.9062,5.88,5.8594,5.8097,5.75,5.75,5.7383,5.7207,5.7195,5.7051,5.6933]}]]